GFSCGP_850_spd_000.txt.gz
Wind_Speed
7 6 3 3 4 4 3 3 7 3 5 5 8 8 6 18 31 26 31 38 36 34 27 20 17 15 17 20 17 15 12 12 20 19 18 14 12 6 5 8 11 12 15 19
6 2 3 4 5 6 3 7 5 5 7 7 10 10 7 14 18 29 33 34 32 31 27 24 22 17 13 14 12 12 12 18 18 15 6 3 4 5 9 12 12 17 20 26
6 5 2 5 6 7 5 7 3 3 2 9 17 9 9 8 20 24 28 30 28 27 25 22 19 18 17 15 12 9 6 4 2 4 5 7 9 12 13 16 19 19 20 18
5 7 5 5 4 1 2 3 4 3 3 6 1 4 4 5 11 18 24 29 28 26 22 18 15 12 10 11 8 7 6 4 4 8 14 15 16 17 19 20 15 15 17 16
4 4 6 5 0 1 3 2 2 2 3 3 2 7 5 5 7 7 15 25 22 18 15 11 8 7 9 8 7 10 11 12 15 17 21 22 21 21 21 18 18 14 12 14
4 3 3 1 3 1 1 1 6 4 3 3 4 5 6 4 7 5 13 23 18 12 7 2 1 6 7 9 12 12 14 14 16 17 20 19 20 20 18 13 11 13 16 23
5 4 5 5 4 6 8 5 3 4 4 4 3 7 2 4 5 13 17 19 16 13 9 8 5 2 6 9 9 12 13 15 14 13 13 16 18 15 9 9 15 20 23 20
3 4 4 6 2 1 3 5 5 4 2 2 5 3 2 5 23 23 18 16 16 16 12 12 8 4 3 6 7 6 8 12 12 15 15 14 10 8 11 26 30 39 24 21
4 1 2 0 2 1 3 4 4 6 4 3 1 4 3 5 6 15 9 16 16 15 14 17 12 8 5 7 9 10 10 11 11 9 10 15 22 27 28 29 27 19 21 20
2 4 2 3 5 6 6 2 4 4 2 1 3 3 4 5 4 6 8 12 15 19 18 15 12 10 11 10 10 12 12 11 13 15 19 26 30 32 37 34 30 23 23 19
2 4 4 4 3 1 5 3 5 4 3 4 2 5 5 7 7 10 16 25 23 19 17 16 13 11 10 12 15 10 10 12 15 19 22 25 29 32 33 28 20 24 22 24
2 5 3 1 3 1 2 3 4 4 2 2 4 4 3 5 18 25 22 22 22 20 15 12 9 10 12 12 10 10 12 13 17 21 24 23 25 28 32 28 28 32 27 22
2 2 3 6 4 6 4 2 5 6 3 3 5 5 2 6 14 16 24 23 19 14 9 8 10 12 11 8 9 11 15 18 23 29 31 34 33 29 29 27 28 20 12 13
2 3 5 6 4 3 1 2 4 5 4 4 6 6 5 6 10 17 21 18 13 8 8 11 12 7 4 8 11 15 19 23 29 30 33 37 37 32 25 23 17 18 32 17
3 4 2 2 4 1 1 2 1 4 4 5 7 6 6 6 8 16 18 12 7 6 8 8 5 2 6 9 14 17 21 24 27 31 34 33 35 31 29 26 29 26 14 7
5 2 1 1 5 6 3 5 5 4 4 4 9 6 6 13 19 16 12 9 6 5 5 4 5 1 6 12 15 17 23 27 29 33 32 31 33 34 32 30 26 16 5 4
4 4 3 3 5 6 5 5 3 2 4 3 6 6 9 6 12 12 10 6 3 3 3 3 1 5 13 16 19 22 26 28 30 29 31 35 37 38 31 25 13 15 6 17
5 4 3 2 4 1 5 5 4 9 3 11 11 7 8 13 11 10 6 1 3 1 2 5 5 12 17 17 20 22 25 27 30 31 33 33 35 34 25 17 15 9 12 13
5 4 3 3 3 5 6 5 6 5 3 4 8 10 8 15 13 8 3 2 2 3 7 9 11 16 15 17 18 24 27 28 28 31 32 31 31 28 19 16 16 12 18 13
6 6 4 3 4 6 6 2 9 8 4 17 14 14 11 13 3 5 5 3 4 6 7 9 13 13 16 18 21 23 18 22 28 31 30 31 30 20 16 13 16 15 9 16
3 3 5 3 2 8 7 10 4 5 7 24 20 15 13 6 8 4 3 2 3 7 6 7 10 11 15 21 18 16 23 28 30 26 30 33 24 17 13 11 8 11 16 15
7 6 4 3 2 7 13 6 7 6 11 21 17 13 12 7 6 5 3 2 3 2 6 10 11 16 19 15 20 27 29 26 25 29 33 25 15 13 12 16 18 16 11 9
2 7 5 9 7 6 18 11 15 13 14 18 16 11 9 9 7 6 3 2 4 6 9 14 19 21 21 21 27 24 27 27 27 31 25 19 14 12 12 11 12 12 10 12
4 8 3 3 6 14 13 15 13 16 13 14 13 11 11 9 6 6 6 3 5 11 16 21 24 25 26 27 25 24 27 29 32 25 21 18 13 15 14 11 12 11 11 15
6 6 4 4 4 2 7 16 17 14 11 13 10 9 9 10 9 6 3 5 10 16 21 23 24 26 26 26 27 29 32 31 25 18 18 15 12 13 14 9 10 13 16 18
6 7 4 7 9 11 11 15 19 17 15 12 14 12 12 11 8 2 5 12 18 21 23 24 25 26 26 29 31 31 26 26 20 17 16 12 12 11 10 12 15 17 18 13

GFSCGP_850_spd_006.txt.gz
Wind_Speed
6 8 4 3 4 4 4 4 3 3 4 8 5 6 8 15 15 14 14 15 13 10 9 5 5 3 5 9 11 13 15 12 6 2 11 10 2 10 14 8 13 14 17 20
7 4 2 3 3 5 5 6 4 3 4 9 8 9 6 13 7 11 21 23 25 25 22 16 13 11 9 8 9 12 13 13 10 9 4 4 9 9 9 12 15 16 18 18
5 2 2 1 5 6 4 5 3 5 10 6 6 6 6 6 10 14 20 24 21 19 19 18 17 16 15 16 17 17 16 14 10 8 7 9 8 8 11 14 16 19 19 18
4 3 4 5 6 4 3 1 5 8 4 4 2 2 1 1 2 2 11 16 16 20 20 20 18 17 15 17 14 12 11 7 5 5 7 9 11 11 13 16 18 18 17 18
3 2 5 7 1 3 3 6 6 3 5 5 4 5 3 4 4 6 9 13 17 19 19 21 18 14 14 13 10 7 5 4 5 7 9 14 15 14 15 16 18 17 20 26
3 3 4 1 3 2 4 6 6 4 3 2 4 5 4 7 8 5 10 16 18 18 18 20 15 11 8 8 6 3 1 4 7 9 10 12 12 12 12 14 17 22 24 24
6 4 4 2 3 3 6 5 3 3 3 4 1 3 6 11 7 12 17 20 18 17 19 18 15 12 8 6 3 1 0 3 4 7 10 9 10 12 14 16 19 23 25 26
4 5 3 4 2 4 3 5 5 6 3 3 3 4 5 6 19 26 25 19 18 18 17 15 13 12 9 8 7 3 2 6 9 8 8 9 11 14 18 20 23 27 28 27
4 1 3 2 1 3 2 3 3 7 3 3 3 4 3 4 5 15 20 17 18 17 18 18 15 13 11 8 3 3 8 10 8 10 11 13 18 21 21 24 29 32 32 28
5 3 2 3 2 7 2 5 3 3 3 2 3 4 4 5 9 7 10 18 19 21 21 19 16 12 8 3 4 9 11 10 10 12 15 20 24 25 27 31 33 32 29 21
3 4 4 1 3 2 2 2 6 5 3 4 1 5 5 9 11 10 15 22 25 25 23 18 13 9 4 0 4 13 7 6 11 16 20 23 24 28 28 30 33 31 21 17
1 5 2 2 2 2 1 3 4 4 3 1 3 5 4 8 13 19 20 22 24 24 19 14 9 5 3 2 4 4 4 10 14 19 21 22 26 28 30 32 31 27 18 17
5 2 3 6 5 4 2 3 4 6 3 4 4 5 4 7 11 15 24 25 23 21 16 11 7 7 6 2 1 5 9 12 15 20 20 24 26 29 31 32 31 25 15 12
4 3 5 6 4 2 3 4 4 5 3 3 6 4 4 4 7 15 22 25 21 17 12 10 9 10 5 2 13 8 11 14 17 19 20 23 25 30 33 33 29 23 17 20
4 4 2 2 4 2 1 4 6 6 5 6 5 7 6 10 10 21 26 23 19 15 12 10 9 7 8 13 8 10 14 15 17 20 20 22 26 31 32 31 29 23 18 15
4 3 0 0 4 5 3 5 6 4 4 7 3 7 5 7 16 21 27 23 20 15 11 11 10 8 12 10 11 14 14 16 19 22 23 22 28 29 29 31 26 18 13 13
3 5 3 4 3 5 6 8 9 5 4 6 6 8 8 5 17 26 27 23 20 15 12 12 11 8 10 12 13 14 15 18 22 24 21 24 28 27 30 26 21 15 11 13
4 4 3 2 3 2 6 2 4 5 4 6 3 5 14 11 18 23 24 23 19 15 13 13 10 10 12 13 13 14 17 21 24 22 22 26 24 27 29 24 18 15 13 16
5 4 3 4 3 5 5 5 7 8 8 9 7 4 8 10 12 18 23 21 17 13 11 9 10 12 13 13 14 17 21 22 20 23 26 24 23 28 27 21 16 16 16 17
5 5 4 3 4 6 7 3 5 4 5 13 16 14 15 15 3 9 20 25 20 14 14 12 12 14 13 12 15 20 22 21 25 23 23 23 23 26 24 18 15 13 16 15
3 3 4 2 3 8 7 3 5 5 7 12 23 25 25 8 17 7 5 15 18 15 14 13 14 12 11 15 19 20 23 23 22 23 25 24 23 24 21 18 15 16 17 14
7 6 4 3 2 8 8 4 7 6 6 14 24 26 30 28 18 8 7 17 17 14 13 12 11 10 13 16 20 22 22 23 25 27 27 26 24 21 18 18 17 17 14 13
2 6 4 9 6 4 15 7 15 5 7 12 22 20 27 30 21 14 16 17 17 15 12 8 9 12 16 18 20 23 23 26 27 26 25 25 20 17 16 15 15 15 13 11
4 6 2 2 4 12 17 22 27 18 20 21 17 20 24 26 22 17 17 18 14 8 8 10 12 16 17 19 20 22 25 27 27 25 23 20 16 15 15 12 13 11 9 13
4 7 4 5 12 17 20 19 20 23 23 21 21 18 20 20 18 18 19 14 10 8 10 11 14 17 18 20 22 24 26 28 25 23 22 18 17 18 19 12 9 9 12 17
9 7 4 6 19 10 16 18 13 15 19 21 19 16 19 18 17 18 12 11 8 9 10 12 14 17 19 22 24 26 26 22 23 23 19 19 17 15 18 12 12 12 14 19

GFSCGP_850_spd_009.txt.gz
Wind_Speed
1 3 4 3 2 3 5 4 6 3 1 7 6 5 7 7 8 7 8 10 10 9 8 6 6 5 4 4 3 5 4 3 3 6 9 10 8 5 10 9 9 10 12 14
5 4 1 5 4 5 4 6 4 5 2 5 6 9 6 7 4 3 9 11 13 15 12 10 10 12 12 10 12 16 15 14 13 12 8 5 6 4 5 8 11 12 13 14
5 2 2 4 3 5 3 6 4 5 6 6 6 4 3 5 7 8 10 15 18 22 25 24 22 22 23 23 20 19 18 16 13 10 6 2 1 4 8 11 12 14 15 15
5 2 3 4 3 2 4 3 9 13 2 3 2 3 2 3 4 6 9 11 16 21 22 23 24 25 23 21 19 18 17 13 9 5 1 2 5 7 10 12 13 12 14 18
1 2 2 5 1 1 3 8 10 3 4 4 1 1 3 6 8 9 11 10 16 22 23 22 20 19 20 20 17 14 10 7 4 1 3 5 6 7 7 8 10 14 19 22
3 3 2 3 2 4 10 6 6 3 2 1 2 3 5 9 15 14 13 12 17 21 21 21 20 19 18 16 14 11 8 6 3 2 3 6 6 6 8 11 15 20 24 27
4 2 2 2 5 3 4 4 2 1 1 3 1 3 6 13 11 19 21 20 22 22 21 18 17 16 15 15 12 9 6 2 2 5 9 10 11 12 15 19 24 26 29 31
3 1 3 4 2 4 2 4 4 5 3 2 1 5 3 3 15 22 24 21 22 22 20 16 14 14 15 14 12 9 4 2 5 8 11 12 10 14 18 21 24 27 30 31
3 1 2 4 1 0 3 2 2 6 2 1 2 3 5 1 8 14 19 21 22 23 20 17 16 16 15 13 10 5 6 7 7 9 9 12 17 20 22 25 27 29 29 28
5 3 1 1 2 7 1 6 3 2 3 3 2 5 6 5 12 12 16 21 22 22 20 20 19 16 13 11 8 6 6 8 10 10 13 18 21 24 25 26 28 29 29 26
3 3 2 1 1 4 3 2 6 4 1 2 2 4 4 8 14 16 22 21 23 23 24 23 18 15 12 9 5 6 9 13 10 11 16 19 23 24 24 27 29 28 26 21
1 4 3 1 1 1 1 3 4 3 4 1 0 5 0 6 9 13 14 19 22 24 25 21 17 14 11 6 3 7 10 10 10 12 17 19 22 22 25 28 29 27 25 17
5 1 3 2 2 1 2 3 4 5 2 5 3 3 1 3 5 13 18 20 23 26 24 21 17 14 10 5 3 8 10 8 10 14 16 18 18 21 25 29 29 28 26 22
3 2 4 7 3 1 4 4 4 3 3 4 6 4 4 5 6 10 15 20 23 28 24 20 17 13 10 5 9 15 5 7 11 15 18 18 18 21 27 29 30 29 26 21
2 4 2 1 1 1 2 5 8 7 4 6 4 8 6 9 12 15 14 20 25 27 24 20 16 14 12 8 12 5 6 10 14 18 19 20 20 23 28 29 30 27 22 17
2 4 2 4 1 3 3 5 7 6 3 9 5 12 9 3 9 15 20 25 26 27 23 19 17 14 13 8 8 8 9 12 17 19 22 22 21 25 29 28 29 24 19 14
2 5 3 3 3 3 5 9 11 6 5 7 9 8 6 6 13 21 23 27 28 27 23 20 17 14 9 7 10 10 12 16 19 22 23 22 23 28 26 27 26 22 18 15
5 4 2 2 1 2 4 2 2 10 6 13 3 4 7 4 10 15 24 30 30 27 23 19 15 12 9 11 13 13 16 18 22 23 22 23 26 25 25 27 23 19 17 17
4 4 3 3 3 5 4 4 6 7 6 12 12 5 4 5 4 10 21 28 27 25 19 14 13 12 12 13 14 15 16 20 21 23 25 25 24 24 23 26 21 18 14 15
4 5 3 3 2 5 5 2 4 3 4 2 12 8 11 12 4 6 15 26 26 22 18 16 15 13 13 13 12 13 17 20 22 22 22 23 24 24 24 25 20 16 16 17
2 3 3 2 3 7 6 1 4 3 4 3 14 16 19 8 12 7 8 17 26 22 17 16 11 12 10 10 12 16 19 19 20 21 23 24 24 25 25 23 17 16 16 17
5 5 3 3 1 6 6 4 5 3 3 6 13 17 25 19 16 13 10 12 21 22 18 14 14 7 11 11 14 16 17 19 20 22 24 25 24 24 19 16 15 14 15 14
3 4 3 7 4 4 12 9 11 8 7 8 11 16 20 23 22 17 13 16 21 20 16 14 2 11 10 12 14 16 17 19 22 24 26 24 23 19 14 14 14 13 14 12
3 5 3 1 2 9 16 17 23 25 26 24 22 20 19 24 24 19 17 20 20 16 15 7 11 9 9 11 13 16 18 21 24 26 24 23 22 18 15 14 14 15 11 9
3 8 4 4 11 15 12 12 11 12 16 18 16 17 18 19 22 24 22 23 22 19 8 11 10 9 9 11 13 15 19 22 22 21 22 21 17 18 17 16 15 13 11 12
10 6 4 5 15 7 13 12 13 13 14 16 17 17 16 14 17 21 22 21 15 8 10 10 9 8 10 12 14 17 20 21 18 19 19 17 19 17 14 16 14 15 14 15

GFSCGP_850_spd_012.txt.gz
Wind_Speed
7 5 7 11 6 3 5 7 12 8 4 5 5 7 5 6 10 12 12 12 12 11 7 7 9 9 9 8 9 10 8 8 8 8 10 9 8 7 4 5 4 7 9 10
6 5 3 6 5 5 6 10 8 6 3 4 9 7 6 5 6 8 11 12 12 10 10 9 10 10 11 12 12 13 13 15 13 11 10 8 7 5 4 5 7 9 11 11
8 7 3 6 6 6 3 6 10 5 7 2 10 7 8 4 6 7 8 9 10 11 13 15 14 14 15 17 18 17 17 16 13 11 8 6 4 3 2 5 4 9 12 12
5 3 4 7 5 2 6 3 9 12 13 8 8 8 10 8 7 9 12 13 15 17 17 16 17 18 18 18 17 17 15 13 14 12 8 7 3 2 4 4 4 6 14 18
3 6 7 6 3 2 3 7 10 8 7 5 11 8 9 9 11 14 15 16 17 17 17 18 17 17 16 19 17 17 16 14 12 9 5 3 1 1 2 4 8 12 14 16
5 2 2 3 5 2 11 12 8 4 3 6 3 8 8 10 17 16 19 18 19 19 19 17 16 15 15 14 16 14 13 12 9 5 3 1 4 4 5 9 12 14 17 18
6 4 5 5 10 8 7 10 5 6 5 7 1 6 12 4 5 19 22 22 22 21 20 18 18 16 15 14 14 13 11 10 7 3 4 6 8 11 9 13 14 18 18 19
9 6 5 2 3 5 9 7 4 5 6 6 3 7 3 1 7 16 24 25 24 22 20 18 17 15 15 15 14 13 10 8 5 5 7 10 10 10 10 13 16 15 17 19
5 3 4 2 2 2 5 7 3 2 0 4 6 6 10 4 8 16 25 25 25 24 21 18 17 16 16 17 15 13 10 7 5 6 9 10 12 16 17 16 17 17 19 19
4 4 2 5 2 7 3 8 3 3 3 5 3 7 6 7 11 16 23 26 26 24 21 19 17 17 16 16 15 10 9 5 7 9 7 9 12 16 18 19 19 21 22 20
5 2 5 3 6 6 4 4 1 1 2 3 3 1 3 1 9 16 24 27 27 25 23 20 18 17 17 16 13 8 4 4 6 2 5 8 13 18 20 16 17 20 22 19
3 2 4 6 3 2 3 4 7 4 4 0 2 4 3 1 3 12 20 25 24 23 22 21 20 20 19 18 14 11 2 3 2 6 6 11 16 18 13 13 17 19 19 18
6 4 4 5 5 4 7 7 4 5 1 6 3 2 3 3 5 10 17 20 23 23 23 22 22 22 20 18 15 7 4 9 7 6 8 11 12 12 12 14 17 18 18 18
4 3 5 8 0 1 6 11 11 9 4 4 9 9 8 7 7 9 15 20 24 25 25 23 23 22 20 18 13 9 13 7 7 8 8 9 12 13 13 15 17 18 18 16
3 5 4 1 1 3 4 9 14 15 13 8 7 11 8 7 9 11 11 16 21 24 25 26 25 23 21 20 16 8 10 10 10 11 10 11 13 14 14 15 17 19 18 15
1 3 2 4 2 2 7 10 12 16 15 16 17 18 13 10 7 10 14 18 22 24 26 26 24 23 22 21 13 11 12 10 12 13 13 14 17 17 16 17 18 18 17 15
3 5 4 2 1 2 6 15 17 12 13 14 13 13 5 7 10 13 15 19 22 24 26 26 24 22 20 18 13 12 12 13 14 15 17 20 20 17 17 17 16 18 16 15
5 4 1 1 2 3 1 1 3 15 16 15 16 7 6 5 5 6 12 18 21 23 24 24 21 19 17 15 12 13 15 15 16 17 20 19 15 16 16 16 17 18 16 14
1 3 3 3 4 7 10 4 4 6 6 6 15 12 6 3 4 11 14 17 19 21 21 21 18 17 17 14 14 15 16 15 17 19 17 15 16 15 16 16 17 17 16 13
4 3 2 3 3 4 3 3 1 2 7 5 3 4 9 7 4 5 6 14 17 18 20 19 19 20 18 17 11 17 14 15 17 18 17 17 15 16 16 16 17 16 13 12
2 0 4 4 4 6 1 1 3 3 3 4 2 6 10 8 11 5 7 12 15 18 20 20 20 18 15 10 16 14 14 14 16 16 16 16 16 15 16 16 15 13 12 12
5 6 3 2 3 4 5 5 3 3 4 5 5 6 12 13 7 8 11 10 15 18 18 17 18 17 12 11 14 11 11 14 14 15 17 17 16 16 15 13 11 11 12 11
3 3 1 6 1 3 9 7 4 6 10 9 9 8 9 13 15 12 11 11 13 16 18 21 19 14 10 12 12 12 11 13 15 17 17 15 14 13 12 11 11 12 12 11
4 5 3 2 2 9 11 12 14 14 15 13 14 14 13 16 15 14 11 11 13 13 15 14 14 7 7 10 12 13 13 14 16 17 15 14 16 17 12 10 12 13 13 12
1 8 4 5 12 10 9 8 7 7 9 10 10 11 12 12 11 9 10 12 15 19 18 13 5 5 9 11 11 11 13 15 16 15 14 13 15 14 14 12 11 13 13 13
9 5 4 5 9 5 9 3 7 9 9 9 10 9 9 8 3 7 9 10 16 14 11 7 4 9 11 11 11 12 14 15 14 15 14 11 12 12 13 12 13 13 13 18

GFSCGP_850_spd_015.txt.gz
Wind_Speed
7 6 8 7 9 9 13 9 12 14 6 10 9 11 13 14 16 17 17 17 17 15 11 9 10 10 11 12 14 16 16 15 8 7 6 7 9 8 5 3 2 1 2 4
8 16 10 6 5 5 5 6 12 7 9 9 9 10 10 13 16 16 17 16 17 15 12 11 10 10 11 12 13 11 12 13 10 10 9 8 8 6 6 4 2 2 5 5
10 3 5 6 8 8 5 9 11 12 12 14 11 13 12 10 11 11 15 17 16 16 15 13 12 11 12 13 13 13 13 13 12 12 10 8 7 5 3 1 2 5 5 7
3 9 5 3 5 3 10 3 10 3 9 14 16 13 21 17 16 14 16 14 15 16 15 15 16 16 17 16 16 17 16 14 12 10 8 7 4 4 4 1 4 4 9 10
11 10 12 11 3 5 12 7 6 7 12 5 15 9 15 13 15 15 16 17 17 18 20 20 20 20 19 18 18 16 14 12 11 9 8 6 4 3 1 1 5 7 9 11
13 1 3 5 2 3 4 5 6 7 10 7 16 12 14 15 15 16 18 19 20 21 21 22 21 20 18 18 16 15 14 12 11 10 10 8 6 3 0 3 6 7 10 11
9 8 4 6 6 5 9 9 8 8 8 10 3 6 12 7 7 14 20 23 22 22 23 23 22 20 18 17 16 15 15 13 12 11 9 8 6 5 3 7 6 8 9 11
12 9 12 9 10 4 9 13 9 6 6 10 7 7 3 10 3 6 22 22 23 24 24 23 21 19 18 17 17 16 15 14 13 11 9 3 2 9 4 5 6 7 9 12
8 6 6 2 3 7 7 8 7 5 3 7 12 16 11 6 5 9 20 23 25 25 24 23 21 19 18 18 18 18 16 15 13 10 2 6 6 5 2 4 6 8 10 13
1 3 3 5 5 5 8 3 4 5 4 9 5 5 5 6 6 10 17 23 25 25 24 23 21 20 20 20 19 19 18 15 12 4 4 0 1 1 2 5 7 10 11 13
6 7 7 4 10 11 7 10 7 4 2 4 4 2 7 3 2 9 15 22 24 25 25 23 21 21 21 21 21 20 18 15 9 6 1 5 4 3 5 7 8 10 13 13
6 5 5 13 5 5 10 8 10 5 6 2 3 7 3 4 3 8 11 18 21 24 25 23 22 22 23 24 23 21 18 14 11 5 8 7 6 7 8 9 10 12 13 14
6 7 8 7 6 7 9 11 9 4 1 8 3 3 6 6 4 6 11 17 22 25 25 25 25 25 25 25 24 21 17 14 11 8 9 8 9 9 10 11 12 12 14 15
1 11 10 10 6 2 12 13 12 13 7 9 10 13 7 10 7 7 10 15 21 24 25 26 26 26 26 25 24 21 17 15 11 12 11 11 12 11 12 13 13 14 14 15
4 7 12 14 6 6 8 10 13 17 16 13 12 13 8 7 7 8 9 12 17 21 24 26 26 26 26 26 25 21 18 13 15 13 12 11 12 12 13 14 15 15 15 15
5 4 2 5 8 8 11 12 14 14 17 17 17 16 15 12 6 9 8 11 15 19 22 25 26 26 27 27 25 22 16 16 14 13 12 12 12 13 14 14 15 16 15 15
5 4 4 4 3 4 6 16 16 16 16 14 16 15 9 3 5 10 10 10 14 17 20 24 26 26 26 25 24 21 16 16 14 12 12 12 13 14 13 14 16 16 16 16
5 4 2 1 2 1 4 0 5 10 15 17 15 15 13 7 9 7 8 11 14 15 18 21 22 23 23 22 22 18 16 15 12 11 11 12 13 14 14 15 16 17 16 16
3 4 2 3 6 9 10 6 2 4 7 6 8 9 8 3 6 15 14 11 10 13 15 17 19 20 21 22 21 18 16 15 11 12 11 12 13 14 15 16 16 16 16 16
3 1 4 3 3 4 3 4 1 1 6 8 7 5 1 3 4 6 2 5 8 11 14 16 17 18 19 20 18 17 16 10 9 9 11 13 12 14 16 16 16 16 15 15
3 2 6 6 3 5 2 2 2 4 3 6 7 7 5 6 7 7 8 9 11 12 13 14 16 17 16 16 15 12 6 5 9 15 13 11 12 15 15 15 15 15 14 13
6 6 3 3 3 6 6 6 1 4 5 5 7 7 7 10 13 13 12 11 10 10 9 9 10 10 12 9 5 3 4 6 15 14 13 12 13 14 14 15 14 13 13 14
4 4 1 6 2 4 6 4 3 6 8 11 11 12 12 14 16 16 13 11 8 6 7 7 12 11 10 11 6 5 5 11 11 14 14 12 12 13 14 15 14 13 14 15
4 3 3 1 3 5 7 10 8 7 8 9 10 11 12 13 14 14 11 6 3 6 7 9 11 12 10 6 5 2 10 14 15 14 16 14 14 16 19 12 12 14 15 14
2 8 5 6 12 8 7 4 4 6 7 8 8 9 8 10 12 11 3 2 6 11 9 10 9 7 6 3 5 10 14 14 15 16 15 14 16 15 14 14 14 15 15 15
6 3 3 3 8 5 6 5 7 7 5 4 5 5 7 8 5 3 9 10 10 11 12 10 10 6 3 5 9 14 15 15 15 14 14 14 14 14 15 15 16 17 16 16

GFSCGP_850_spd_018.txt.gz
Wind_Speed
11 6 6 7 10 2 8 14 19 12 11 9 10 15 15 18 14 16 21 27 24 18 17 15 13 14 12 18 19 19 20 17 14 12 8 6 7 10 9 7 5 5 1 4
4 6 8 15 10 15 13 9 8 9 6 7 10 11 15 15 18 20 19 27 23 24 19 15 14 14 14 15 19 18 18 14 13 11 10 10 10 7 9 7 2 4 3 6
4 13 21 15 17 15 11 5 8 9 7 9 6 11 16 15 19 19 20 19 20 24 21 17 15 15 16 19 18 15 13 17 15 15 14 15 14 12 9 1 2 6 11 9
3 24 15 11 11 12 8 12 5 7 11 7 5 8 10 7 14 15 18 21 20 23 20 19 17 21 19 18 15 16 15 15 20 16 13 9 8 13 13 10 8 2 7 7
6 10 11 8 5 9 4 15 10 16 9 5 9 9 10 11 11 15 18 19 19 19 21 20 21 16 19 20 20 22 22 18 16 13 17 15 10 9 9 6 2 3 9 13
6 15 19 13 12 10 11 10 14 10 10 2 15 10 11 10 19 11 18 16 16 18 19 20 20 22 22 22 24 23 19 17 17 17 19 19 18 16 10 8 8 13 11 12
5 16 6 11 9 5 8 9 5 8 5 8 8 9 8 20 10 12 19 23 20 19 22 24 26 24 24 24 24 22 20 19 19 20 21 20 15 10 6 10 7 11 10 10
6 13 12 8 11 7 19 10 3 7 4 9 3 5 2 21 21 42 37 25 24 22 23 26 25 24 23 22 22 22 22 19 17 17 17 13 7 7 8 6 8 5 9 11
5 4 17 7 5 4 6 7 7 2 14 6 3 13 10 9 9 1 25 24 24 24 24 25 25 24 23 22 23 24 22 21 19 17 15 9 7 6 7 7 6 7 9 11
10 7 22 8 5 5 6 8 3 2 2 4 8 10 5 5 4 2 10 19 22 23 24 25 24 23 22 21 22 22 22 23 21 20 12 8 7 6 7 5 7 8 11 13
7 16 6 6 8 9 6 7 7 6 3 1 3 3 6 7 6 4 6 20 22 25 25 25 25 25 22 21 23 24 24 23 23 20 12 9 9 10 6 7 8 10 13 12
8 4 4 9 2 4 8 10 12 3 5 2 1 6 3 5 4 2 6 12 23 26 26 26 26 23 22 23 24 25 24 24 22 17 12 12 13 9 10 9 9 11 14 12
3 3 4 8 8 7 8 11 9 4 3 5 3 4 4 4 1 2 5 8 14 22 24 27 28 25 24 25 26 24 25 23 18 16 15 16 14 12 9 10 12 14 14 14
4 5 8 6 10 5 12 12 11 11 3 3 8 13 8 10 9 9 9 7 11 17 20 24 27 27 25 25 26 25 25 22 20 19 16 13 14 12 11 12 14 15 15 17
2 7 11 13 15 3 12 9 10 13 10 10 10 14 12 8 5 1 2 11 9 13 21 22 24 25 25 26 25 26 26 22 22 17 16 15 14 13 13 12 14 17 18 20
4 1 4 3 10 14 12 15 13 15 13 13 15 14 12 9 11 11 7 6 5 11 11 15 16 18 22 23 26 26 25 24 20 18 19 15 13 12 12 19 18 18 17 17
6 3 2 2 5 7 6 9 16 15 15 11 11 10 9 6 2 4 6 8 4 10 11 12 14 18 21 23 25 26 25 24 18 19 16 11 11 12 19 15 15 17 17 18
4 3 1 1 1 1 9 1 6 6 9 11 12 10 9 11 12 6 8 9 9 4 7 9 12 17 20 20 21 23 23 18 20 15 12 12 13 10 15 17 15 16 18 18
6 4 1 2 4 7 11 4 1 1 4 12 10 11 12 13 9 10 9 4 5 5 6 10 12 15 16 18 19 21 18 14 15 14 9 9 9 20 16 13 15 17 19 19
3 4 1 3 2 4 0 5 3 1 3 10 11 9 9 6 3 5 11 8 6 10 12 11 12 12 13 15 16 14 16 16 10 8 7 8 14 16 14 15 16 18 19 18
3 1 4 3 2 5 2 4 1 2 3 7 7 10 9 4 7 5 9 11 12 12 11 9 4 5 9 13 15 14 14 12 8 9 6 9 11 12 16 17 20 19 15 16
5 5 3 2 2 6 5 5 2 4 3 8 7 8 9 7 11 13 14 12 8 11 7 1 7 9 12 10 14 15 12 5 3 9 7 12 15 16 15 19 17 16 14 15
2 4 2 7 4 5 7 3 3 2 4 6 7 8 8 9 11 12 13 11 5 6 7 5 8 11 11 12 12 6 3 6 4 8 15 19 18 17 16 17 20 18 10 14
4 4 1 2 4 7 9 5 5 2 3 5 8 9 7 8 10 12 11 5 5 9 9 9 7 7 6 5 5 7 5 4 7 12 17 18 16 16 17 18 16 17 15 16
1 9 6 6 9 10 2 9 9 6 6 5 6 7 8 8 8 8 8 11 10 11 10 5 1 4 5 3 2 1 2 8 14 16 16 15 16 16 16 15 16 21 22 18
8 4 3 3 8 4 9 9 8 7 8 8 7 9 13 12 10 7 11 7 4 2 0 0 3 2 0 2 3 7 12 14 16 15 15 16 16 17 17 15 19 22 25 24

GFSCGP_850_spd_021.txt.gz
Wind_Speed
11 2 4 5 4 7 7 6 6 7 9 7 8 9 16 24 29 32 27 14 24 26 24 22 19 19 24 25 25 22 21 21 20 20 25 19 12 12 11 7 5 5 4 5
2 3 1 5 12 9 7 11 11 6 6 4 5 7 10 25 21 35 28 25 23 21 22 24 22 18 27 29 21 22 20 15 18 16 19 13 16 15 9 8 9 9 7 6
3 5 7 7 13 12 1 2 5 5 3 1 5 2 4 7 16 28 36 25 32 31 32 31 29 22 24 27 24 18 20 17 19 20 18 20 18 16 14 11 10 8 7 8
3 8 2 8 14 9 5 2 3 2 2 2 5 2 4 4 4 8 28 34 35 37 34 31 27 27 20 22 21 15 15 22 24 22 22 25 24 22 18 14 12 10 10 13
7 5 5 7 8 4 5 5 1 3 1 4 4 2 5 3 4 3 6 24 32 44 37 32 27 25 23 19 16 9 25 21 22 29 25 23 22 21 22 22 16 9 11 15
7 13 3 4 6 2 6 3 3 4 3 1 4 5 4 7 20 5 7 10 13 40 34 29 25 23 23 20 18 21 24 29 30 25 26 25 27 28 24 19 13 11 15 18
6 8 2 5 6 6 1 4 3 4 5 3 15 0 9 16 12 10 15 23 13 29 31 28 29 26 24 24 24 28 31 28 28 26 27 26 24 21 18 14 14 17 16 13
5 5 4 5 5 5 3 6 4 5 1 5 7 5 5 15 25 26 29 25 17 28 29 28 27 28 29 28 29 27 27 27 28 28 27 24 21 18 16 15 15 14 11 11
4 1 6 9 8 2 4 2 6 6 3 2 5 6 5 9 5 11 17 22 24 27 26 26 28 28 27 28 27 24 25 26 27 26 25 23 21 17 14 13 11 10 10 11
5 3 2 9 20 15 3 3 4 3 5 4 4 3 3 5 7 10 11 18 29 27 27 30 31 29 28 28 25 25 25 26 24 23 18 18 14 12 12 10 9 10 10 11
5 5 5 5 8 9 1 2 3 3 5 4 1 4 3 5 5 9 17 31 35 34 34 34 32 30 30 28 24 26 25 25 25 23 18 16 12 12 10 9 10 11 13 13
12 6 5 13 11 8 4 6 5 5 4 2 4 5 3 7 5 9 12 30 37 38 38 36 35 34 33 31 28 27 28 27 27 25 19 16 12 12 11 10 12 13 15 18
3 0 3 8 5 5 4 5 4 4 3 5 5 5 1 6 5 4 7 8 33 37 37 37 37 37 36 33 30 30 31 29 27 26 22 17 15 13 12 13 11 14 16 20
5 2 6 6 7 3 3 4 5 5 4 3 5 5 11 7 8 10 9 6 16 34 36 37 39 40 39 36 32 31 31 32 28 26 20 17 14 14 17 14 13 15 19 20
5 4 1 3 5 5 2 4 6 5 6 7 8 7 11 1 4 7 18 13 7 8 20 32 39 40 37 32 30 31 31 31 30 25 19 16 13 20 17 16 17 19 19 20
1 1 2 2 6 7 4 7 7 7 5 2 3 6 5 12 14 13 12 8 7 4 6 9 24 36 35 32 31 31 31 31 33 28 22 14 18 19 16 16 11 19 18 19
5 5 3 3 4 6 6 7 6 6 5 3 5 6 5 8 12 14 13 15 6 3 0 4 2 17 27 29 29 30 29 30 30 25 20 22 19 17 16 13 13 19 19 17
5 4 3 3 3 2 8 5 5 5 3 6 8 10 11 11 24 23 12 15 15 8 4 3 3 4 10 15 21 23 28 28 25 19 23 20 16 14 10 6 11 18 18 22
3 4 2 4 3 5 8 4 3 3 5 6 8 7 12 12 20 18 17 15 13 10 8 6 6 10 12 16 16 20 24 23 20 26 22 16 12 8 3 8 16 18 21 20
6 5 4 2 4 6 6 2 4 4 2 7 13 9 9 10 5 3 9 9 7 9 11 6 5 6 8 12 16 25 27 26 27 22 16 11 5 5 7 11 16 23 24 23
3 3 5 2 2 7 6 6 2 6 6 6 9 11 12 4 5 6 9 5 5 4 5 5 6 5 12 19 24 26 26 24 16 16 13 4 5 5 9 18 22 22 22 20
6 6 3 3 2 6 7 4 6 6 10 9 9 9 8 6 8 11 11 7 3 4 3 3 3 8 12 13 18 19 16 10 5 2 9 12 7 10 19 21 19 19 21 21
1 6 5 6 5 8 5 12 12 10 9 7 8 10 6 7 11 12 11 9 8 5 3 2 1 4 5 4 4 6 10 12 19 20 8 4 13 18 17 17 17 18 14 14
2 5 3 5 3 5 11 6 17 16 15 10 10 8 5 9 6 10 12 11 8 6 4 3 4 5 6 8 8 7 10 6 2 3 8 15 16 15 14 16 15 16 17 21
5 6 5 2 3 18 19 18 16 16 13 11 9 7 10 7 11 8 9 8 7 6 6 7 9 9 6 4 4 3 2 5 9 12 14 15 15 15 16 16 17 16 17 21
5 6 4 4 4 17 10 14 11 13 13 12 9 9 10 8 9 6 8 8 7 7 9 9 9 7 6 5 6 9 11 14 15 16 16 16 17 17 18 19 19 16 19 24

GFSCGP_850_spd_024.txt.gz
Wind_Speed
2 4 3 6 6 5 4 9 6 5 10 5 8 7 10 19 19 21 19 16 30 39 38 30 30 31 29 30 33 31 30 31 30 31 30 28 26 20 13 11 11 11 8 5
4 4 6 4 2 4 2 10 8 11 8 5 8 6 9 12 20 29 26 22 27 34 37 37 34 36 34 30 30 30 30 31 30 26 25 27 26 20 13 13 11 9 9 10
5 6 5 1 8 5 6 6 4 3 4 7 6 4 4 7 8 17 24 33 33 38 38 35 36 36 36 34 31 30 29 26 26 24 26 27 21 19 19 17 14 14 15 12
4 2 2 2 3 4 5 9 3 4 4 1 2 2 7 10 12 11 25 32 33 41 40 36 33 35 38 38 30 25 25 27 27 26 29 31 28 28 25 19 19 19 16 12
8 2 3 4 6 3 7 2 3 2 4 2 5 3 6 5 11 14 23 32 42 42 42 41 39 36 32 31 29 21 25 26 26 29 30 26 26 23 23 24 21 17 14 13
7 2 5 5 3 4 5 4 7 4 3 3 5 4 5 5 11 16 20 34 40 40 36 40 35 28 27 24 23 19 22 28 31 30 29 28 27 28 29 26 21 16 15 17
3 1 3 3 4 7 4 5 3 4 4 5 3 3 8 8 10 8 14 20 36 38 36 40 34 30 28 27 22 17 22 29 29 28 27 27 30 31 27 24 20 19 19 17
4 2 3 2 3 1 6 7 5 3 3 3 3 6 6 5 16 21 18 15 23 33 39 39 35 32 31 27 27 24 25 26 25 28 28 26 25 23 22 21 19 17 14 13
4 4 5 3 3 5 7 2 4 7 3 2 4 6 7 5 4 6 8 13 20 30 38 38 35 35 28 27 29 26 25 28 30 27 25 24 24 23 21 19 17 13 11 12
7 1 2 6 3 6 7 3 2 3 4 3 4 5 4 2 1 3 5 15 23 30 34 36 36 30 28 28 27 27 27 30 29 26 23 22 22 21 18 16 14 13 13 11
5 4 4 4 3 6 1 2 1 4 4 4 1 5 5 6 6 8 13 22 27 36 38 37 35 33 30 30 28 28 30 30 31 30 28 26 24 22 18 18 16 12 11 16
8 6 4 10 15 4 4 7 6 5 4 0 4 5 4 8 7 11 17 21 28 37 38 37 35 33 32 32 31 32 32 32 31 31 30 26 24 23 20 18 15 12 13 13
7 1 2 6 5 3 7 6 4 5 4 6 5 5 4 5 7 12 15 24 32 40 41 40 39 37 38 38 37 37 36 34 31 31 30 27 25 23 20 17 14 14 13 13
13 4 7 7 7 3 2 3 4 5 3 4 6 5 6 9 9 12 12 17 31 39 40 40 40 42 43 43 42 40 37 32 31 32 32 29 25 21 17 15 16 15 13 12
6 5 4 5 3 2 1 2 2 5 5 6 8 8 10 6 8 18 15 7 9 26 31 36 39 42 43 43 42 40 33 32 32 34 32 29 23 17 14 18 19 16 11 12
2 4 1 3 2 2 2 5 5 5 3 5 5 6 4 7 11 13 6 9 13 11 7 12 32 37 39 40 40 36 33 34 34 35 33 26 20 18 22 23 19 10 8 6
4 6 4 4 4 4 5 7 6 5 3 4 5 4 5 6 9 10 12 10 9 12 12 9 4 8 23 33 35 35 34 35 35 33 28 26 23 25 28 24 18 9 9 16
6 5 3 3 3 2 7 5 4 8 5 6 8 5 11 15 20 20 16 19 16 13 10 8 5 2 5 13 22 28 32 34 34 32 31 27 28 30 26 21 11 8 11 14
2 5 2 4 3 4 5 3 5 5 1 3 6 6 14 19 20 14 15 14 13 9 6 3 3 5 6 12 20 28 31 32 32 31 27 25 22 18 6 4 12 13 9 20
6 5 4 2 4 6 7 4 3 6 2 5 9 5 7 7 3 3 7 5 4 4 3 3 5 7 10 13 20 26 28 31 30 26 23 17 12 4 7 18 16 10 18 20
3 3 5 2 2 7 8 7 3 5 6 9 15 14 7 4 5 6 10 7 5 4 4 3 3 7 6 9 16 22 25 26 21 17 11 11 13 17 23 6 13 17 19 20
7 6 3 3 2 6 8 4 7 7 12 17 13 12 16 16 14 14 11 9 7 6 7 6 4 7 7 8 11 14 16 14 13 19 20 18 25 17 6 14 17 17 17 19
1 6 6 8 6 6 9 6 21 20 18 14 18 16 14 13 14 14 14 12 10 9 9 9 9 10 9 6 3 1 3 7 10 15 13 7 6 11 15 16 16 16 16 18
2 6 4 4 2 2 9 16 18 21 20 20 17 16 10 14 15 14 12 11 10 10 10 10 9 9 7 4 2 2 3 4 5 5 7 11 13 15 15 16 16 18 18 19
6 8 6 3 2 18 14 20 23 24 22 20 18 15 14 14 16 14 14 13 11 10 9 7 8 9 9 8 8 8 7 7 9 11 13 15 16 17 18 18 19 20 21 21
7 7 5 5 17 9 8 17 20 22 18 16 14 17 15 13 16 13 14 12 10 10 11 10 11 10 10 8 8 9 11 12 13 15 16 17 18 19 21 23 25 23 24 25

GFSCGP_850_spd_027.txt.gz
Wind_Speed
3 5 3 3 4 1 3 2 6 4 6 7 10 7 10 19 19 13 20 27 30 33 28 28 27 25 27 28 29 30 29 29 29 30 31 28 26 23 16 9 9 10 10 10
4 2 5 4 2 4 8 5 9 8 3 10 7 5 1 6 16 23 28 28 35 35 35 33 31 30 28 28 33 32 31 30 31 31 31 28 26 22 16 14 12 12 13 12
5 4 4 3 3 3 4 4 6 5 2 5 6 4 3 3 5 9 22 27 32 36 39 39 39 37 32 31 32 34 32 32 33 32 29 27 27 24 23 18 17 17 15 12
5 2 1 3 2 4 5 3 7 4 3 2 3 3 4 6 10 6 20 27 31 40 41 40 43 42 39 36 35 36 36 33 33 33 32 32 33 31 28 23 21 18 15 13
7 6 3 4 4 4 8 5 1 1 3 5 5 4 7 5 7 14 22 30 33 35 42 45 45 44 41 38 36 36 33 33 35 34 35 33 34 28 26 24 22 18 16 16
4 2 3 5 3 5 4 2 7 4 3 2 2 4 5 5 17 19 29 27 39 36 37 42 45 43 42 39 39 32 27 28 34 33 33 31 28 28 26 25 23 21 20 19
2 2 3 1 3 3 7 5 3 4 4 4 2 1 8 8 11 10 15 30 40 41 35 38 40 41 40 37 32 29 29 28 28 31 32 27 27 27 26 27 27 25 22 19
5 5 5 2 4 3 2 4 4 3 2 3 3 4 6 4 12 16 20 27 29 37 38 41 41 40 36 32 30 27 27 24 29 32 28 27 28 29 31 30 28 24 21 16
4 4 1 3 2 2 2 1 3 6 3 3 3 6 10 6 2 7 9 13 19 27 32 40 38 40 36 31 27 27 27 25 25 27 29 28 26 29 33 31 28 25 21 15
7 2 2 3 1 2 2 6 1 2 3 3 4 4 5 7 3 5 5 13 15 19 26 34 37 38 35 28 28 24 26 26 28 25 27 28 30 31 31 30 29 26 22 22
6 5 4 1 4 8 1 2 2 4 5 4 1 6 6 6 5 6 4 12 17 22 26 28 32 37 35 31 26 24 29 32 30 28 29 32 30 30 30 28 26 23 19 12
8 6 4 10 4 4 2 2 5 4 4 1 3 6 5 8 6 8 14 8 12 23 25 26 33 38 37 35 30 30 32 32 31 31 32 29 28 28 29 29 26 22 17 14
8 2 2 7 5 3 3 5 4 4 3 6 5 6 3 6 7 12 15 16 14 18 27 31 36 37 38 37 36 35 36 36 36 32 29 28 29 28 28 27 24 22 19 15
16 4 7 7 8 4 2 3 4 5 3 3 6 6 7 8 8 11 17 19 16 19 27 34 36 38 38 38 40 40 39 39 34 30 28 30 30 29 29 26 24 22 19 16
4 5 4 3 3 4 6 5 6 6 5 6 8 8 9 5 7 14 14 13 13 18 24 30 36 36 36 39 42 42 40 37 34 31 31 32 31 31 29 25 22 19 19 16
2 3 4 4 1 2 4 7 6 5 4 7 5 6 4 2 0 6 8 7 8 4 9 16 23 30 35 38 40 41 38 36 34 32 33 33 34 30 26 22 22 21 18 13
5 7 4 5 1 1 6 8 8 7 6 6 6 8 3 2 6 10 16 14 13 11 9 6 1 7 13 20 27 33 36 35 35 36 35 35 32 27 25 25 25 22 16 11
7 6 3 3 3 1 7 2 5 6 3 4 4 5 5 8 16 18 16 18 14 11 9 7 5 2 0 4 12 20 26 31 35 35 34 32 30 27 26 26 20 10 8 15
4 5 3 5 4 4 4 4 7 6 3 2 7 7 12 19 19 13 11 10 10 9 7 5 5 5 6 9 13 18 23 26 28 27 27 27 26 26 22 16 10 13 17 29
6 6 4 3 4 8 8 4 6 6 2 5 7 8 11 4 3 3 6 6 5 2 1 2 5 6 8 8 9 13 16 20 20 21 21 22 22 19 11 9 14 26 28 13
3 3 5 2 3 7 7 6 9 5 7 16 18 18 13 4 5 13 12 8 5 3 2 1 1 3 8 8 7 7 9 12 17 20 21 19 14 17 24 25 25 13 12 20
7 7 4 3 3 7 9 6 8 7 12 23 18 16 14 14 15 17 14 11 9 8 8 6 6 8 7 5 2 6 7 8 5 8 12 16 20 20 12 9 12 17 20 22
2 7 6 8 6 4 8 2 8 24 28 24 22 20 18 22 23 20 16 13 11 11 10 10 9 10 12 11 8 8 7 3 8 7 7 5 6 9 13 16 18 19 20 22
3 5 4 4 2 4 6 10 22 22 26 22 19 23 24 25 23 20 18 17 15 13 11 9 9 9 10 8 6 6 7 5 4 4 6 9 11 13 15 17 19 21 22 23
5 9 6 1 2 5 7 16 22 22 21 23 23 22 22 22 22 20 20 16 14 12 11 9 8 9 11 10 9 7 5 4 5 7 9 10 12 14 16 18 20 22 24 26
7 7 5 6 17 8 12 19 21 24 23 21 22 21 19 18 21 20 19 16 14 13 13 12 13 12 10 5 3 3 5 8 10 13 15 17 19 20 23 25 29 27 29 29

GFSCGP_850_spd_030.txt.gz
Wind_Speed
3 4 4 7 5 3 2 1 3 4 5 6 9 5 9 19 18 18 25 27 28 29 25 28 29 30 30 29 28 28 27 26 26 25 25 26 26 22 20 16 10 12 13 13
5 3 7 4 4 5 3 2 6 4 4 6 2 4 4 11 14 26 29 30 30 30 27 30 32 32 32 31 32 32 31 30 30 29 28 27 25 23 20 17 14 13 15 16
4 4 2 4 4 1 4 3 5 5 3 4 3 4 3 4 8 17 25 30 30 30 30 30 34 35 34 35 35 36 36 33 33 32 30 29 29 25 24 22 19 19 18 15
4 5 4 1 2 3 3 3 4 4 3 3 1 3 4 5 9 6 20 26 32 34 32 33 34 36 35 35 33 33 32 32 31 30 31 32 32 31 30 25 22 20 18 17
6 3 4 3 4 4 8 4 1 1 4 3 3 4 5 2 8 15 20 31 34 35 38 38 38 38 36 34 32 32 33 30 32 31 31 32 33 32 28 24 24 23 20 18
5 3 3 5 4 5 1 2 5 4 3 2 2 3 5 5 13 19 24 29 42 38 36 39 40 40 39 37 35 35 23 34 35 33 33 36 36 33 27 28 26 24 21 20
1 3 3 1 1 3 3 5 3 4 4 4 1 1 8 8 6 7 12 25 38 40 38 36 39 42 43 41 40 39 36 35 37 37 30 34 34 31 26 26 26 26 24 24
6 5 6 3 5 7 2 6 5 2 1 3 2 4 6 4 10 15 17 21 20 33 42 39 41 41 41 41 39 40 34 36 35 33 30 32 34 28 27 27 26 27 27 27
5 5 2 1 1 1 3 2 5 6 3 2 4 7 9 3 5 8 9 8 12 20 26 34 41 39 39 39 36 35 33 25 23 24 21 24 31 25 26 29 30 31 29 27
7 2 2 1 1 1 2 7 3 3 2 3 4 4 5 8 6 5 6 9 4 10 20 25 35 37 36 35 35 31 24 25 21 21 23 27 25 26 27 28 31 33 31 29
5 4 4 2 6 8 2 1 5 5 4 4 1 5 7 6 5 4 8 9 7 9 12 17 21 24 31 30 31 30 27 23 21 26 25 24 25 28 28 29 31 31 30 27
7 6 4 9 3 2 4 7 6 4 4 1 3 6 5 8 7 7 7 7 7 6 9 15 16 19 22 25 30 33 29 26 23 25 27 27 26 28 28 26 29 30 28 24
8 1 1 7 4 2 4 5 4 5 3 6 5 6 3 6 8 12 10 8 9 8 8 14 17 20 24 29 35 32 28 25 24 26 28 28 28 29 27 27 29 30 27 22
14 4 8 9 8 5 4 6 5 5 4 4 6 7 8 9 7 12 14 13 12 13 12 15 18 21 24 29 28 25 26 27 27 26 29 30 29 28 25 26 29 28 24 20
7 8 5 5 4 5 5 5 9 7 5 6 7 7 9 8 6 10 13 14 10 12 13 15 17 19 22 24 27 26 28 31 32 31 29 31 31 28 29 29 27 25 21 20
1 5 5 4 1 1 4 6 6 5 4 5 6 7 8 5 4 5 2 1 5 3 1 4 7 10 15 19 21 25 28 31 33 30 31 33 33 32 30 28 26 25 24 24
8 7 4 5 2 4 6 7 8 5 5 7 7 10 5 1 2 3 8 13 16 16 14 11 8 5 2 2 5 10 16 22 26 29 32 35 35 31 29 27 27 26 25 23
7 7 3 3 3 2 7 1 4 9 7 5 5 3 6 10 9 10 10 14 16 14 14 12 9 6 4 4 5 8 12 15 18 23 28 29 27 24 24 22 19 20 20 18
2 6 3 5 4 5 4 5 8 8 9 7 6 6 14 20 18 11 9 11 13 12 11 10 9 7 6 6 7 9 10 11 11 15 18 18 18 18 19 20 19 14 9 16
6 7 4 3 5 8 8 5 7 4 4 8 12 9 12 12 4 4 9 10 11 9 8 7 6 6 6 8 9 9 6 4 5 5 7 10 16 19 17 18 18 20 26 26
4 4 5 2 3 7 7 4 11 5 8 18 26 26 20 5 5 16 13 10 8 7 7 6 7 6 6 6 6 6 6 5 5 5 7 9 10 13 16 20 23 23 17 14
7 7 4 3 3 7 11 6 9 8 5 28 28 28 17 11 14 17 13 9 8 7 8 8 9 10 11 11 8 12 13 12 7 2 4 6 7 9 10 8 10 13 17 20
3 7 6 9 7 5 14 5 15 10 15 26 28 24 20 19 20 18 16 13 11 11 11 11 11 13 14 13 11 10 9 4 2 3 4 5 6 8 10 12 15 17 19 22
3 4 4 4 5 6 9 15 11 15 23 27 24 24 22 21 22 21 18 16 14 13 12 11 11 13 13 9 7 8 7 5 4 3 4 6 8 11 13 15 17 20 21 23
4 9 7 3 3 1 11 16 15 18 19 23 21 22 24 23 24 21 20 18 16 14 13 10 10 11 10 8 6 6 4 3 4 7 9 11 14 16 18 19 21 23 24 25
7 7 6 7 16 13 11 21 21 21 24 23 24 23 20 21 23 22 20 18 16 15 13 12 11 9 9 6 4 2 3 6 9 11 13 15 18 21 23 27 30 29 30 31

GFSCGP_850_spd_033.txt.gz
Wind_Speed
1 2 6 7 5 5 3 2 2 3 1 4 7 7 14 20 16 15 16 17 19 23 21 22 26 32 33 31 28 25 24 24 25 27 27 26 24 26 25 20 17 14 14 14
1 5 5 4 3 5 2 2 2 2 3 5 4 5 7 18 23 21 18 19 23 22 22 23 26 31 34 33 33 31 29 26 27 29 28 27 26 25 22 20 20 17 16 16
4 3 5 4 4 5 5 2 2 4 1 2 1 6 5 9 16 17 19 21 23 24 25 26 27 30 32 35 35 33 29 29 29 29 28 29 26 27 25 26 23 21 18 19
4 2 4 4 5 4 2 4 1 1 2 1 4 2 2 5 13 14 22 23 30 30 31 29 30 31 33 33 33 32 31 31 32 32 32 32 32 30 30 26 25 23 23 22
4 4 4 4 5 4 4 2 2 1 2 2 2 1 1 3 11 19 24 27 32 34 34 34 36 35 34 33 32 31 32 33 33 33 34 32 33 33 30 28 27 26 25 24
4 2 4 5 3 3 3 2 4 3 2 2 2 2 3 4 6 8 27 28 35 37 36 36 35 34 37 36 35 34 35 34 35 36 33 35 34 33 33 31 29 28 28 26
0 3 2 3 3 2 3 2 2 1 1 2 3 2 7 6 9 9 12 23 35 42 41 38 37 36 37 37 38 36 34 26 21 25 34 35 35 34 35 32 28 30 30 29
6 3 6 4 4 5 4 5 4 3 3 2 2 4 3 4 7 13 16 19 17 27 38 45 44 40 39 39 37 35 34 34 20 24 34 38 36 36 34 33 28 29 29 29
5 4 1 1 3 3 4 3 2 6 1 2 1 4 8 2 3 3 0 5 11 15 23 29 37 43 40 37 36 36 36 36 30 24 23 32 33 34 29 30 30 29 31 30
7 2 1 2 3 4 2 7 2 1 2 2 2 3 4 4 3 5 6 5 5 5 10 17 22 31 36 35 33 31 32 30 30 25 22 24 27 24 27 31 29 30 30 32
5 3 1 1 4 7 3 3 3 3 2 3 2 4 6 6 3 4 6 6 4 4 5 9 14 16 20 24 25 25 25 26 25 25 22 19 20 22 27 28 30 30 32 34
6 4 4 7 0 2 3 5 5 3 4 0 0 5 4 8 6 7 11 6 3 3 4 5 7 9 11 15 18 21 23 23 22 17 18 20 21 24 25 24 25 27 27 33
7 2 2 2 2 2 3 4 3 5 3 7 4 5 1 5 6 7 13 10 6 3 3 7 9 9 10 13 18 21 20 21 18 19 18 19 21 25 27 24 24 22 26 29
19 4 6 10 8 4 4 6 7 5 3 4 6 9 8 9 7 12 12 12 11 9 7 7 10 10 11 13 14 15 16 19 21 20 21 22 24 27 25 20 21 24 27 29
5 7 6 5 5 5 6 6 11 9 6 7 8 9 9 7 6 8 11 11 8 5 4 4 4 4 4 5 7 10 15 16 17 18 19 20 20 19 19 22 23 24 25 26
2 4 5 4 3 5 4 7 10 9 3 8 7 8 10 6 7 4 3 2 4 5 6 6 5 4 3 1 2 4 7 9 10 12 14 16 18 19 21 22 22 21 21 23
4 7 4 4 1 3 5 7 11 5 5 6 8 12 4 5 5 5 8 12 15 17 19 18 16 13 11 8 6 4 3 4 7 9 12 15 18 19 20 21 22 21 23 25
6 4 2 3 1 6 4 1 2 11 6 9 7 6 6 3 7 9 12 18 18 18 19 19 17 14 11 8 6 5 5 6 7 7 9 12 13 13 14 16 17 19 22 24
3 5 3 5 5 4 3 5 7 7 14 10 13 5 6 15 12 6 12 16 18 17 17 16 13 11 10 9 9 8 8 8 7 5 4 4 5 6 9 10 13 17 18 21
4 3 3 3 5 10 5 4 8 5 12 8 13 10 18 16 7 6 15 16 17 16 15 14 14 12 10 10 8 6 8 7 7 8 7 5 3 2 5 7 10 14 15 18
3 2 6 3 4 6 6 5 13 6 13 12 21 21 25 9 3 23 20 18 16 15 15 14 14 11 10 9 7 8 10 12 13 12 9 6 4 2 4 9 13 15 17 12
7 7 4 3 2 8 11 8 10 7 3 12 21 28 23 13 19 27 22 19 17 16 16 15 15 15 14 13 9 13 13 13 10 6 2 1 3 4 4 4 6 9 13 16
4 6 6 9 7 3 25 7 22 7 8 10 25 30 29 25 27 26 24 21 19 18 18 18 17 18 16 13 11 10 11 8 5 4 4 2 3 4 6 8 10 12 15 18
3 4 3 3 5 8 15 24 12 17 13 11 25 35 28 27 29 28 26 24 23 21 20 19 17 17 17 13 11 10 10 8 5 4 3 3 5 7 10 12 14 15 18 21
4 8 6 3 5 3 17 21 22 18 16 16 23 32 29 28 30 28 28 26 25 23 21 19 17 17 16 13 11 10 8 5 2 3 5 7 9 11 13 15 17 18 19 20
7 7 5 6 17 11 14 30 24 20 19 21 27 28 27 27 30 29 28 26 25 24 21 19 17 16 15 12 10 8 5 3 3 5 8 10 13 15 17 18 19 20 21 21

GFSCGP_850_spd_036.txt.gz
Wind_Speed
9 9 11 10 8 2 3 3 4 2 4 7 10 10 10 16 16 16 16 16 17 17 18 20 22 25 25 24 23 23 22 20 21 18 18 17 20 19 22 21 21 20 17 16
6 11 7 4 8 7 6 5 5 2 1 6 4 7 7 15 18 17 17 19 19 18 19 21 24 27 30 28 26 24 24 22 21 18 18 19 19 19 20 23 23 22 18 18
11 4 5 10 11 10 8 8 3 6 2 5 5 6 8 11 14 15 17 16 18 20 21 22 25 28 29 30 29 28 25 22 21 21 19 19 18 24 25 26 25 25 22 22
10 5 8 10 10 10 9 5 3 4 6 3 3 3 7 9 13 16 20 21 22 22 22 23 24 27 29 30 29 28 26 25 24 24 22 24 23 23 27 30 25 28 26 25
9 11 11 10 10 11 5 4 1 3 4 4 5 7 8 5 10 16 23 25 25 26 26 27 28 27 26 27 29 29 28 27 27 26 26 27 28 24 25 26 28 28 28 28
5 2 6 6 5 9 7 5 2 3 3 6 4 5 3 8 6 5 14 25 27 28 28 28 27 25 26 27 28 30 30 26 23 23 29 29 31 30 32 27 28 31 30 30
12 12 4 5 9 7 9 8 6 7 6 7 3 6 10 3 4 7 9 11 25 30 28 28 27 29 29 30 29 30 28 27 27 28 24 34 36 32 34 34 34 33 34 31
13 13 13 10 11 8 13 11 5 4 5 3 3 5 1 2 6 10 12 14 12 18 28 31 31 30 29 29 29 31 34 34 32 26 31 32 33 33 35 30 33 34 33 29
14 14 3 5 6 11 7 9 2 1 2 4 5 6 11 3 3 3 4 4 10 14 18 24 28 30 27 27 30 30 31 33 34 23 14 32 32 27 27 31 31 33 31 32
8 11 5 6 6 3 5 10 6 4 6 7 5 6 4 4 2 0 2 2 2 4 6 11 15 19 25 26 25 24 25 27 30 34 25 25 22 21 22 27 30 31 33 33
12 9 6 6 11 13 6 7 3 2 3 5 5 5 3 6 3 5 2 4 5 3 1 4 7 11 15 18 20 21 22 22 24 26 34 29 23 20 22 26 25 25 29 31
18 11 10 12 3 5 9 10 13 7 7 3 3 7 6 8 5 8 6 5 5 5 3 2 5 8 10 13 15 16 17 20 21 22 21 19 19 19 23 23 23 27 29 29
14 11 11 13 6 4 8 10 12 5 2 10 6 5 5 2 6 7 9 7 7 6 3 4 6 8 9 11 12 13 14 15 16 16 18 19 19 24 26 26 27 27 26 24
22 16 19 14 13 9 9 13 14 15 9 11 12 12 11 11 10 10 6 6 7 7 6 5 7 7 8 9 9 10 11 14 17 17 17 19 22 24 24 23 22 22 22 21
11 19 18 18 17 16 18 17 15 18 18 15 13 15 12 10 11 8 4 4 4 4 6 7 8 9 7 8 9 9 9 9 8 8 8 11 11 12 12 13 15 17 17 20
8 13 16 17 16 15 17 18 18 19 17 14 18 15 12 15 8 9 6 3 4 6 7 8 8 9 10 10 10 8 6 5 4 4 5 6 6 8 10 11 12 13 14 15
7 8 7 15 7 6 9 16 17 17 15 16 16 16 14 9 12 11 7 5 9 12 13 13 13 13 13 13 11 10 9 7 5 4 2 3 4 5 6 8 10 12 14 17
6 9 6 6 5 8 11 3 17 18 18 18 16 15 12 12 4 5 5 10 12 15 17 17 17 18 17 16 13 11 9 8 6 6 5 4 2 1 3 5 7 9 11 14
11 7 4 5 10 11 4 6 10 12 17 17 19 17 10 8 10 7 9 11 14 15 16 17 17 17 17 15 13 11 10 10 9 9 8 7 7 6 5 4 2 1 2 4
6 6 7 4 8 9 10 13 15 6 16 13 12 15 12 16 9 7 17 16 16 15 16 17 17 17 15 15 13 12 13 12 12 12 12 12 12 11 9 6 4 1 5 10
5 4 11 10 6 6 4 8 15 10 15 3 10 13 19 15 7 23 24 19 16 16 18 17 17 16 15 14 13 13 13 13 13 12 12 10 8 5 2 2 5 6 8 7
9 9 5 7 6 10 14 11 11 14 6 7 10 14 21 14 18 26 25 23 21 20 19 17 17 16 16 15 12 14 13 12 9 6 6 5 3 3 4 3 3 5 6 8
6 5 3 9 7 6 27 19 25 11 10 8 11 14 22 21 25 27 26 24 22 20 19 17 18 18 16 14 13 12 11 8 8 8 9 7 5 3 1 3 4 4 6 8
5 5 4 3 11 12 14 21 11 14 11 8 10 18 26 28 28 27 25 24 23 22 21 21 20 19 17 15 13 11 12 12 11 9 7 4 2 1 3 4 6 6 9 11
5 9 10 10 13 6 14 20 22 16 13 12 12 22 28 28 29 29 28 26 24 24 22 21 20 19 18 16 14 14 14 12 9 7 5 3 0 2 3 6 7 8 10 13
9 8 6 7 13 13 17 13 20 21 22 19 20 23 25 28 31 29 28 27 27 26 24 22 21 20 19 17 16 16 14 11 8 6 3 1 1 3 4 5 5 12 11 11

GFSCGP_850_spd_039.txt.gz
Wind_Speed
18 13 15 19 15 17 9 6 4 6 7 9 6 12 6 15 14 16 17 16 18 18 18 20 21 23 25 25 31 29 22 18 19 19 19 17 16 17 24 19 19 17 14 16
16 14 18 14 8 9 12 11 11 2 4 7 10 12 11 16 16 17 17 16 18 18 20 22 24 26 26 26 27 27 25 22 22 18 17 17 17 18 17 16 16 16 17 17
15 12 5 7 13 14 15 15 8 7 4 10 11 14 9 14 17 16 17 19 19 21 23 25 27 29 29 29 29 27 25 24 23 18 17 17 17 19 20 20 18 18 20 19
14 17 7 12 16 15 16 14 5 7 9 5 10 3 15 14 14 16 20 20 22 22 23 26 28 30 31 31 29 27 25 24 24 21 22 21 21 19 20 20 20 19 25 23
16 13 11 15 15 12 9 5 7 9 10 5 12 8 11 8 13 14 19 24 24 23 25 26 28 29 30 30 32 31 28 26 24 24 25 22 23 20 19 19 20 19 28 27
18 16 15 16 14 7 11 7 12 10 11 8 12 9 9 9 10 15 21 23 26 27 27 26 27 27 28 29 31 33 30 29 27 26 26 24 20 24 21 18 22 23 24 25
20 14 15 9 8 11 10 13 11 10 8 9 5 4 10 2 5 2 5 15 27 28 29 29 29 29 29 30 31 31 30 30 29 29 28 29 22 27 27 31 35 33 26 26
17 19 20 15 17 13 17 17 10 5 7 5 4 6 6 3 7 5 9 11 13 28 31 31 31 31 30 29 30 30 30 32 33 31 27 25 22 33 33 39 40 38 27 31
17 20 22 18 15 16 14 17 16 9 7 7 6 7 8 6 5 4 2 5 10 17 22 31 31 31 30 30 31 33 30 31 34 38 31 24 17 32 36 39 36 30 35 30
10 13 13 13 10 13 13 10 11 8 7 11 13 11 2 7 5 4 4 2 3 4 11 17 23 30 32 30 29 30 30 30 34 35 32 33 30 28 32 31 28 32 30 28
18 12 11 11 14 17 12 13 9 7 11 6 10 5 4 3 4 3 4 3 0 2 3 6 11 18 21 25 27 28 28 28 29 26 34 37 30 25 21 22 27 30 22 22
22 11 10 16 18 21 12 21 18 9 13 7 8 12 13 9 8 4 11 5 3 2 2 5 8 10 13 17 21 23 23 26 25 32 28 31 24 22 23 21 25 27 24 22
19 16 12 17 12 10 12 15 14 14 12 10 10 7 1 3 6 10 9 9 7 6 5 6 7 8 10 13 16 18 19 20 21 23 22 23 21 20 20 24 26 27 23 23
22 17 20 14 18 15 18 17 17 16 11 12 15 18 14 13 13 10 10 10 8 8 9 8 9 9 10 11 14 15 16 16 17 18 16 17 24 24 24 26 25 23 20 20
14 20 21 24 20 18 21 22 21 22 20 17 17 18 16 16 10 10 6 1 6 9 10 10 11 11 12 13 13 14 14 15 13 13 13 12 14 16 14 13 15 13 13 13
16 14 20 21 22 22 22 19 17 20 20 18 21 20 16 11 11 9 11 7 9 7 8 9 11 12 13 13 15 14 13 13 12 12 11 9 9 8 8 8 12 12 12 13
14 12 15 16 20 20 20 17 19 20 20 17 18 18 15 15 14 12 16 11 11 10 10 11 12 13 14 14 15 15 14 14 14 14 11 10 10 8 8 8 8 9 9 9
6 9 10 10 6 20 11 18 22 23 21 18 19 19 18 18 16 7 6 11 13 14 14 15 16 16 17 17 17 17 16 15 14 13 10 9 8 7 6 6 6 5 4 4
10 9 7 11 12 15 18 21 12 15 16 18 18 16 18 17 1 6 8 11 15 17 19 19 18 19 19 18 18 18 17 15 14 13 11 10 9 9 9 9 8 7 7 5
18 13 10 6 16 19 11 20 16 14 16 16 16 14 9 7 7 11 20 19 19 19 20 21 20 19 18 17 17 18 17 16 15 14 13 13 13 12 12 10 10 11 10 8
8 6 12 12 10 8 10 14 14 13 8 2 7 7 10 9 14 7 24 22 23 22 21 20 19 18 18 18 18 18 17 16 16 15 15 14 12 11 10 8 6 4 2 3
7 6 5 9 11 15 4 10 14 15 22 9 11 13 11 12 10 22 25 27 27 26 23 21 20 19 18 18 18 18 17 17 15 14 12 11 9 8 9 8 6 5 3 2
9 10 5 7 4 10 19 19 22 22 17 12 14 14 12 16 21 24 27 28 27 25 24 21 20 20 18 17 17 18 17 15 12 12 12 12 11 9 7 6 4 4 2 1
5 1 6 13 10 13 13 20 21 15 20 17 14 14 15 22 24 26 27 28 27 25 24 22 22 21 20 18 17 16 15 14 14 14 13 11 10 8 6 5 4 2 2 3
9 7 10 17 20 23 26 17 20 21 16 16 13 14 18 22 26 29 29 29 27 26 24 23 22 21 20 19 17 15 15 14 14 13 11 9 9 7 5 5 3 3 7 7
12 14 8 8 13 9 17 13 12 16 21 17 16 16 20 24 27 29 29 28 28 27 25 24 22 21 20 18 17 16 14 14 13 12 10 9 8 7 4 3 6 6 8 8

GFSCGP_850_spd_042.txt.gz
Wind_Speed
19 11 15 18 18 19 15 9 21 7 6 11 19 22 22 28 22 18 17 22 19 19 18 20 23 18 23 20 26 32 29 25 24 21 25 23 24 23 32 24 22 19 18 21
15 18 18 18 19 17 14 13 18 5 11 5 9 11 20 18 22 22 21 23 24 23 26 26 27 24 25 31 32 32 30 30 33 25 24 23 26 24 25 29 24 23 19 21
19 17 19 17 18 11 14 16 16 13 6 9 10 12 4 15 19 22 25 24 27 30 32 30 31 33 31 28 33 32 28 24 24 23 19 23 20 17 22 17 21 22 21 22
19 22 17 10 13 14 15 14 13 10 13 9 5 11 7 18 15 15 19 22 22 27 33 35 33 34 35 35 31 30 30 29 29 26 28 28 26 27 26 22 20 19 20 24
19 21 17 13 15 16 13 1 10 13 13 14 14 7 5 10 13 18 17 23 25 26 30 38 39 39 37 38 37 33 31 32 31 29 30 28 26 25 25 27 27 24 24 27
21 22 16 15 15 16 9 10 14 11 11 11 15 11 6 2 6 9 20 27 25 27 30 31 38 38 40 37 40 40 36 35 36 27 26 24 27 25 23 21 23 27 29 30
20 23 20 16 17 17 9 11 8 9 9 9 17 11 6 11 17 16 14 21 30 31 28 30 35 40 41 42 41 41 40 38 35 32 29 28 27 29 31 29 25 26 27 31
17 15 21 14 17 13 12 15 8 4 3 9 14 5 7 17 10 5 1 5 16 32 34 32 32 36 40 42 43 43 42 39 38 35 33 34 27 35 39 32 30 32 30 36
16 23 18 20 15 18 14 15 15 7 3 5 10 7 7 10 6 4 5 2 8 12 33 37 37 38 37 41 43 43 41 38 38 39 42 42 30 31 39 35 33 31 29 33
18 11 18 18 19 19 16 12 11 7 5 6 8 10 3 4 5 8 4 7 3 2 10 24 31 31 39 40 42 42 41 40 38 38 43 47 35 34 32 31 31 31 30 33
19 12 12 16 16 16 10 12 8 13 11 6 4 5 7 5 11 3 5 7 6 5 2 4 7 10 24 38 35 42 43 40 37 41 44 43 39 38 34 26 26 27 29 27
22 9 13 17 12 15 18 16 17 10 9 5 1 6 8 8 15 4 1 6 5 2 2 6 6 7 11 15 16 33 39 39 31 39 40 33 39 38 34 27 23 24 25 24
19 16 8 17 18 17 15 19 14 15 11 12 7 8 1 4 3 4 9 11 15 13 10 9 6 7 8 11 15 15 27 27 26 30 31 26 27 36 33 26 23 24 25 26
11 13 18 14 13 10 16 18 17 13 8 4 10 12 15 14 2 12 16 19 17 13 13 10 14 11 10 12 14 16 17 19 19 24 25 23 24 26 29 26 23 23 24 24
5 16 20 20 19 19 18 19 19 20 22 15 15 16 15 16 12 7 30 7 6 6 5 10 9 15 14 14 16 16 17 19 16 19 23 25 26 30 27 25 22 20 20 19
5 11 14 21 21 20 23 19 22 19 20 20 18 19 16 16 7 3 24 9 11 10 9 10 14 17 15 15 16 20 23 24 19 19 22 23 21 17 14 15 17 17 17 15
12 8 14 16 17 14 21 19 17 17 19 13 16 12 10 14 8 22 27 15 16 12 8 9 13 18 20 18 21 20 19 19 17 18 18 14 13 14 16 16 16 14 13 12
2 13 10 7 1 21 11 14 16 16 15 16 18 15 13 14 17 13 3 3 9 11 13 13 15 17 20 20 19 20 18 20 20 17 16 17 17 15 14 13 13 13 13 12
8 6 3 4 14 17 17 17 12 13 17 20 22 18 17 20 21 4 5 7 10 16 19 19 19 21 22 24 23 24 23 22 21 19 17 15 14 13 13 12 12 11 10 10
10 9 4 3 11 16 6 12 18 15 16 14 13 13 13 15 5 5 14 11 16 20 20 21 22 23 24 24 25 26 23 22 20 19 17 16 14 12 13 13 12 12 12 12
6 3 10 8 7 5 7 13 22 19 8 9 13 15 15 3 2 7 10 17 20 23 24 24 24 25 25 25 25 25 24 22 20 18 17 16 16 15 12 11 12 12 10 7
7 6 5 5 4 11 8 9 15 8 29 13 16 15 8 5 4 9 23 25 25 25 25 26 26 25 24 24 25 24 23 21 21 21 20 18 14 11 10 11 12 10 10 11
7 9 5 6 3 19 31 20 22 16 15 15 17 12 12 7 13 20 25 26 27 27 28 26 26 26 24 22 23 23 23 23 23 20 16 13 15 15 14 12 12 11 10 12
5 10 4 2 7 17 30 22 17 20 19 23 18 13 12 10 19 23 25 27 29 29 29 27 26 25 24 22 22 24 24 21 18 19 19 19 18 17 14 14 13 14 13 11
5 14 12 12 13 17 31 21 16 18 15 17 16 13 10 12 24 27 27 29 29 29 28 27 27 25 23 22 22 18 17 19 21 21 21 20 19 17 18 15 13 12 8 9
9 9 6 5 12 3 6 21 15 15 18 21 16 14 15 15 19 23 26 27 27 28 27 25 24 25 23 20 19 18 18 19 21 21 19 18 19 14 7 8 8 7 8 9

GFSCGP_850_spd_045.txt.gz
Wind_Speed
14 4 10 11 13 16 14 13 8 6 8 7 12 7 12 14 8 23 25 23 25 21 19 18 19 22 22 23 26 29 31 31 34 35 31 35 31 36 38 32 21 21 25 23
8 15 13 16 17 15 13 10 7 7 2 4 6 15 10 8 10 22 28 27 24 24 25 23 21 24 22 26 28 28 33 38 37 35 33 29 27 26 26 29 27 27 25 23
13 11 18 19 18 14 13 5 6 3 5 7 6 0 9 11 16 24 30 31 29 30 32 31 26 25 27 30 36 38 40 39 36 29 26 24 24 27 29 35 33 28 26 23
12 19 19 20 16 9 6 8 5 4 2 4 2 4 11 19 19 19 27 31 34 34 34 36 32 30 31 34 36 37 34 35 33 30 29 32 33 34 31 31 35 30 30 27
16 7 14 16 11 6 9 6 4 2 6 4 8 2 9 17 15 20 22 32 36 41 44 42 38 33 34 34 38 37 36 34 30 28 31 33 33 31 32 27 27 25 24 24
15 22 15 15 10 8 7 3 2 3 1 4 7 1 5 12 8 16 23 34 40 42 50 45 39 36 33 36 38 38 38 38 35 35 35 36 33 32 32 29 28 26 25 25
16 19 18 11 6 5 6 3 1 3 3 6 8 3 7 9 10 21 19 31 41 45 49 49 46 46 42 41 41 41 40 39 39 38 34 35 36 38 36 35 35 33 32 32
13 13 16 10 12 9 8 7 5 4 2 4 7 4 6 12 13 17 22 38 39 44 44 51 52 49 46 46 42 41 42 41 41 42 39 37 37 40 42 38 36 32 30 29
9 18 8 16 6 7 5 4 8 7 2 3 3 8 9 13 6 7 9 14 32 37 43 45 52 52 48 47 47 46 43 43 42 48 45 42 40 42 41 37 38 33 33 32
5 6 16 18 11 9 10 4 3 2 4 2 5 6 6 1 6 2 6 9 6 13 42 45 42 50 46 47 47 47 48 48 47 48 49 47 43 46 43 38 37 37 33 33
17 13 9 2 4 6 4 7 4 7 5 5 2 4 6 7 3 3 7 16 12 8 9 18 40 35 33 40 42 47 49 44 44 49 50 50 49 46 43 38 31 34 31 31
15 4 12 18 5 8 12 11 8 5 5 3 5 6 3 8 6 7 14 14 15 13 10 8 14 35 30 34 46 44 55 42 40 54 52 51 48 46 38 35 34 32 26 23
9 14 9 8 8 5 9 7 6 5 5 8 6 5 6 4 8 17 14 2 12 17 13 13 13 15 14 15 33 49 59 48 39 49 47 48 40 31 34 38 37 33 26 23
21 10 14 17 5 6 8 9 13 11 4 5 6 4 2 8 6 8 4 3 5 17 18 19 17 14 10 8 8 21 42 43 43 38 33 30 25 27 22 26 28 28 23 25
6 11 11 15 13 13 11 16 15 14 15 11 6 7 8 10 11 8 6 2 3 7 21 18 21 19 16 13 12 15 26 32 32 24 23 23 23 24 19 19 23 22 24 22
9 6 7 5 9 16 18 15 18 15 5 11 12 13 14 21 17 18 21 16 15 18 14 13 15 22 20 18 17 18 19 24 26 24 25 26 26 23 22 22 23 24 23 23
6 7 2 13 5 6 15 19 13 6 11 11 10 11 9 6 10 17 24 30 27 26 20 19 18 24 27 26 24 24 22 23 26 29 29 27 26 26 27 25 22 23 22 19
9 7 4 4 5 11 10 11 10 8 11 10 3 3 6 7 18 21 29 24 22 22 24 22 23 25 28 28 26 27 25 21 22 25 27 27 26 24 24 24 20 19 18 18
7 3 5 5 12 4 8 5 7 8 11 6 5 7 8 23 17 3 17 17 22 22 20 21 22 26 29 29 29 28 23 22 23 24 24 23 22 22 21 20 20 19 18 17
10 4 9 2 6 16 3 11 13 4 11 4 5 6 9 7 2 5 19 16 16 19 23 26 26 27 28 26 25 23 22 25 25 25 24 24 22 21 21 19 18 18 17 17
4 6 4 3 2 6 5 6 12 9 3 11 12 3 6 4 6 10 17 12 14 16 23 27 27 27 26 26 24 24 25 25 25 24 21 20 19 19 16 17 17 17 17 17
6 7 3 3 2 5 17 8 3 10 22 25 25 11 13 13 16 20 17 19 24 25 26 26 27 27 26 26 26 28 27 26 23 22 22 20 18 16 15 15 17 18 18 17
5 7 8 8 5 7 14 8 10 15 20 23 13 16 22 18 15 21 26 27 27 28 28 28 28 28 27 27 28 30 29 29 28 26 23 21 18 15 14 16 17 17 17 15
6 6 5 5 7 9 18 13 22 21 28 27 26 9 11 10 16 24 25 26 28 27 28 28 28 29 28 27 28 29 31 30 28 27 24 21 20 21 22 23 22 22 20 18
5 7 6 3 3 8 9 4 13 24 29 38 27 20 9 1 8 17 22 23 25 27 28 26 27 27 25 26 27 28 28 27 26 24 24 25 28 28 27 25 21 20 19 17
3 4 4 5 12 10 11 15 11 10 15 34 20 19 12 7 8 19 19 21 27 27 27 25 27 27 25 24 25 23 21 22 25 25 25 26 26 24 23 22 21 18 15 15

GFSCGP_850_spd_048.txt.gz
Wind_Speed
5 3 10 11 10 6 6 6 10 11 8 4 9 6 9 13 16 20 24 25 23 19 14 14 14 15 14 15 17 26 32 40 41 41 42 44 44 44 42 40 37 33 25 21
4 13 12 8 9 8 9 11 16 8 5 6 6 13 3 9 8 26 28 27 27 23 20 18 19 20 19 19 21 29 34 36 38 41 44 45 48 44 39 44 43 39 29 26
12 6 14 11 12 9 13 11 12 8 4 2 6 5 6 6 6 16 25 32 30 32 28 26 25 24 22 24 28 30 32 33 37 37 36 40 36 35 42 46 45 38 36 28
8 17 13 9 11 11 13 13 9 4 3 3 4 4 5 6 7 7 20 27 35 37 32 31 30 30 27 26 27 29 33 34 35 38 37 41 39 39 42 45 44 38 31 26
8 8 15 15 19 11 14 10 8 7 4 3 4 2 5 4 6 13 18 31 37 39 37 38 37 33 29 29 32 33 35 39 38 38 38 37 37 34 34 37 41 36 31 31
10 12 5 7 10 12 11 3 1 3 1 1 3 5 5 6 11 16 21 32 39 40 43 41 38 35 35 34 37 37 40 42 41 39 37 39 40 38 37 37 36 35 34 34
13 20 15 9 8 8 5 5 2 3 3 6 4 2 7 7 14 19 20 31 37 44 43 46 44 43 40 42 43 43 40 40 40 40 39 41 41 39 40 39 39 37 35 38
9 6 14 8 16 8 7 8 6 6 3 4 4 5 6 5 2 9 27 39 40 39 48 49 50 47 47 46 46 47 46 43 42 43 42 41 41 43 44 41 41 40 37 36
7 7 8 6 7 8 6 4 7 7 3 2 4 7 8 6 4 2 17 24 29 37 44 51 50 50 50 48 50 50 49 47 46 45 44 45 44 46 48 45 42 42 39 35
4 4 6 14 5 8 11 7 4 2 5 3 3 4 5 6 2 4 4 20 32 40 40 48 48 51 51 49 48 50 50 48 50 47 45 44 44 46 48 49 46 45 41 40
9 6 10 4 6 15 3 4 3 6 5 5 1 5 6 7 6 6 6 11 21 34 42 46 50 50 51 50 49 49 51 51 49 48 43 41 45 46 50 52 49 44 38 42
11 8 13 22 10 4 6 9 8 5 4 3 4 7 3 8 7 10 6 7 14 19 20 33 39 45 52 52 51 49 50 51 50 46 47 40 43 49 51 49 40 42 35 34
5 6 3 7 7 10 6 5 5 4 4 8 6 5 3 6 8 9 12 5 13 15 18 19 23 38 44 50 51 45 45 49 52 50 47 39 48 44 49 53 34 32 44 37
1 4 10 17 5 5 5 5 7 9 5 5 6 8 6 8 8 8 10 11 12 21 21 24 23 26 30 39 39 38 46 50 51 50 49 44 44 54 47 47 39 39 41 40
7 5 10 10 15 14 11 14 12 10 6 9 7 9 12 10 9 16 26 20 16 16 23 26 29 28 32 35 31 28 31 49 52 49 46 52 44 42 44 42 43 44 42 39
4 4 10 9 11 15 17 11 16 16 7 6 11 8 9 18 21 8 24 28 24 22 26 30 32 30 29 28 25 22 20 27 41 46 45 46 46 42 37 36 34 27 33 31
5 3 6 6 4 4 9 22 13 5 5 6 7 9 9 8 9 14 25 28 26 24 24 27 31 30 31 32 30 27 23 23 28 35 41 45 42 37 32 29 28 30 31 29
6 4 2 4 4 15 13 6 8 13 11 8 5 5 7 10 21 17 26 34 37 31 28 28 29 31 35 33 30 27 25 26 27 33 36 35 35 34 32 31 30 26 25 24
3 5 3 5 4 8 9 6 5 10 20 8 9 8 7 18 8 7 15 25 34 35 30 33 33 31 32 33 32 29 28 28 27 29 30 30 30 30 30 28 24 22 20 19
8 5 3 4 3 5 5 8 12 2 4 5 5 9 9 8 2 6 17 19 22 27 27 28 24 26 32 33 32 31 30 28 26 26 26 27 28 26 24 23 22 22 19 20
3 2 5 4 4 8 10 16 9 7 6 14 16 17 7 4 7 20 17 24 22 20 19 18 22 25 31 33 32 30 27 25 23 22 24 24 23 22 21 22 21 20 21 21
7 6 4 3 3 9 9 16 5 2 4 11 17 19 19 25 18 9 13 22 23 25 24 23 24 28 31 31 30 27 25 23 23 24 23 22 21 21 20 19 20 20 21 23
4 6 4 6 6 7 19 6 3 3 7 10 17 21 25 24 16 20 21 22 26 24 22 24 25 27 27 27 24 24 24 24 23 22 21 20 19 17 17 18 19 20 20 21
5 4 5 1 9 14 16 16 13 2 5 6 11 20 22 25 13 18 20 25 26 26 24 23 25 25 26 25 24 23 24 24 22 21 19 18 18 18 16 16 16 18 20 20
7 4 9 6 7 7 16 17 15 10 5 12 11 13 20 16 16 17 21 26 26 23 23 24 25 26 26 25 24 23 23 22 20 20 21 21 19 19 19 20 18 18 19 17
5 5 3 4 10 11 13 18 20 11 6 7 8 11 16 21 13 21 21 22 24 25 26 26 26 26 25 23 21 21 21 20 20 22 21 20 20 21 20 21 21 21 18 16

GFSCGP_850_spd_051.txt.gz
Wind_Speed
8 4 9 9 7 5 2 3 5 6 9 4 13 9 8 14 13 15 21 19 15 11 8 8 10 10 13 15 15 14 24 44 43 42 44 44 41 41 41 39 36 31 23 22
3 14 8 8 5 5 5 5 11 9 9 7 8 11 5 9 15 23 25 24 21 16 14 13 12 13 14 15 19 20 21 35 40 42 42 47 43 43 39 39 40 36 27 21
8 4 14 10 5 6 7 7 10 8 8 4 0 8 4 5 8 18 24 27 23 22 20 19 16 16 16 15 15 22 27 31 35 39 41 42 39 41 40 41 43 42 39 26
7 13 4 5 10 8 7 10 11 8 2 5 5 5 5 3 7 8 19 26 29 29 25 22 20 19 19 17 19 22 25 31 33 36 36 39 43 45 47 41 41 45 43 38
10 7 11 13 16 7 9 5 9 9 7 3 2 2 7 4 6 11 15 28 34 34 31 27 25 22 19 19 20 22 23 27 30 33 36 40 43 46 45 43 46 42 47 44
12 4 6 9 7 10 10 4 3 0 4 2 6 5 5 5 7 5 12 26 36 37 36 32 27 27 24 22 23 24 27 28 31 34 36 38 39 45 47 46 49 49 45 45
5 9 3 2 2 2 5 2 3 3 0 5 5 2 8 8 11 12 12 27 36 39 39 37 37 35 32 30 28 29 31 34 34 36 39 40 40 40 42 39 40 41 43 45
10 5 11 6 12 7 6 9 5 6 4 4 1 5 6 7 12 13 16 27 33 36 41 42 42 40 38 36 35 34 34 36 39 39 40 39 40 41 41 40 41 43 45 43
6 6 4 6 7 11 4 5 7 5 3 2 4 6 7 7 10 12 18 17 30 36 41 45 46 45 43 42 42 41 41 40 42 41 41 42 43 44 45 44 44 43 42 42
4 2 5 5 4 5 7 5 2 2 4 4 3 3 5 8 5 5 6 14 30 35 37 41 44 47 47 46 44 43 44 46 46 47 47 47 47 47 47 46 45 43 41 42
9 4 6 4 4 7 2 3 2 3 4 6 2 5 7 8 8 5 1 4 16 28 35 38 42 45 47 46 47 47 48 49 48 50 52 51 50 49 49 49 46 45 43 43
4 5 10 18 8 3 3 6 8 5 4 2 4 8 5 8 6 6 5 3 9 19 31 36 36 40 44 47 49 50 51 52 52 53 53 54 53 51 51 51 50 42 45 40
5 3 2 14 4 3 7 6 5 2 3 10 7 6 2 5 6 12 7 8 7 14 17 29 31 34 39 43 47 49 49 52 54 55 56 55 54 53 52 51 49 48 44 42
7 3 4 4 5 5 3 8 8 9 6 4 10 7 5 7 8 9 15 15 15 16 22 23 29 31 35 37 40 43 46 49 49 51 56 56 55 53 53 48 49 42 42 45
4 2 4 10 11 10 15 12 9 12 7 9 7 10 10 10 10 15 25 23 16 18 21 26 28 30 33 35 33 35 32 40 43 46 50 51 50 51 53 51 48 41 39 38
2 1 5 6 12 15 14 16 18 16 5 7 6 7 8 14 21 12 23 28 24 25 28 29 33 35 35 31 31 28 29 35 39 42 45 46 46 46 46 47 43 39 41 40
4 4 0 3 11 16 10 8 10 9 6 7 9 8 7 7 7 16 28 31 33 33 35 32 33 38 40 34 32 30 30 36 38 37 40 42 43 43 45 44 46 43 39 37
6 5 1 3 4 5 6 23 10 13 13 8 4 4 8 10 23 24 26 27 28 31 32 32 33 32 38 37 36 35 35 35 34 32 31 35 36 40 41 38 40 38 34 29
5 5 3 3 2 8 13 8 7 11 20 6 10 9 8 26 12 19 20 20 21 17 23 33 34 32 34 41 40 37 33 31 30 28 29 31 33 36 36 35 35 32 29 30
5 3 3 2 3 5 10 18 14 12 16 6 6 6 8 1 4 7 27 24 24 23 23 28 34 32 30 35 36 35 34 32 29 29 31 30 30 30 30 31 30 31 30 28
3 2 4 2 4 7 8 8 3 2 6 14 10 7 9 3 4 17 22 18 22 24 26 26 27 26 24 28 30 30 30 29 29 28 23 21 19 20 23 27 30 28 26 24
6 8 4 3 3 8 10 2 8 7 19 24 21 15 14 18 16 14 18 19 18 21 14 12 13 16 18 24 28 29 29 26 21 18 17 17 21 24 25 24 24 23 24 25
4 6 6 8 6 6 12 8 9 11 10 19 28 12 16 21 20 15 15 13 10 15 17 16 17 17 19 25 27 27 24 21 18 17 19 21 21 19 18 18 20 21 22 23
4 5 4 2 16 15 23 25 22 22 27 18 13 21 13 14 18 18 18 14 12 13 15 16 17 18 20 21 20 19 18 17 17 18 19 19 18 18 17 15 15 16 18 19
3 2 1 7 4 17 16 21 15 20 23 14 19 18 18 16 14 15 19 17 15 12 15 15 15 16 18 18 17 17 17 17 19 19 19 19 17 16 17 17 16 15 16 15
2 1 1 4 8 8 11 22 16 2 2 5 12 11 9 14 17 17 15 18 14 10 13 14 15 17 17 16 16 16 17 17 17 18 18 18 17 16 15 15 17 16 13 14

GFSCGP_850_spd_054.txt.gz
Wind_Speed
7 4 12 9 7 5 5 4 4 5 4 3 8 10 17 7 15 17 21 19 18 16 11 12 10 10 13 13 14 13 19 31 41 41 36 37 42 40 40 39 40 38 33 26
3 17 6 8 7 6 4 3 5 8 7 6 8 10 6 5 9 20 21 23 22 18 16 16 14 11 13 13 13 12 14 22 33 35 40 44 47 42 42 36 38 36 38 30
10 3 13 10 7 7 5 6 4 8 6 4 3 8 5 4 8 9 23 24 23 22 21 18 17 13 12 12 14 17 16 25 32 40 42 43 40 40 45 35 39 38 40 34
7 6 5 4 9 8 9 11 8 6 1 4 3 5 6 4 7 6 16 26 28 26 23 20 18 17 14 11 14 23 22 25 36 38 41 45 42 49 49 40 36 37 39 36
8 7 10 5 6 7 8 8 8 5 5 1 3 2 7 2 6 9 10 28 30 28 28 25 21 18 13 13 13 18 25 26 31 38 39 41 41 41 49 47 42 41 43 39
8 3 7 11 6 11 4 3 3 2 3 3 7 6 5 5 8 7 6 23 30 30 29 28 23 20 19 16 17 19 27 31 33 35 37 40 43 42 45 50 45 41 40 42
2 5 2 3 5 3 4 4 1 2 1 5 4 5 8 8 10 10 10 18 24 31 30 31 30 27 25 23 21 23 26 30 34 37 37 39 41 42 43 50 49 48 46 46
8 3 11 6 8 6 6 7 5 6 4 4 1 5 6 8 14 20 19 14 19 24 31 31 32 30 28 26 25 25 27 30 31 35 39 42 44 44 44 46 49 53 54 48
6 5 2 5 8 12 4 5 6 6 1 2 4 6 9 8 8 10 14 12 19 23 27 32 33 33 32 31 30 28 28 29 31 33 36 41 42 43 44 45 46 47 46 47
6 1 4 2 5 3 7 6 4 1 5 5 3 3 5 5 10 8 8 12 22 23 24 27 30 35 36 35 33 31 30 32 31 33 35 37 39 40 41 41 42 43 42 40
2 3 4 3 4 7 3 3 1 4 5 4 2 5 8 9 6 6 8 10 14 21 23 25 27 30 34 38 38 37 36 34 36 36 37 38 38 39 40 42 43 44 42 42
2 3 6 14 7 2 4 7 8 5 5 3 3 6 5 9 7 5 9 15 7 7 12 19 24 27 29 33 36 42 43 42 40 38 40 41 42 40 43 44 44 45 46 44
3 2 2 6 3 3 2 5 6 3 2 6 5 5 2 7 5 11 12 14 10 8 12 17 23 25 28 30 32 37 41 46 46 44 44 46 45 46 50 48 47 49 49 47
6 2 4 3 0 2 6 7 5 7 5 3 5 4 5 6 7 6 12 18 16 13 16 18 20 22 27 28 30 33 35 37 43 48 48 51 52 52 51 48 51 53 53 51
3 3 2 2 7 4 5 9 8 6 7 9 5 8 9 12 11 15 24 22 22 23 20 24 26 27 28 30 29 30 31 33 31 37 44 46 51 54 55 54 53 52 52 51
3 1 3 3 3 5 3 6 8 8 6 7 7 8 9 16 18 15 26 25 27 27 27 23 26 29 30 31 32 30 30 29 31 32 33 37 42 46 48 48 49 50 54 52
4 4 2 2 4 7 4 1 3 7 8 5 8 8 9 8 7 11 27 30 29 28 29 29 30 32 33 36 35 35 31 32 34 32 33 33 35 40 40 38 40 42 42 44
4 2 2 2 3 3 4 0 8 2 4 11 16 15 14 12 23 25 21 22 23 24 28 30 33 31 29 34 37 37 35 36 37 35 33 32 33 35 35 34 35 36 37 38
8 4 3 3 2 6 5 3 1 4 17 12 8 12 16 26 24 20 26 24 19 23 27 24 19 20 27 30 33 36 38 39 36 34 33 32 31 31 31 32 33 32 33 33
5 3 2 2 1 4 5 3 5 6 8 2 4 8 14 22 6 7 26 23 22 27 30 24 27 26 24 28 29 29 36 37 34 32 31 31 27 27 26 24 27 27 26 25
4 1 8 2 3 8 6 5 2 4 6 6 4 10 12 5 9 30 32 26 21 24 30 27 28 28 27 23 25 25 32 31 30 28 26 23 21 18 18 18 19 20 21 24
5 6 3 4 3 8 8 4 3 6 7 8 13 15 20 27 36 31 26 22 17 17 17 16 16 14 12 14 15 19 23 23 21 18 14 12 10 10 12 16 19 22 24 27
2 6 5 8 7 3 2 6 16 18 18 13 10 22 15 28 30 28 29 28 18 16 15 11 5 6 6 5 7 9 12 12 11 10 11 12 12 13 15 16 18 20 19 19
4 5 3 2 2 3 8 11 20 18 23 27 22 15 21 23 33 28 24 25 19 17 11 8 5 3 3 3 2 5 6 8 9 10 11 12 13 14 14 13 11 11 12 14
4 4 4 6 3 13 6 19 22 21 16 13 22 20 16 17 23 24 22 20 15 10 7 5 3 1 3 3 2 3 5 7 8 9 11 14 13 12 11 10 9 7 8 7
0 1 3 3 4 4 11 14 17 17 19 19 17 15 15 16 18 17 12 10 9 9 6 4 2 2 6 4 7 6 7 6 8 10 12 12 12 12 11 11 12 12 12 13

GFSCGP_850_spd_060.txt.gz
Wind_Speed
22 14 20 23 22 19 13 12 14 10 6 6 13 16 14 6 9 11 13 16 18 17 14 14 13 14 15 20 21 22 26 24 28 32 37 39 37 39 47 42 28 34 28 40
11 20 18 16 19 20 18 15 14 9 6 8 13 16 14 12 8 9 12 16 19 18 17 16 16 15 16 17 19 22 23 26 28 29 33 38 42 42 45 42 37 32 33 37
21 5 15 15 16 19 20 20 15 14 3 10 9 15 18 14 8 8 10 13 16 21 22 20 19 18 16 16 20 19 22 22 27 24 27 39 42 40 44 42 45 40 39 37
15 24 6 20 22 19 19 19 16 12 11 9 3 13 15 9 16 12 13 14 17 21 23 22 21 20 18 17 15 16 21 24 26 32 32 37 45 49 50 46 47 46 43 34
15 11 20 17 18 18 17 7 13 15 13 12 14 9 14 6 13 13 12 15 17 20 24 24 23 21 18 17 17 17 19 25 30 30 33 35 42 46 46 48 49 39 49 44
20 4 13 21 14 12 8 7 7 8 10 12 15 12 8 11 10 4 5 9 11 17 23 23 22 21 20 19 18 19 25 26 30 32 33 36 40 45 47 50 49 46 46 43
17 17 8 10 19 13 15 12 7 8 8 10 4 10 14 11 12 11 10 13 6 13 21 25 26 26 24 24 23 21 26 28 29 35 36 35 42 42 46 56 53 49 44 47
15 9 15 12 13 11 18 19 7 8 10 9 9 8 7 4 5 7 7 8 7 12 18 26 28 27 27 26 26 25 26 28 31 37 38 37 37 37 44 52 54 52 47 48
12 17 11 12 11 15 13 19 16 9 1 5 7 7 11 10 10 11 10 10 14 13 18 25 29 29 28 29 30 28 26 27 28 34 40 40 37 34 38 47 56 49 46 50
5 6 10 17 17 16 10 10 8 10 13 12 9 8 7 4 10 3 4 5 5 8 16 21 28 30 29 28 29 30 28 28 28 30 33 34 37 35 34 38 49 49 48 51
7 5 6 11 15 18 14 12 9 7 13 11 10 6 5 9 5 3 3 9 6 2 12 17 22 26 27 26 28 31 32 31 31 31 32 33 35 35 35 37 42 44 48 45
10 3 8 10 4 8 17 16 19 10 10 7 8 9 9 6 10 6 12 14 10 2 4 14 17 21 26 29 30 32 33 34 33 32 33 34 34 35 38 40 40 44 44 53
2 8 6 11 11 3 9 6 8 13 12 13 8 4 4 8 11 14 14 15 12 5 1 7 14 18 21 25 29 31 34 37 35 34 34 35 37 39 41 43 45 41 43 45
7 3 10 8 3 3 7 8 4 9 8 10 13 12 10 12 13 15 18 17 18 15 10 6 9 13 17 21 25 28 31 33 34 34 36 38 40 42 42 41 41 43 43 40
2 2 1 2 2 1 3 5 4 8 8 7 6 10 9 7 8 13 19 20 17 16 14 12 14 12 13 17 21 25 27 29 32 34 37 44 44 42 40 40 40 40 42 44
7 2 4 2 3 3 5 6 8 7 9 9 11 12 1 10 12 11 16 19 21 21 18 18 13 13 15 18 21 24 27 29 29 33 36 35 37 41 43 40 40 40 42 41
4 3 4 8 2 3 7 13 10 7 7 7 8 2 7 10 10 14 19 16 16 20 25 21 19 15 14 16 20 23 26 24 29 31 32 32 33 35 36 36 35 37 38 37
4 2 3 4 2 7 1 4 2 5 5 5 4 7 7 9 14 15 9 18 20 20 22 25 24 23 20 16 16 19 21 25 28 30 30 31 31 32 30 30 32 31 30 30
13 4 3 5 10 8 6 6 5 7 4 4 4 6 8 10 13 10 12 18 21 24 23 21 22 23 26 25 22 19 20 24 26 29 28 28 29 29 29 30 29 27 26 25
13 11 6 5 7 6 3 7 2 2 5 6 7 9 9 11 5 4 20 21 23 25 23 21 21 22 21 21 21 20 18 17 23 23 22 23 25 27 27 26 25 24 23 23
10 10 13 10 7 4 8 2 4 7 3 14 15 13 11 6 5 14 17 19 21 23 25 23 20 19 20 22 19 16 14 12 15 19 17 19 19 20 21 24 27 24 21 21
11 11 8 11 8 8 4 3 3 6 8 13 15 14 12 13 13 12 16 17 18 23 27 24 20 21 20 18 12 6 11 12 14 16 15 18 20 21 21 20 20 20 20 21
7 6 5 8 6 6 8 11 7 7 6 9 12 14 12 10 10 12 13 14 15 18 23 23 19 17 16 14 7 2 2 3 5 9 13 15 19 21 20 19 18 16 16 17
7 5 4 2 4 4 4 6 9 8 7 8 9 11 12 13 12 11 11 15 16 18 19 21 19 15 13 13 9 5 3 5 8 11 14 16 16 17 16 14 12 13 11 10
2 7 6 7 8 5 6 4 8 9 8 8 9 9 10 11 10 12 13 13 15 17 17 18 15 15 12 13 9 7 4 4 9 11 13 13 12 11 13 12 10 9 13 11
4 5 6 5 5 3 3 4 6 7 10 11 13 13 12 12 10 9 9 11 14 24 16 13 12 9 8 9 9 8 6 8 11 14 14 14 14 15 16 16 18 16 16 17

GFSCGP_850_spd_063.txt.gz
Wind_Speed
19 15 21 22 20 21 24 19 16 12 12 11 15 19 15 17 17 13 15 14 15 17 14 15 15 14 15 15 18 23 21 18 21 23 23 24 33 35 39 42 33 31 36 34
17 22 20 21 19 21 26 24 16 15 5 5 15 19 18 16 17 11 15 14 14 15 16 17 17 16 16 17 17 21 23 21 22 24 27 27 37 36 41 43 32 32 34 33
19 16 22 18 18 22 24 23 19 18 9 8 14 19 18 17 18 16 12 15 13 15 19 20 20 19 17 18 19 18 23 22 23 20 29 27 30 37 46 41 40 39 37 31
17 27 8 17 21 20 22 18 19 17 15 13 11 14 15 19 22 16 21 19 18 14 17 21 21 21 20 18 18 18 18 25 23 24 30 35 38 42 47 50 46 49 43 38
14 12 18 20 18 20 24 16 15 16 18 17 18 10 14 14 14 15 14 21 22 17 18 21 23 22 21 19 18 18 19 19 25 29 31 32 38 39 38 51 44 39 44 41
21 29 16 16 19 19 15 15 16 11 14 15 17 14 13 11 14 14 4 11 17 17 18 20 22 22 21 19 19 18 22 23 26 30 31 34 35 40 41 46 53 49 44 43
21 22 24 13 15 22 19 12 9 11 12 15 16 14 15 10 0 6 8 8 11 12 17 21 24 25 24 23 21 20 21 24 29 32 33 34 33 38 47 47 50 54 54 45
16 14 23 15 15 16 19 18 10 12 10 13 18 8 7 8 2 1 2 5 8 14 15 21 26 27 26 26 25 22 22 24 26 30 34 34 35 36 37 44 49 53 56 57
10 20 12 20 14 15 17 20 21 18 10 7 6 10 14 6 8 7 9 10 11 17 18 20 25 28 27 27 27 26 24 24 26 28 34 37 36 33 35 35 44 50 54 50
16 17 14 17 15 20 21 10 17 13 11 11 9 13 4 7 5 3 2 3 4 11 17 20 25 29 27 26 25 26 25 25 25 27 29 37 39 35 38 40 39 44 53 44
15 9 6 11 17 19 17 17 12 15 14 9 13 9 7 2 3 4 5 9 7 1 7 15 22 26 25 24 25 26 26 26 26 26 27 32 38 36 39 37 34 36 43 53
16 6 12 15 19 22 22 20 18 9 5 13 9 5 3 9 7 9 5 7 10 5 4 12 17 22 25 26 26 27 27 28 28 27 27 29 30 34 39 40 38 38 41 48
11 10 10 14 10 8 13 19 19 17 14 13 7 8 12 7 4 11 13 13 11 10 7 1 11 17 22 25 26 27 28 29 28 28 29 32 35 35 37 39 40 39 41 41
7 11 13 13 13 10 13 11 10 11 9 14 14 13 10 10 5 6 13 14 13 12 10 3 5 9 14 19 24 26 28 29 30 30 32 34 38 40 43 42 40 41 41 43
3 5 12 9 3 9 7 15 14 13 15 11 13 12 12 8 3 6 11 16 15 13 15 16 10 8 10 14 18 22 26 28 30 32 34 39 39 38 36 38 39 42 43 44
5 3 6 9 4 4 5 8 10 11 13 13 14 12 11 2 4 3 9 14 14 16 16 16 17 15 11 11 15 18 23 26 28 32 40 36 37 37 40 39 42 42 44 45
9 8 4 3 7 2 5 13 11 11 13 13 13 7 9 4 4 5 7 12 15 17 19 18 17 16 16 14 12 15 19 22 27 32 34 35 39 40 42 42 38 42 44 42
12 9 8 3 5 3 1 2 12 14 9 6 2 3 4 6 8 10 9 12 15 19 21 21 20 19 19 18 17 15 14 18 25 30 32 33 36 41 40 40 42 42 42 43
15 12 5 5 7 7 3 5 6 6 4 2 3 4 6 7 10 5 13 12 14 18 20 22 23 24 22 18 17 17 17 17 22 28 30 30 32 33 36 40 43 41 39 40
16 13 9 5 7 5 6 7 2 4 7 7 8 6 7 7 5 10 11 15 16 18 18 21 22 22 23 26 23 21 20 16 19 23 27 27 27 29 31 33 33 33 34 33
14 12 14 11 8 6 4 5 1 11 4 8 8 8 9 7 10 16 17 17 16 16 18 19 18 24 29 29 24 16 12 9 10 14 18 19 22 24 25 25 25 26 29 35
14 11 9 13 12 14 5 4 8 8 10 9 10 11 11 11 11 12 13 14 15 16 18 20 17 21 25 25 23 15 14 14 16 18 18 21 25 26 27 27 29 28 31 30
9 12 7 10 10 7 9 13 10 8 9 11 11 11 11 11 11 12 13 15 15 16 16 17 16 17 20 23 23 20 15 13 10 11 14 20 21 23 24 25 25 24 24 24
8 13 3 7 7 9 12 11 9 9 9 9 9 9 9 10 10 11 11 13 14 16 17 18 17 19 19 21 22 21 15 12 7 2 6 10 14 15 16 15 16 15 12 13
3 10 8 7 5 11 10 9 9 9 10 9 8 8 8 9 9 11 10 12 13 14 15 17 17 17 18 20 21 20 21 12 4 7 11 12 15 15 16 15 14 11 9 5
4 1 3 0 11 8 8 6 9 8 8 9 8 8 9 10 9 9 9 11 12 13 14 13 14 15 16 17 17 18 16 13 7 10 15 18 18 17 19 19 22 22 19 17

GFSCGP_850_spd_066.txt.gz
Wind_Speed
16 6 16 20 17 21 15 18 24 23 20 16 17 16 16 17 18 18 21 17 15 19 16 18 17 16 17 19 20 18 18 17 18 15 16 12 17 37 39 38 43 48 39 39
9 17 20 20 18 20 20 19 23 25 16 1 9 13 15 16 12 15 19 20 19 16 20 21 20 19 21 21 19 21 23 20 18 16 16 17 23 34 38 39 41 46 41 45
15 14 13 19 22 21 19 20 20 23 20 14 10 15 17 19 18 18 21 13 15 21 23 26 23 22 21 22 21 20 23 23 17 19 21 22 25 33 37 36 37 39 44 42
11 18 17 19 23 19 19 19 23 23 19 12 14 12 15 17 19 17 17 17 17 17 22 30 27 25 25 23 23 18 18 25 22 24 27 25 34 39 43 43 39 39 39 42
4 10 18 17 23 18 17 12 19 22 17 16 19 11 12 14 15 17 19 20 26 25 20 28 29 27 25 23 25 19 19 22 24 27 30 28 35 35 41 44 44 42 40 41
16 10 10 22 23 19 18 6 24 21 14 14 18 16 12 14 14 14 9 11 13 27 23 22 27 26 25 25 27 25 24 18 28 28 31 33 34 36 44 51 49 45 44 45
15 19 22 20 16 16 18 13 8 7 12 11 16 14 12 14 9 3 4 6 8 17 20 20 28 28 28 28 28 22 27 23 25 32 32 31 34 37 41 49 52 50 49 49
2 5 18 10 15 14 13 16 8 6 4 14 19 9 15 17 15 3 2 3 6 16 18 19 25 27 29 31 29 26 28 27 27 32 36 34 34 34 40 41 48 54 54 57
4 6 12 14 13 17 18 20 25 17 12 8 9 18 11 5 5 6 8 9 10 11 19 19 21 28 28 31 30 28 28 25 28 31 35 38 36 37 38 40 44 50 54 52
9 11 14 16 17 18 17 13 12 6 4 6 4 8 2 9 9 7 5 4 4 5 8 25 24 28 30 29 28 29 27 28 27 29 33 37 40 39 38 39 39 45 49 50
11 12 7 13 15 17 14 15 12 12 11 4 1 5 4 5 7 9 10 7 5 7 5 15 22 26 28 26 27 29 29 26 30 28 28 36 40 40 43 42 41 42 41 48
8 7 10 14 8 4 14 17 15 6 13 12 9 1 5 5 11 12 8 20 17 11 10 5 9 18 26 24 25 28 28 29 29 28 27 28 36 40 43 41 40 41 41 38
11 5 9 6 9 8 14 17 19 13 4 4 5 5 6 8 7 10 15 20 18 20 17 7 7 12 20 20 23 24 26 27 28 28 29 30 30 36 42 40 41 42 43 41
12 9 11 9 7 5 11 16 19 18 7 7 8 8 7 7 11 7 10 9 15 15 22 27 24 3 10 15 20 23 24 26 26 29 31 33 34 34 33 39 41 42 44 41
3 7 9 14 16 17 21 14 14 12 14 5 6 12 8 12 10 4 7 15 19 20 21 22 25 25 26 5 14 18 22 26 28 30 34 36 35 36 34 35 38 39 42 45
3 3 11 6 12 11 16 12 13 21 20 12 8 12 10 11 9 10 15 19 19 16 16 19 21 22 24 24 19 15 14 23 26 31 35 34 36 37 41 42 41 40 42 44
4 5 5 4 12 11 10 11 16 13 12 12 6 9 4 10 1 10 18 17 16 16 16 18 20 21 21 17 15 15 16 13 23 30 34 35 36 37 40 41 41 45 47 45
12 4 4 4 4 4 4 3 14 6 4 6 5 3 5 9 10 21 19 17 15 16 17 17 17 14 18 19 18 17 15 14 15 18 31 33 34 37 38 38 42 44 43 43
14 10 3 4 4 4 5 4 6 13 5 11 12 7 8 7 9 16 18 17 18 19 18 18 15 14 19 22 23 21 15 13 17 20 15 26 33 35 36 38 40 40 40 39
18 14 9 5 5 3 2 11 9 6 7 10 8 9 7 5 9 8 13 17 17 18 18 19 16 18 23 26 24 22 18 16 16 14 16 19 15 35 35 37 38 38 37 37
16 14 15 10 6 7 5 3 2 8 5 10 13 14 16 8 13 16 18 17 17 18 18 18 18 20 22 24 24 23 24 24 24 26 23 18 16 17 31 33 33 32 35 36
15 11 8 11 8 12 6 1 3 12 14 13 15 12 11 14 15 16 17 17 17 18 19 20 20 21 23 24 23 23 24 24 25 23 23 23 20 15 16 22 28 30 33 33
8 12 7 10 9 7 15 20 18 18 16 12 12 12 11 12 13 14 14 16 16 18 18 19 18 18 21 23 25 24 23 25 23 19 16 16 14 14 13 12 15 19 22 24
7 7 11 5 11 13 20 19 18 17 16 13 11 12 12 12 13 12 12 14 15 16 17 18 18 21 22 22 21 20 21 21 20 17 12 14 14 7 0 4 7 9 12 12
3 2 3 5 10 16 17 18 17 18 14 13 13 14 15 13 14 12 13 14 14 15 15 15 16 16 18 18 18 17 18 17 16 15 15 12 20 25 26 23 18 16 17 10
0 6 2 4 4 12 21 17 17 17 14 13 13 13 14 14 12 9 10 10 11 12 12 13 15 17 19 19 19 19 18 16 16 19 21 20 19 17 25 28 33 35 31 29

GFSCGP_850_spd_069.txt.gz
Wind_Speed
8 4 6 6 8 12 16 15 13 11 12 13 20 23 14 17 14 13 23 25 21 37 32 29 28 21 15 15 16 16 19 19 18 15 19 21 21 22 32 38 40 40 40 37
4 7 7 9 12 16 18 18 17 16 16 12 19 17 10 7 8 17 26 29 29 34 35 35 30 24 19 19 20 19 20 21 21 16 17 17 20 24 31 34 42 43 42 40
7 6 10 13 10 17 18 15 16 15 19 21 18 15 4 6 9 19 18 37 35 34 40 38 33 28 22 22 24 20 21 21 21 19 18 16 15 18 27 29 42 46 48 40
3 5 11 13 17 13 13 17 13 15 12 11 17 10 7 9 16 15 18 21 38 32 42 40 36 32 26 24 24 22 20 22 20 23 22 21 25 32 32 31 43 44 48 41
4 5 10 14 17 9 9 16 9 9 10 12 19 5 6 9 8 16 15 24 32 34 45 44 40 34 27 23 24 23 17 21 24 23 24 24 25 31 34 35 42 45 48 42
6 7 3 11 10 9 14 13 10 8 3 5 12 7 6 8 11 7 7 26 35 33 45 43 39 33 26 23 23 24 22 17 27 27 29 27 27 31 38 40 45 49 49 45
7 16 8 8 8 11 10 3 2 2 4 3 8 12 13 11 13 12 4 17 24 35 39 42 39 35 31 27 25 26 24 22 23 31 32 30 28 32 39 42 44 47 44 44
4 4 11 12 14 8 12 10 3 6 3 2 8 6 9 15 19 17 10 10 13 28 38 41 39 37 34 29 24 24 25 23 22 30 35 34 31 32 38 40 43 44 45 47
3 5 7 10 8 10 5 7 16 6 6 1 5 7 22 15 16 7 8 10 17 30 36 39 39 38 35 31 28 25 25 25 24 25 33 36 36 37 37 38 40 45 46 46
4 8 7 11 16 14 7 3 4 4 3 4 5 11 2 10 7 5 6 7 11 23 28 37 40 39 36 31 27 26 23 25 24 24 29 35 36 36 36 36 36 39 48 48
3 3 7 5 8 11 7 5 5 3 7 2 2 4 3 10 15 13 14 23 25 29 24 29 38 39 36 32 28 25 23 24 26 26 27 32 36 36 38 39 39 39 39 48
4 4 5 11 9 3 4 11 12 2 1 4 2 5 6 6 11 13 12 20 32 36 40 7 30 36 34 32 28 26 24 23 24 23 26 26 33 38 40 42 42 39 40 42
1 3 4 7 3 5 7 17 10 11 6 4 1 4 8 11 10 15 15 27 30 34 37 40 24 11 31 28 25 25 23 22 22 24 26 27 28 34 41 43 42 42 43 42
4 3 5 5 9 4 6 9 14 14 3 3 6 1 5 8 10 11 15 21 27 30 34 33 36 27 14 7 13 23 23 22 22 23 26 30 30 30 30 37 44 44 44 45
3 2 3 10 14 15 12 10 13 15 15 4 6 7 5 6 9 9 20 24 26 27 31 29 29 24 23 17 10 7 5 26 27 27 29 29 30 31 30 30 33 41 46 46
3 3 3 7 7 11 11 13 9 11 11 16 14 7 1 10 7 14 16 23 24 26 28 27 25 26 25 21 16 13 12 12 6 35 35 30 32 33 34 34 33 34 40 44
2 4 4 3 6 9 5 7 11 9 11 8 7 5 9 8 6 12 20 22 25 26 27 22 24 23 22 23 22 19 16 13 9 7 18 30 37 35 37 38 38 38 38 40
5 1 2 4 5 3 4 17 8 9 6 7 1 3 14 19 10 23 26 28 27 29 22 18 18 18 21 20 18 18 17 17 14 12 12 7 20 30 35 43 42 43 43 43
8 5 1 2 3 10 11 6 3 13 4 5 5 13 22 23 26 23 28 27 23 21 18 14 16 17 17 18 19 20 20 19 18 17 19 20 17 15 23 29 44 44 45 47
12 6 4 3 3 3 3 13 3 6 4 4 12 14 15 15 11 8 23 24 18 16 14 13 15 16 18 21 20 19 20 21 22 22 22 24 26 23 21 20 35 41 48 46
7 6 13 7 4 6 7 7 12 2 3 10 19 21 20 16 14 21 21 22 17 15 15 12 15 18 19 20 20 21 22 23 23 24 24 25 27 27 20 20 19 28 32 40
9 8 7 5 5 8 7 2 4 7 20 21 24 22 25 26 26 22 15 13 12 13 16 17 20 22 22 22 21 21 21 22 22 23 23 24 24 23 24 16 12 12 16 26
2 3 5 10 6 3 13 21 22 25 25 23 25 23 24 25 20 13 12 11 14 16 18 19 20 20 21 22 22 21 21 20 19 19 20 22 22 21 18 12 6 3 2 7
3 9 4 4 7 8 19 26 28 28 27 23 20 22 15 19 13 14 13 14 16 17 18 18 18 20 20 21 20 19 18 18 18 18 19 20 22 21 19 16 11 9 13 10
3 7 7 5 10 26 18 19 31 29 26 20 16 17 14 9 13 12 14 14 14 14 15 16 18 19 20 19 19 19 18 17 18 18 19 20 23 27 29 29 30 27 25 21
11 4 2 3 6 20 14 22 21 21 19 19 12 13 11 8 11 10 14 14 14 15 16 17 18 18 19 19 18 17 16 15 16 19 20 20 21 23 26 29 33 33 31 30

GFSCGP_850_spd_072.txt.gz
Wind_Speed
4 2 7 9 8 6 5 8 9 11 12 5 8 14 18 18 25 19 24 26 32 44 41 35 29 25 22 19 17 19 21 21 21 18 18 22 24 23 27 27 33 39 40 38
1 8 9 6 7 2 4 9 13 13 15 7 8 15 17 19 13 21 26 29 36 36 35 37 32 30 27 22 19 19 20 22 20 17 17 26 25 26 26 28 33 40 41 41
7 4 7 6 8 9 5 7 9 16 19 11 8 10 8 14 8 14 23 34 32 37 41 40 37 35 32 26 23 21 18 18 21 20 16 20 24 24 27 30 41 45 44 39
6 3 5 5 8 11 14 6 8 16 9 6 5 5 7 10 11 8 11 20 29 36 41 45 43 40 35 29 24 21 19 18 21 21 21 22 23 28 31 35 38 32 39 40
4 4 2 7 13 10 8 8 13 13 3 3 4 4 6 7 13 11 9 18 25 37 44 48 48 45 37 31 27 24 20 16 21 22 21 23 21 20 22 27 33 38 43 42
5 2 4 4 6 13 8 4 10 6 3 4 6 4 6 5 6 8 6 19 19 37 47 49 47 43 38 31 27 25 23 18 18 23 22 23 21 20 21 27 29 31 40 42
2 7 3 2 2 6 7 0 2 5 4 5 7 7 13 8 13 11 11 24 24 39 45 44 46 44 39 34 30 28 25 22 18 24 23 24 24 22 23 26 28 31 40 46
3 5 10 7 7 6 10 6 2 4 3 1 5 5 5 6 13 21 24 28 18 38 45 50 49 45 40 36 32 29 27 25 21 22 27 28 27 26 24 26 30 36 44 46
3 4 2 8 7 11 4 7 5 2 0 1 4 5 6 10 15 18 14 15 26 39 43 48 47 42 40 37 32 29 26 25 22 20 26 30 31 30 28 30 33 37 42 48
1 3 6 5 5 7 6 1 3 3 2 4 4 2 3 10 17 8 13 10 15 10 30 42 43 43 40 36 31 27 23 21 21 20 23 29 33 32 30 32 38 39 40 45
1 4 4 6 6 9 4 3 3 2 3 1 2 2 10 14 12 10 12 20 22 15 21 31 40 40 38 34 30 26 24 22 21 22 20 26 31 36 34 33 37 39 40 42
1 3 3 7 6 11 10 7 5 3 5 5 1 3 10 14 17 15 13 23 32 34 12 19 16 19 27 31 31 26 24 22 18 18 19 22 25 33 38 39 36 37 38 38
3 0 3 4 5 4 4 9 12 8 1 4 2 3 2 14 10 20 16 25 31 38 38 28 20 16 11 9 18 20 22 22 18 16 18 20 23 24 33 37 37 37 37 38
4 1 2 3 1 1 6 5 5 11 3 3 6 3 6 10 10 14 16 22 32 34 37 36 32 29 23 16 10 8 12 17 22 24 24 23 24 24 25 26 32 40 41 40
3 2 1 5 11 11 12 13 12 15 16 6 3 4 9 4 4 6 11 17 29 33 34 33 30 27 24 20 16 10 5 7 14 21 27 30 29 29 29 30 30 30 33 40
3 2 3 4 4 6 13 13 13 12 17 17 17 13 4 11 8 12 9 17 26 29 28 26 23 26 25 22 16 12 7 4 2 6 14 17 24 30 34 34 32 33 35 36
1 1 3 4 7 11 6 7 11 7 15 18 8 4 8 8 8 8 17 21 23 23 20 21 22 22 22 21 18 17 14 7 3 2 2 15 18 18 25 30 35 40 41 39
4 2 2 3 6 4 4 17 12 14 12 8 5 10 14 20 17 17 19 25 20 20 21 21 20 20 20 20 20 18 17 15 12 10 6 5 6 12 16 22 28 35 38 43
8 5 1 2 2 10 15 6 7 3 4 3 15 8 23 30 27 20 20 22 21 18 16 16 16 18 18 19 20 17 16 16 16 17 17 16 14 11 13 13 19 27 33 38
4 3 4 2 2 4 3 6 7 6 3 6 15 19 19 15 5 7 14 17 19 16 16 17 17 16 15 16 15 14 17 18 19 20 19 19 18 17 16 16 17 19 24 33
3 1 9 5 4 7 7 5 5 2 1 3 20 19 16 7 13 20 14 17 14 13 14 13 14 17 19 18 17 16 17 18 19 19 19 18 17 16 16 14 16 18 18 18
5 5 3 4 4 8 8 6 8 6 13 14 23 27 31 29 22 18 15 14 12 12 13 15 17 19 18 18 17 18 19 19 17 17 17 18 18 16 13 12 11 10 8 7
2 5 2 6 6 2 16 9 22 32 20 13 23 26 29 23 17 15 16 14 14 13 13 13 15 15 15 17 16 16 16 15 16 17 18 20 19 18 16 13 14 14 13 10
3 6 4 3 3 9 20 20 23 26 28 24 22 25 21 21 16 16 14 13 13 13 13 13 13 15 17 16 16 17 16 15 14 15 17 19 21 22 22 22 22 21 20 20
3 7 4 4 11 21 20 20 15 23 24 23 20 19 17 14 15 13 14 13 12 13 13 13 16 18 19 17 17 15 15 14 15 16 17 19 21 22 24 26 27 26 26 23
6 4 4 3 9 15 11 15 13 19 18 15 16 17 15 12 14 13 16 14 13 15 15 17 18 19 20 20 20 19 16 15 15 17 18 19 20 21 23 25 27 26 25 25

GFSCGP_850_spd_075.txt.gz
Wind_Speed
2 3 8 8 7 6 6 5 5 5 8 6 8 13 13 9 14 14 24 28 31 29 36 44 38 33 29 27 22 19 19 21 20 20 18 15 16 9 16 14 26 35 31 36
1 8 8 6 7 7 8 9 9 6 7 10 8 12 14 14 9 20 23 29 32 27 29 38 38 36 33 30 24 21 21 21 20 21 18 16 18 13 17 23 23 21 27 32
7 6 1 6 8 10 9 7 4 7 9 16 4 13 15 13 9 18 26 31 28 29 33 37 40 40 36 33 27 22 22 21 20 21 17 18 20 19 22 24 22 29 33 37
6 4 5 6 7 6 10 6 9 5 6 9 2 7 9 8 8 5 14 15 22 27 34 40 43 43 40 35 28 22 21 19 19 19 19 18 25 27 27 28 26 28 34 37
5 5 4 6 11 5 5 4 4 6 8 7 8 6 7 5 9 10 8 8 15 29 38 44 47 47 43 37 31 26 22 20 18 18 19 17 24 25 24 25 28 31 36 39
5 0 5 6 3 8 1 3 4 6 7 7 10 8 4 5 9 5 5 7 12 24 37 45 44 45 43 37 32 28 25 21 18 18 21 20 22 23 27 28 31 29 27 40
2 5 3 3 2 1 8 2 2 4 6 6 6 9 11 8 8 12 13 19 23 16 24 37 43 45 43 41 35 30 28 25 20 19 20 22 20 18 19 22 25 30 31 28
5 4 8 6 7 6 11 5 3 4 3 3 5 5 5 10 13 7 20 27 30 24 26 41 49 48 45 41 36 33 30 27 23 20 20 21 21 20 18 19 26 27 32 34
5 4 2 6 4 5 3 8 0 3 3 1 4 5 5 11 13 14 18 21 16 18 25 42 46 48 43 41 38 34 29 28 24 20 20 22 22 22 21 18 20 27 31 33
4 2 3 2 5 2 4 1 2 3 3 2 4 5 3 11 14 15 16 18 26 10 23 31 39 44 40 41 36 32 27 25 22 20 20 21 22 24 22 20 20 21 24 26
2 3 4 5 4 7 4 3 3 2 2 2 3 0 5 9 12 13 15 22 24 3 16 17 19 25 32 32 33 29 25 23 22 18 18 19 22 24 24 23 22 23 23 25
1 3 3 8 5 10 5 5 4 2 3 3 0 3 5 8 13 17 16 19 23 26 25 19 14 12 15 21 27 25 22 19 17 14 17 16 18 20 25 25 24 24 27 29
3 2 3 2 4 4 2 4 7 4 2 4 2 1 3 10 14 22 16 19 23 26 36 33 30 26 20 13 11 11 13 14 13 12 14 14 15 17 19 24 26 26 26 30
3 3 1 2 1 3 5 7 6 8 3 2 5 0 2 5 9 13 17 18 23 28 32 35 33 30 28 21 16 11 9 9 10 12 13 15 15 17 18 18 19 21 25 30
3 2 1 6 8 6 10 14 12 12 9 5 3 7 7 9 8 8 12 15 22 26 30 30 29 28 26 23 18 12 7 7 10 10 9 11 15 18 21 23 24 24 26 28
1 2 1 4 7 8 13 13 14 13 13 8 10 19 2 7 15 12 8 14 18 20 19 24 26 26 24 21 17 13 11 10 6 5 11 15 17 18 19 20 22 26 30 31
2 3 2 3 5 9 7 2 9 10 10 8 8 9 6 7 5 18 17 17 12 11 18 20 24 26 24 22 16 15 12 8 6 6 5 6 9 10 14 20 23 25 28 29
4 4 3 3 4 4 5 16 5 8 12 12 8 6 5 16 21 17 15 21 14 14 21 19 21 22 20 17 17 14 12 10 8 6 4 1 2 4 7 11 15 21 25 29
6 4 1 2 2 9 12 3 7 8 4 3 4 13 21 29 27 19 16 17 15 14 15 17 18 17 16 16 15 13 11 11 9 9 8 7 5 5 4 5 10 12 14 19
5 3 3 2 1 4 4 10 5 5 5 4 4 17 18 18 6 2 10 11 14 16 17 16 16 14 14 15 13 12 12 12 12 13 12 12 10 9 8 8 9 9 9 11
2 1 8 3 4 7 9 12 17 1 2 11 8 28 18 4 8 23 16 14 13 13 15 13 13 14 15 13 13 14 14 16 16 15 13 12 12 12 11 10 9 10 9 9
4 4 3 2 3 9 8 11 4 2 10 15 13 21 31 31 25 18 14 13 11 12 12 11 11 12 12 11 11 13 14 16 15 15 14 14 15 15 14 12 10 8 8 7
2 4 2 5 4 4 10 12 16 6 20 23 19 22 24 30 21 18 14 12 10 11 11 10 11 12 12 11 12 13 14 12 13 12 14 15 15 15 15 13 13 13 12 12
4 6 2 1 6 7 12 18 21 18 20 22 24 21 14 19 16 17 14 12 11 11 12 11 12 15 15 14 13 14 11 10 10 10 12 14 16 16 17 18 19 20 20 20
3 6 4 5 6 13 15 16 17 16 18 21 18 17 17 16 15 13 13 11 10 11 12 13 15 16 16 13 13 12 12 9 10 12 14 16 17 19 20 21 22 21 22 19
6 3 3 2 3 12 10 12 13 16 18 14 16 17 14 12 14 13 15 13 14 15 15 16 17 16 17 16 15 14 12 12 12 15 16 17 17 18 19 19 19 18 17 16

GFSCGP_850_spd_078.txt.gz
Wind_Speed
4 4 8 8 7 4 3 4 9 2 7 6 14 13 11 10 11 13 25 28 27 26 29 25 38 40 36 31 29 26 20 19 20 20 19 18 15 13 11 16 19 28 32 34
0 7 6 6 5 5 5 8 10 8 10 8 8 16 16 13 8 17 23 29 31 28 31 28 36 40 37 34 33 27 22 20 21 20 18 18 14 12 12 11 10 33 28 34
6 4 2 6 5 5 6 7 9 11 5 10 8 21 11 7 8 16 28 29 28 28 32 30 34 39 40 38 35 30 23 21 22 20 18 15 13 13 14 15 10 15 20 32
6 5 7 4 5 6 5 7 10 10 5 7 3 10 4 7 13 8 18 20 23 23 24 27 36 34 42 40 37 29 23 21 22 20 18 17 17 18 19 19 19 17 21 21
5 5 3 4 6 4 6 2 3 3 5 5 4 5 4 4 6 9 9 18 18 18 23 30 38 31 42 41 37 30 25 21 20 18 16 14 17 20 21 21 19 21 23 25
4 2 5 6 2 4 0 1 5 3 2 6 12 7 3 4 9 6 6 8 17 13 19 25 29 31 40 41 36 31 27 23 20 18 14 15 14 19 21 20 20 20 20 23
2 4 4 3 2 3 3 2 3 2 3 4 2 6 11 10 11 6 5 12 16 14 12 19 25 32 40 42 38 35 30 25 20 17 14 15 15 17 20 20 19 21 23 23
4 2 7 4 6 5 5 5 3 3 2 3 4 5 3 7 11 13 10 14 16 14 14 25 26 31 40 43 40 36 32 25 20 17 14 14 16 14 14 15 17 21 24 24
4 4 2 4 3 7 3 6 1 3 3 2 3 6 2 17 19 18 18 22 21 21 12 26 30 33 39 42 42 37 31 23 19 16 14 14 15 16 16 12 12 15 17 21
3 2 1 2 4 1 3 4 2 2 3 2 4 1 4 13 17 16 16 17 26 15 3 11 23 28 31 32 33 31 28 21 18 16 13 13 15 14 14 13 11 13 17 19
4 2 1 4 5 6 3 2 3 2 2 1 3 1 4 10 12 14 15 20 24 21 10 10 14 18 23 25 24 25 24 19 17 14 11 10 11 13 14 13 12 12 12 18
0 3 3 7 3 7 6 3 5 3 2 2 1 4 3 5 11 14 17 22 23 24 22 17 15 17 22 23 21 21 19 15 12 10 8 9 7 10 13 14 15 14 14 13
2 2 2 1 2 4 4 2 3 4 2 5 2 2 1 7 14 18 19 24 20 19 25 29 28 23 21 19 18 14 11 9 9 8 6 8 7 6 8 9 11 14 15 15
1 3 2 3 2 1 3 7 8 4 3 2 5 5 2 1 5 12 20 21 20 20 21 26 29 28 27 26 21 17 14 12 9 7 6 6 6 5 6 7 8 8 9 13
1 3 2 1 3 3 3 8 9 9 11 6 7 7 6 4 6 1 10 14 16 20 22 23 23 23 23 23 21 17 13 10 9 8 9 10 9 7 7 9 11 12 12 13
4 2 2 3 3 4 5 12 10 13 12 13 14 17 9 8 12 11 11 9 15 17 19 21 19 20 19 20 19 16 15 13 10 11 13 11 11 10 11 14 15 15 16 17
1 3 2 3 4 7 5 2 5 6 9 10 10 11 5 2 10 14 19 11 13 17 18 18 20 23 21 20 16 15 14 13 13 11 9 8 8 7 11 13 15 17 17 19
2 2 1 2 3 2 5 13 5 6 6 9 5 0 10 12 18 21 14 18 14 17 15 16 20 20 18 17 19 17 15 11 10 9 7 5 4 4 6 8 10 13 17 19
4 3 1 1 1 6 7 3 6 9 17 7 5 13 17 22 24 17 12 14 16 15 14 15 17 16 13 18 18 16 14 13 11 11 10 8 5 3 1 1 2 6 9 10
5 3 3 2 1 3 5 3 15 6 5 4 3 13 16 17 4 3 11 14 15 14 13 11 10 10 11 15 15 13 13 11 12 12 11 9 8 7 7 7 5 5 4 4
3 2 4 2 2 6 6 12 14 1 4 13 11 18 18 4 8 19 16 16 14 12 12 11 10 11 12 12 12 14 15 17 17 14 13 11 11 11 12 11 9 8 7 6
3 3 2 3 3 7 14 9 4 7 10 12 25 10 24 30 31 23 17 15 12 12 12 10 12 14 13 13 12 15 16 18 16 16 15 15 15 14 13 11 11 11 11 11
2 3 2 5 3 3 8 7 9 8 9 9 23 19 22 25 24 20 15 14 12 12 12 11 13 13 14 13 13 15 16 14 14 13 15 16 15 15 14 13 14 13 12 13
3 8 2 1 2 4 6 8 11 15 19 14 15 22 21 23 20 20 15 13 12 11 12 12 13 15 15 12 11 13 12 13 13 15 17 17 18 17 18 18 18 18 19 18
2 6 5 4 3 6 9 8 9 15 16 17 17 19 20 19 17 15 14 11 11 12 13 14 15 16 16 14 13 13 13 12 13 15 16 16 16 17 18 19 19 19 20 17
4 3 2 1 10 5 9 8 11 19 20 17 17 19 19 15 16 13 15 14 14 16 15 16 17 17 18 16 16 15 15 14 14 14 15 15 15 16 16 15 15 15 13 11

GFSCGP_850_spd_081.txt.gz
Wind_Speed
5 7 13 16 11 13 9 11 13 10 8 14 17 22 20 18 17 18 20 21 21 24 25 23 21 24 26 31 32 31 29 25 21 21 22 23 22 21 20 21 22 24 32 39
1 11 11 7 11 9 10 12 13 10 8 9 14 23 20 18 21 25 26 23 24 28 30 29 25 25 27 31 35 33 30 26 22 22 21 21 19 17 15 16 15 22 25 31
10 4 2 11 6 8 9 10 9 10 13 12 17 20 18 16 22 25 23 23 24 26 31 29 29 29 28 32 38 35 33 27 23 21 19 19 16 15 14 16 14 15 18 31
7 8 8 6 7 8 7 6 9 7 6 4 6 10 11 16 17 16 21 22 23 26 27 30 32 32 33 34 37 36 33 27 23 22 21 20 18 16 17 14 11 6 7 12
6 5 6 12 13 8 5 2 4 6 8 7 9 7 5 6 12 15 16 22 23 23 22 28 32 31 29 32 37 38 33 28 23 23 19 19 17 16 17 17 14 9 12 15
5 1 4 4 3 6 3 2 6 5 4 4 11 12 7 6 5 9 10 12 11 15 15 15 20 23 26 29 37 38 33 28 23 21 17 16 16 17 20 19 18 17 18 19
4 6 2 3 3 1 3 1 2 1 3 4 1 9 12 15 12 11 10 16 18 16 11 11 18 23 27 31 36 36 34 30 24 19 15 15 16 15 19 19 20 19 17 20
6 3 8 5 10 4 6 5 3 3 2 2 1 6 1 8 11 15 15 17 18 19 14 13 17 22 27 30 36 37 35 31 24 19 15 14 16 14 16 16 16 16 17 19
4 2 2 4 2 4 3 5 1 2 3 4 4 4 10 13 17 19 21 23 26 27 19 13 16 20 22 25 30 35 36 29 22 19 15 16 17 17 15 14 14 13 15 18
3 1 1 3 3 3 3 4 3 3 3 4 3 3 4 14 18 19 19 21 24 25 19 8 10 18 19 22 27 33 31 27 21 17 13 15 17 16 14 11 8 9 10 11
3 2 1 5 6 8 4 2 3 1 3 2 3 1 4 9 11 13 15 20 21 21 18 7 5 12 15 22 26 29 27 26 21 17 12 11 15 16 14 12 9 7 8 12
2 3 4 6 2 6 5 6 5 2 2 3 1 4 3 6 10 12 13 17 19 18 17 13 9 14 18 21 24 26 27 23 20 16 12 11 10 14 14 13 13 12 10 10
7 1 3 4 3 5 2 1 1 4 3 4 3 2 2 2 6 4 11 13 17 19 20 19 19 17 19 18 20 21 22 22 20 16 12 11 9 9 11 10 11 11 11 11
7 1 5 3 5 3 3 4 3 3 2 3 7 14 13 3 3 5 8 11 13 16 17 20 22 23 26 25 24 23 20 17 16 14 11 9 7 6 8 9 9 8 8 9
2 1 3 1 2 2 2 6 7 7 8 7 10 14 16 12 6 9 10 13 15 15 16 18 19 22 23 24 22 22 20 19 17 16 13 11 10 9 9 8 8 8 7 6
2 1 2 3 3 2 6 10 8 8 7 14 15 19 15 18 5 12 13 18 13 12 13 15 17 18 21 21 20 19 19 19 17 15 12 10 9 10 11 12 12 12 13 13
2 4 1 3 2 7 3 4 5 3 7 7 8 15 11 4 5 12 15 19 19 11 11 18 20 19 19 20 18 20 20 16 16 15 12 10 7 7 10 11 12 14 15 15
6 2 2 3 2 1 4 7 5 6 6 13 14 7 3 11 16 15 11 17 21 13 15 18 20 20 23 20 19 19 18 16 11 10 9 7 7 5 6 7 8 9 9 11
9 2 1 2 1 7 1 4 6 6 9 17 15 3 9 17 19 15 13 16 20 17 19 18 19 21 21 19 18 18 15 17 14 8 7 8 8 7 6 6 4 3 3 3
6 2 1 2 2 3 3 9 13 7 3 18 19 5 9 12 4 4 9 15 18 18 16 17 18 18 19 19 17 14 18 17 16 14 12 11 11 10 10 10 9 9 8 8
3 2 6 4 3 4 6 16 11 1 6 19 17 20 15 5 8 19 17 19 19 18 15 14 14 14 14 14 15 17 19 21 20 17 15 15 15 14 14 13 12 12 12 11
2 4 2 3 3 4 14 5 5 8 5 9 12 14 26 27 26 22 19 20 18 17 16 15 15 16 15 15 13 16 17 19 16 15 15 15 14 14 14 13 14 13 12 11
1 2 1 4 1 3 5 3 4 7 6 6 10 14 26 28 23 20 21 20 18 17 16 15 16 16 16 15 16 19 20 17 17 17 18 18 17 16 16 16 16 16 16 16
2 6 1 3 4 7 7 7 7 7 12 12 13 12 19 26 22 20 18 17 16 15 15 14 14 16 16 15 16 18 17 16 17 20 21 21 20 19 20 19 19 19 19 18
2 6 4 4 4 3 14 12 8 9 10 13 15 16 16 19 17 17 17 16 15 15 15 15 16 17 17 17 18 17 17 16 18 20 21 20 20 20 19 19 19 18 18 16
3 3 2 2 5 3 7 8 7 12 14 14 15 16 13 14 16 14 17 16 16 17 17 18 19 19 19 18 19 19 18 16 16 17 18 18 17 17 17 16 16 16 15 13

GFSCGP_850_spd_084.txt.gz
Wind_Speed
19 11 15 17 15 16 13 15 17 17 17 20 22 22 19 20 25 23 23 24 23 22 20 21 17 13 18 21 24 27 30 29 29 26 23 23 21 23 25 27 28 27 28 30
8 17 17 13 13 16 18 17 18 16 13 12 18 24 23 24 22 26 26 26 24 21 24 23 21 16 18 21 24 29 32 31 31 26 23 24 23 20 19 19 22 26 28 30
16 1 5 12 14 15 16 15 14 15 15 18 19 23 10 5 15 22 27 31 28 24 24 24 25 22 19 23 26 30 33 33 31 25 23 18 18 18 19 19 20 21 23 27
13 15 12 10 13 15 12 9 11 11 9 7 4 8 11 10 8 10 16 20 25 27 25 25 25 26 24 24 25 29 32 31 30 26 23 18 17 19 15 19 17 14 17 20
5 7 9 15 17 10 8 4 7 9 11 12 15 8 5 6 4 9 6 12 19 24 25 23 22 27 24 23 26 26 32 31 30 25 19 17 16 15 12 14 15 12 10 8
14 2 5 8 7 15 3 5 9 10 8 8 15 10 3 5 11 11 12 14 10 8 13 16 19 21 23 23 26 30 36 35 29 25 20 18 17 15 15 16 16 12 8 7
14 16 12 8 8 7 9 5 3 6 5 7 4 7 10 9 9 10 12 15 15 15 13 12 10 17 22 27 30 34 37 35 30 24 20 19 15 14 18 18 17 18 13 13
5 6 14 12 17 10 12 11 5 6 5 2 4 7 5 4 7 13 14 17 20 21 19 13 8 14 19 25 28 33 36 35 31 24 21 19 16 15 19 20 20 17 14 16
4 2 2 4 5 11 7 8 4 5 11 7 9 6 7 6 11 14 19 23 23 25 24 19 5 13 17 22 26 32 34 33 31 25 21 21 18 14 19 20 18 17 15 15
5 7 4 7 6 6 7 5 4 5 4 5 5 8 3 6 11 14 17 21 23 23 24 19 6 8 13 17 23 27 25 30 31 25 22 20 20 16 16 16 16 17 16 17
11 10 6 8 10 11 6 4 5 1 4 4 3 1 5 6 8 12 13 15 17 20 23 20 7 4 11 15 21 29 26 27 29 25 22 20 20 21 19 16 13 12 13 13
7 6 12 12 3 7 6 6 10 4 5 2 5 3 7 4 4 7 5 11 13 14 18 18 8 6 12 16 20 27 22 24 25 23 22 19 19 20 20 17 13 13 10 13
8 8 11 7 6 5 8 5 2 1 1 6 3 1 4 1 5 4 4 9 11 13 15 15 12 15 13 13 17 21 25 24 22 21 19 18 18 20 19 18 16 15 13 11
14 8 12 9 3 6 8 9 8 4 3 3 7 14 13 10 11 1 3 8 9 12 13 15 13 16 17 20 22 22 23 24 23 20 17 16 14 14 17 17 13 13 13 12
5 5 2 1 2 3 4 5 6 8 8 6 10 16 16 14 12 2 6 8 11 13 13 15 13 12 16 20 23 24 25 24 24 23 22 20 18 16 15 15 14 12 11 10
7 3 3 4 4 1 5 6 7 9 9 11 12 14 6 16 7 10 8 8 13 12 12 12 11 12 13 16 19 20 23 24 23 23 22 19 17 16 16 18 18 17 15 14
5 2 4 1 5 6 6 6 1 1 2 7 10 15 15 6 11 11 9 10 13 14 14 15 14 13 13 15 15 18 20 21 21 21 20 18 16 15 15 15 15 15 14 14
6 9 1 1 4 3 7 1 6 4 8 14 13 14 11 13 15 18 13 9 11 16 18 16 16 17 17 16 17 19 20 20 20 19 14 14 14 12 12 13 12 11 10 11
13 9 1 2 1 5 6 6 6 6 3 12 14 14 3 10 12 18 13 11 12 17 18 21 16 17 17 18 19 20 19 19 20 22 19 12 9 12 11 9 10 9 8 8
10 10 5 1 2 1 7 8 13 6 6 16 18 16 17 10 3 3 8 11 12 16 19 19 18 18 19 19 20 22 20 20 20 18 16 14 12 7 8 13 15 14 12 12
6 6 7 5 3 2 8 15 16 5 7 20 17 16 17 3 7 20 17 15 14 17 16 16 19 21 18 19 19 21 21 23 22 17 14 14 16 18 18 17 18 18 17 16
4 5 3 4 4 4 15 4 6 8 10 9 10 10 15 20 23 21 19 16 14 18 18 16 17 19 18 19 18 20 22 21 18 19 18 18 18 19 19 17 18 18 17 16
2 4 3 3 4 8 10 7 6 8 5 6 8 11 15 17 17 18 19 17 17 18 17 16 17 18 20 20 19 21 21 18 19 19 20 19 19 19 18 18 18 19 19 18
2 4 2 5 7 10 9 6 7 6 9 9 11 14 15 16 16 15 16 17 18 17 16 14 15 18 20 19 21 21 19 18 19 20 20 20 20 20 19 19 19 19 19 16
4 7 4 2 8 10 11 9 6 9 11 12 13 13 14 13 14 14 17 17 17 17 16 15 17 18 20 19 20 19 18 17 18 20 20 20 21 21 19 19 20 19 17 14
4 3 3 3 4 3 4 6 8 11 11 10 11 12 13 13 14 16 18 18 18 17 16 17 17 17 19 20 21 19 18 16 16 16 16 16 16 16 16 17 18 16 14 12

GFSCGP_850_spd_087.txt.gz
Wind_Speed
17 13 16 19 18 21 18 22 21 20 16 17 22 22 21 21 27 26 30 30 29 26 24 22 27 30 24 23 27 30 29 27 26 30 26 22 21 17 21 23 22 23 24 24
14 17 19 16 16 17 19 22 23 21 19 15 19 22 20 22 23 30 29 28 28 25 26 26 26 29 22 24 27 29 28 27 33 30 21 20 17 15 15 21 22 25 26 26
18 10 4 16 15 16 18 19 21 20 18 19 22 24 24 17 19 19 21 27 28 27 27 25 26 30 23 24 26 29 28 27 28 22 20 16 14 14 16 17 18 18 20 22
18 16 14 11 15 15 18 17 17 15 15 11 12 14 19 17 9 8 8 13 16 24 28 25 26 30 28 25 25 27 28 28 27 24 22 20 18 16 15 15 15 16 22 20
14 12 12 19 20 17 17 13 10 14 15 16 18 11 16 12 8 4 9 12 14 16 20 23 28 28 31 28 26 27 28 28 28 26 23 20 17 13 14 14 17 16 20 19
17 18 9 12 11 13 13 10 13 15 13 13 19 15 12 4 8 6 7 7 13 13 11 11 14 19 27 30 27 27 28 29 30 28 23 20 18 15 14 15 18 18 15 15
17 22 22 15 15 11 14 12 7 8 7 10 5 6 12 9 6 7 9 12 9 12 14 13 11 18 23 25 26 27 30 33 30 28 23 20 17 16 15 15 19 18 14 9
15 13 18 18 21 12 17 16 8 9 8 9 0 8 5 12 12 7 8 8 11 10 10 12 15 12 18 20 25 30 33 36 33 27 23 20 17 14 14 17 18 17 14 10
7 10 4 5 14 19 19 15 17 17 20 13 9 13 15 12 8 5 7 14 15 15 17 16 20 7 12 19 28 30 32 35 31 26 23 20 18 16 16 16 15 14 13 12
10 16 15 10 9 16 18 4 8 8 6 10 14 17 9 8 5 6 13 13 16 17 18 17 18 9 8 17 18 21 34 28 29 24 22 19 18 16 15 16 16 14 11 11
16 13 14 11 12 13 12 11 9 6 9 5 7 2 12 8 7 10 13 14 16 16 17 18 16 11 3 11 11 22 28 26 28 23 21 19 20 16 16 17 16 15 14 14
6 7 15 20 9 8 10 13 15 8 12 6 4 2 5 8 5 6 7 11 13 14 14 15 14 12 8 6 11 21 26 26 26 19 19 20 21 19 18 18 15 12 11 10
7 5 8 18 9 13 13 14 11 10 6 9 5 1 7 5 8 7 6 8 11 13 14 13 12 13 11 8 11 16 20 23 23 19 18 18 18 21 19 16 16 11 10 12
2 6 14 16 9 10 20 16 13 12 5 6 7 13 3 12 11 13 7 8 11 13 14 12 11 11 10 12 15 19 17 21 21 19 18 19 18 17 16 20 15 16 14 11
3 9 20 25 11 10 6 13 13 13 11 7 10 13 14 11 14 11 8 8 11 13 15 14 11 10 8 10 17 19 21 24 24 24 22 20 20 18 19 21 16 14 15 14
7 7 18 18 7 3 4 7 6 6 8 10 11 10 20 25 17 16 13 10 11 13 14 12 9 9 9 9 13 17 21 23 24 25 24 22 20 20 21 22 20 17 16 16
6 5 11 6 0 3 5 10 4 0 4 10 8 12 13 13 14 19 14 14 14 13 13 13 12 11 10 9 8 13 17 20 24 24 22 21 20 20 21 22 21 19 19 19
11 15 8 4 3 5 2 3 7 3 11 8 8 12 8 8 12 15 15 15 14 14 14 15 15 13 14 11 10 12 15 17 22 22 20 19 19 20 19 20 19 18 17 16
15 12 3 4 4 1 10 6 6 5 7 13 11 14 8 10 10 13 12 12 14 14 12 13 18 17 16 16 17 19 18 20 21 20 19 19 16 17 18 18 16 15 14 13
16 14 7 1 2 5 4 9 6 6 5 13 15 14 15 3 4 3 8 11 13 15 16 15 14 20 19 18 17 21 22 25 26 25 22 21 23 21 20 19 18 18 15 16
9 8 8 3 1 5 12 12 12 7 6 14 15 15 16 5 8 15 12 13 12 13 13 15 20 20 18 18 18 22 22 23 21 21 20 19 21 21 20 17 16 18 16 14
7 5 5 3 3 3 19 4 7 8 12 13 12 10 14 15 17 15 13 13 13 14 14 15 18 19 20 21 20 22 22 19 19 21 17 22 22 23 21 21 17 15 16 17
2 5 5 7 4 9 13 11 8 10 9 9 8 9 12 13 13 13 13 11 12 13 15 15 17 19 20 20 20 23 20 16 19 19 19 21 18 22 22 21 19 17 16 17
4 10 2 3 6 9 11 10 11 10 10 9 9 10 11 14 12 13 12 11 10 13 17 16 17 19 20 20 21 19 16 18 17 21 21 20 20 21 20 18 18 20 17 16
6 8 7 5 6 5 13 12 10 10 11 10 11 11 11 12 13 11 11 12 12 14 16 17 18 18 18 16 18 17 14 13 16 19 19 22 20 21 20 20 21 18 16 14
6 5 4 3 6 4 6 9 8 9 9 8 9 11 11 11 12 11 12 13 14 16 17 19 19 19 19 18 17 16 16 14 13 15 15 15 15 15 16 17 18 17 14 11

GFSCGP_850_spd_090.txt.gz
Wind_Speed
16 11 15 18 20 21 20 22 23 21 23 21 21 21 21 22 28 23 31 31 32 31 27 25 26 29 35 38 36 35 35 34 31 30 33 32 26 20 18 20 20 22 21 23
14 16 17 19 20 18 19 18 20 21 21 18 23 26 23 21 23 28 28 27 28 31 26 26 28 23 27 28 32 33 32 35 32 33 36 29 26 20 18 17 19 22 24 23
19 16 16 20 18 18 19 17 17 19 18 22 21 24 26 26 32 31 32 32 31 33 22 23 26 27 26 28 25 29 31 34 31 34 31 24 19 17 17 15 16 22 22 22
19 18 22 18 16 16 20 16 18 17 16 13 17 17 20 19 19 14 8 8 9 13 19 23 27 25 29 28 26 26 30 32 31 38 28 27 26 28 21 20 17 15 16 18
17 17 19 20 20 17 20 15 15 16 14 17 19 13 14 18 20 14 9 9 17 18 8 18 21 19 23 29 33 34 31 30 34 35 29 28 23 20 15 13 13 15 20 20
20 24 18 16 15 16 15 14 16 14 13 15 19 17 15 16 5 8 12 14 14 15 21 16 8 16 25 23 37 38 33 33 34 30 29 29 26 18 18 17 19 22 22 20
20 21 21 19 15 15 13 11 9 7 9 12 10 13 16 9 8 8 8 10 13 13 16 20 22 17 8 18 38 40 38 35 33 30 31 27 22 21 21 19 19 22 20 18
16 17 14 18 24 17 18 16 9 9 9 10 2 7 7 13 11 9 11 12 14 11 15 17 17 17 14 15 32 36 39 35 35 33 32 24 23 25 18 16 18 20 20 14
8 13 12 9 16 18 17 7 15 14 17 11 10 6 10 9 10 8 13 15 13 10 11 14 16 14 9 12 31 32 30 30 32 29 28 25 23 20 19 20 18 16 17 14
8 14 14 15 16 18 21 13 10 9 4 7 12 14 5 9 4 12 12 14 13 13 12 12 14 14 9 4 18 23 26 27 30 29 25 27 23 20 19 17 15 16 13 11
9 7 13 13 7 18 11 15 6 3 8 4 4 3 11 9 9 9 10 14 14 14 14 15 13 12 11 7 1 9 17 19 28 28 24 27 21 18 17 17 14 13 13 12
6 5 9 22 15 21 27 14 17 4 5 7 8 7 11 15 11 7 14 16 15 15 15 16 13 10 9 6 6 7 14 24 28 20 25 21 16 17 17 19 18 15 13 10
5 2 7 11 14 6 12 7 10 13 10 7 3 2 8 15 11 18 18 17 15 15 18 18 15 13 11 7 7 11 19 20 26 14 23 19 18 19 17 17 17 15 12 10
3 6 11 10 18 17 10 25 17 9 3 5 6 7 4 12 15 17 21 18 18 19 18 18 18 15 13 10 8 11 17 17 23 16 16 17 17 19 18 19 16 16 14 12
1 7 14 19 21 22 20 24 7 17 15 3 5 6 15 17 17 19 20 18 19 20 20 19 19 18 14 10 9 11 14 19 20 19 22 22 20 21 21 20 21 21 17 16
4 6 15 21 18 22 9 15 7 5 6 14 19 12 12 16 17 21 18 16 19 19 17 18 18 18 15 13 11 9 12 16 18 20 21 22 21 21 22 24 22 19 18 18
11 6 8 9 16 13 10 16 12 8 10 9 10 9 13 12 12 14 14 16 16 15 19 18 20 19 17 13 11 9 8 12 18 22 22 22 21 20 20 21 19 20 19 18
12 9 6 10 14 6 4 10 8 20 16 16 13 14 12 11 12 14 14 13 14 16 17 18 20 18 18 14 12 10 8 9 14 17 18 21 22 21 19 20 22 21 21 19
12 9 5 6 1 11 10 9 7 7 11 16 14 14 15 8 10 16 12 12 14 15 15 17 19 17 20 20 18 18 17 14 13 14 12 13 21 21 21 20 19 20 20 20
13 14 9 3 1 2 4 12 10 7 5 15 15 13 12 6 2 3 7 10 14 17 18 17 17 18 22 22 20 21 24 25 26 24 21 18 20 22 19 18 18 19 20 20
9 7 11 8 1 6 14 16 11 1 5 15 14 13 16 7 8 10 9 12 13 14 16 18 22 23 21 21 23 22 20 22 22 24 22 23 26 26 26 24 22 21 21 23
6 4 2 3 1 5 27 10 6 5 13 11 11 12 15 14 14 12 11 12 12 14 14 16 19 21 22 20 20 24 26 18 17 18 20 20 20 24 23 22 21 19 20 23
1 4 3 7 4 9 17 16 11 10 10 11 12 11 10 12 12 12 13 14 15 15 13 13 19 22 22 22 22 22 18 14 16 18 18 18 18 20 18 21 21 20 19 20
8 20 4 5 8 13 15 15 13 12 13 13 12 11 10 13 13 14 14 15 14 13 13 14 16 19 21 22 23 22 19 19 18 18 16 16 14 17 17 19 18 18 18 17
7 9 8 6 8 12 15 14 11 11 11 12 13 12 11 11 14 13 14 13 13 12 13 14 17 19 18 15 16 17 15 16 18 19 19 20 19 17 17 18 18 16 16 13
8 5 5 4 10 5 10 9 9 10 11 10 12 13 10 10 13 12 13 12 12 13 14 16 17 18 19 18 17 15 14 14 13 15 16 16 16 18 18 17 16 16 14 12

GFSCGP_850_spd_093.txt.gz
Wind_Speed
13 4 8 11 13 16 14 16 17 11 8 12 16 14 15 14 23 20 24 28 32 38 38 34 30 28 31 38 39 39 38 49 45 39 33 30 32 26 23 21 19 20 17 21
7 10 13 15 16 15 16 17 12 9 8 8 15 20 13 13 13 25 28 31 38 36 37 31 34 35 31 35 41 36 38 51 45 39 34 31 30 27 21 22 20 21 20 23
12 11 13 16 14 15 15 10 9 12 7 9 12 20 16 17 24 32 38 40 45 33 34 33 34 35 30 27 42 35 36 49 44 40 35 31 28 25 23 25 22 24 22 24
11 10 16 18 14 14 14 7 11 12 8 8 3 15 11 14 21 20 24 16 9 10 7 18 37 28 29 25 27 31 42 50 45 38 35 35 37 36 34 27 20 22 24 25
7 9 10 14 14 13 15 8 13 5 9 8 8 10 14 14 17 17 7 10 17 16 11 13 13 5 12 30 27 32 40 45 38 36 33 29 35 33 29 21 19 16 18 19
12 21 10 11 11 6 5 7 6 5 5 12 16 11 17 11 12 2 5 15 21 21 17 11 12 9 4 7 31 36 43 41 35 34 30 28 31 31 28 21 22 18 18 19
15 18 17 16 15 7 2 2 3 3 4 12 6 7 13 11 1 5 4 15 17 21 21 18 15 14 10 0 16 39 41 39 36 33 25 28 27 27 25 22 23 21 22 24
7 11 4 9 14 7 7 7 5 7 6 8 5 6 4 4 10 32 17 20 19 23 23 20 17 17 18 12 12 32 37 35 34 30 27 28 29 25 24 23 24 21 24 24
5 6 16 17 13 3 6 10 6 9 13 7 8 10 6 6 10 19 16 25 24 24 23 20 20 18 16 9 9 34 40 36 31 29 28 31 27 26 25 25 22 20 22 19
5 8 6 12 14 6 3 5 1 2 4 5 6 10 3 12 4 10 14 18 20 23 24 23 21 20 17 9 7 18 31 29 25 23 27 26 25 27 27 21 19 16 18 21
6 3 7 9 3 7 7 5 4 4 4 3 3 1 5 8 10 11 13 22 21 23 25 24 21 20 17 9 3 8 10 14 20 24 23 26 28 27 23 19 15 15 16 14
2 3 4 15 19 20 8 10 4 4 5 2 4 3 5 3 15 8 16 20 17 21 23 23 21 19 17 14 5 3 8 12 17 22 26 24 30 25 21 17 15 14 12 11
3 3 5 14 8 0 3 4 8 14 2 6 5 1 8 9 19 19 21 20 19 20 25 25 22 21 19 16 10 2 4 11 17 24 23 28 25 22 19 19 18 16 16 13
3 3 5 9 12 13 18 19 14 10 5 3 4 5 8 12 14 16 20 20 19 20 23 24 24 22 18 15 11 7 6 15 17 20 25 23 21 19 19 19 18 18 16 14
3 5 6 13 18 17 18 19 23 18 13 6 5 2 9 9 11 12 14 18 19 23 23 24 25 23 19 16 11 9 11 16 20 22 20 17 20 20 19 20 19 19 18 16
4 3 6 13 16 19 17 20 4 6 4 4 10 8 8 10 15 17 18 16 18 19 21 23 23 23 21 18 15 10 10 14 18 20 19 21 18 19 18 19 19 20 21 18
3 1 3 7 10 15 9 10 9 4 11 9 4 8 10 9 11 15 13 14 15 16 19 20 21 20 19 18 16 12 10 9 17 21 23 22 21 21 20 20 21 23 20 18
9 6 4 6 8 4 6 6 16 19 17 17 15 14 11 13 15 15 13 13 16 18 20 19 18 19 20 16 15 12 9 10 12 15 18 19 22 22 21 23 22 22 21 20
14 9 3 3 3 4 1 5 9 6 10 14 12 12 9 18 18 18 14 17 19 18 16 17 17 18 18 19 21 19 19 18 17 16 12 10 15 18 20 21 22 20 22 21
14 11 5 3 5 1 5 18 23 4 5 14 13 11 7 5 1 2 8 12 18 19 18 16 17 17 15 18 23 26 30 30 30 26 23 17 12 14 17 18 18 20 19 19
5 5 11 10 5 3 16 19 16 5 4 12 12 12 19 7 9 11 13 16 16 15 16 17 18 18 18 17 19 24 27 28 25 26 25 25 24 22 20 21 21 21 22 21
5 3 2 2 3 4 29 9 6 5 10 12 13 13 19 20 17 16 14 14 14 14 14 17 20 22 19 17 19 23 24 18 18 19 20 22 22 23 23 21 22 23 24 23
3 2 2 6 4 11 18 17 15 12 12 13 12 12 16 19 18 17 17 16 16 16 14 14 17 20 22 24 22 22 19 15 16 16 18 19 18 17 17 18 20 21 22 22
10 19 3 3 7 14 15 15 15 14 16 15 13 14 17 20 18 18 17 15 15 14 13 12 14 18 20 19 22 22 22 20 19 19 18 17 16 17 17 18 19 18 18 18
5 9 7 8 9 13 14 13 12 13 12 14 16 15 15 15 15 14 15 15 14 13 13 14 16 17 18 16 16 16 16 17 20 21 21 20 20 18 17 18 18 17 17 14
7 4 3 3 8 7 7 9 7 13 12 10 13 14 13 13 14 14 16 15 15 15 14 16 17 17 16 16 16 16 15 13 14 17 18 19 19 18 17 15 15 16 15 12

GFSCGP_850_spd_096.txt.gz
Wind_Speed
4 3 8 9 8 5 5 11 14 14 10 6 12 13 17 11 17 18 26 29 34 34 37 39 36 33 29 23 39 46 41 35 38 44 41 40 39 38 36 31 29 28 26 26
1 8 11 9 8 8 10 15 17 19 17 9 11 18 18 15 10 23 26 30 34 37 41 44 44 36 35 33 29 40 47 41 40 44 45 45 45 41 36 32 30 28 26 26
8 9 7 10 12 11 15 13 15 16 6 4 7 19 15 15 18 23 28 30 33 33 37 43 38 37 36 40 35 35 41 45 43 41 48 44 44 37 31 32 30 28 28 24
6 14 13 11 10 12 16 11 15 12 5 12 6 13 26 19 15 14 20 22 9 12 9 3 14 27 30 27 32 37 36 44 45 46 49 47 48 40 38 36 32 28 26 26
6 10 9 7 7 6 14 9 11 6 5 5 18 2 26 10 20 20 13 6 12 14 16 17 11 1 8 20 32 30 31 43 47 47 48 49 45 38 35 33 29 25 25 27
7 6 4 7 11 6 7 4 3 1 2 9 25 5 21 6 4 7 9 8 11 17 21 20 16 10 8 3 12 21 33 42 47 48 51 46 43 38 35 31 28 26 22 25
6 5 5 7 7 6 5 4 4 3 2 13 7 7 16 9 3 7 14 16 17 16 25 23 24 18 15 7 5 25 33 41 45 48 45 44 40 36 33 30 29 25 23 24
4 6 6 10 2 4 8 8 6 4 3 4 6 6 4 6 7 7 18 28 26 25 20 24 22 21 17 14 1 22 30 33 36 41 42 37 34 34 30 27 26 23 21 19
4 4 16 7 7 5 7 4 4 6 6 6 5 9 1 11 12 13 18 13 17 27 19 19 22 20 19 21 8 15 29 31 34 38 34 31 28 27 26 23 20 19 16 17
2 7 2 7 12 3 5 6 3 3 4 7 5 7 1 12 11 14 7 9 16 20 24 25 23 23 20 20 19 12 18 26 31 34 31 31 26 24 23 20 21 18 16 22
1 1 4 5 1 5 8 4 5 4 5 5 6 3 3 3 4 2 5 13 17 20 26 24 24 24 22 19 18 12 12 17 20 20 28 24 25 23 20 20 21 18 18 20
1 1 4 7 15 15 12 4 0 5 2 3 2 3 6 11 13 13 11 13 16 22 26 28 26 25 23 21 18 12 12 8 14 13 20 15 21 19 20 21 19 15 14 15
0 1 4 9 5 8 5 6 2 5 5 8 4 2 9 11 10 16 13 15 19 21 26 30 29 28 26 24 19 10 4 3 10 22 24 26 25 22 21 17 13 11 13 13
3 2 5 7 10 9 12 16 13 3 5 7 9 4 8 4 5 10 12 14 18 20 24 30 31 29 25 22 20 15 6 8 8 16 24 27 25 24 23 19 17 17 15 14
5 4 4 7 9 14 17 18 18 15 13 8 9 3 6 5 8 12 11 15 17 21 24 27 29 28 26 22 19 16 11 8 17 25 28 29 25 22 21 20 19 18 17 14
2 3 2 13 11 13 15 15 15 15 13 12 9 10 10 11 11 16 15 14 17 20 21 23 26 27 27 25 21 18 14 8 13 23 30 24 25 21 20 19 19 19 17 16
6 3 1 10 7 14 14 13 15 6 7 5 2 5 10 9 11 12 11 14 16 16 18 23 25 26 25 23 20 19 16 11 7 16 19 26 26 25 22 21 21 15 20 20
7 5 3 8 9 6 8 12 19 16 11 10 8 6 9 12 14 12 13 13 14 17 20 21 22 24 23 21 19 17 16 14 10 12 12 17 22 24 24 24 21 25 27 24
14 5 3 3 4 11 6 5 4 5 7 8 6 6 12 15 16 16 13 15 16 16 17 18 18 20 21 23 23 21 22 21 17 18 18 15 9 18 18 23 22 23 23 22
10 10 5 3 4 4 4 17 20 8 5 10 8 6 4 11 2 2 9 12 15 18 17 18 20 20 21 23 24 27 28 27 27 24 21 20 19 15 12 13 14 16 19 19
4 5 13 10 3 4 13 23 17 3 3 9 12 15 14 5 9 10 10 12 12 13 16 18 20 24 23 20 22 25 25 26 23 23 23 23 23 23 21 19 15 13 17 19
5 2 4 6 3 3 26 7 6 6 11 12 13 13 17 19 15 14 12 12 13 14 16 20 25 26 24 22 22 23 23 18 18 18 23 24 24 23 23 23 22 21 19 17
4 5 2 5 3 5 12 15 18 14 13 12 13 11 15 17 16 14 15 15 14 14 17 18 21 23 24 26 27 24 20 15 16 19 20 20 20 20 19 20 20 21 21 23
8 15 3 3 5 11 12 14 15 14 15 13 11 14 16 17 15 14 13 14 14 15 15 16 18 21 22 21 21 22 21 18 18 20 20 19 20 20 20 20 20 20 20 20
4 8 6 6 8 12 13 11 10 12 13 14 13 13 13 14 14 14 14 15 16 17 16 16 18 19 19 17 17 17 16 16 18 19 19 19 19 18 18 19 19 18 18 16
8 4 3 2 5 9 7 8 10 12 11 11 13 14 12 13 16 16 18 17 17 17 15 16 17 16 16 16 17 17 15 14 13 15 16 17 17 17 16 15 15 16 15 13

GFSCGP_850_spd_099.txt.gz
Wind_Speed
2 3 9 9 7 4 3 5 10 6 10 4 13 21 17 15 10 15 26 31 37 38 36 40 40 35 36 31 30 27 27 37 44 45 43 42 40 40 36 35 35 31 29 28
2 7 9 7 5 6 7 8 10 8 12 5 11 21 18 9 8 21 23 27 33 35 39 38 36 37 37 37 34 31 27 29 41 46 42 45 42 42 37 35 35 32 31 30
6 7 2 5 6 6 8 5 8 11 9 6 7 19 10 6 12 25 26 29 27 16 17 16 18 24 30 31 32 35 30 31 32 45 45 48 45 44 40 36 35 39 34 33
6 8 8 7 7 7 11 7 14 14 6 7 8 11 25 10 5 9 20 15 16 17 19 21 19 13 14 20 21 25 30 30 30 42 48 48 45 47 42 36 43 42 35 34
7 3 4 5 6 6 8 9 10 11 4 4 9 3 12 14 17 8 8 13 14 20 20 23 28 24 19 14 17 23 30 30 31 38 50 50 49 49 43 45 44 38 36 34
6 3 3 6 4 6 8 4 4 3 2 4 19 6 16 10 5 4 8 15 18 20 22 20 21 27 21 15 14 14 21 26 32 37 46 54 49 50 47 44 40 40 38 34
4 4 2 4 4 5 7 2 2 3 1 8 5 2 7 5 3 1 7 15 20 28 25 26 21 27 23 21 18 10 20 27 32 31 43 53 49 50 48 43 38 38 37 33
2 3 4 7 5 4 6 4 4 4 3 4 3 6 4 3 6 10 7 13 24 32 30 28 19 25 22 21 20 11 15 22 31 33 40 46 46 43 43 37 33 35 35 31
2 3 3 6 1 0 4 2 2 4 1 3 4 5 1 3 4 2 6 14 21 28 32 29 24 21 18 19 16 9 10 22 27 28 34 36 38 36 36 33 29 29 30 28
1 4 2 6 9 5 5 5 4 2 3 6 5 5 5 4 6 5 7 14 19 22 27 30 26 22 19 18 16 10 6 12 19 25 27 26 27 31 29 27 25 26 26 23
1 1 1 4 1 4 5 2 3 2 4 4 5 4 2 5 8 7 9 17 16 19 22 28 25 23 19 18 17 15 6 11 16 16 25 25 24 26 24 24 22 24 22 21
1 2 3 4 9 7 5 3 2 2 3 3 3 4 4 7 9 11 15 15 15 18 22 26 26 25 23 20 18 17 12 2 5 8 13 19 29 17 25 21 19 22 22 18
2 1 3 5 4 5 4 3 2 3 5 5 4 2 6 6 6 7 11 13 15 18 22 28 29 28 27 23 20 15 13 11 2 4 9 16 26 35 36 22 20 22 18 16
4 3 5 5 3 2 5 9 11 6 3 4 6 13 5 3 5 10 14 13 17 19 22 28 31 29 27 24 22 19 11 7 4 2 8 12 10 13 23 23 22 17 15 16
4 4 4 6 7 7 14 17 17 12 14 7 12 10 0 5 5 11 12 16 18 21 23 26 30 30 28 27 24 21 16 7 3 7 14 19 21 22 27 22 21 19 18 18
1 2 4 6 8 13 16 20 19 15 14 15 17 14 5 8 8 16 16 15 17 19 21 23 28 29 29 28 26 23 21 16 8 7 15 20 26 29 26 24 23 21 16 22
6 4 2 6 5 10 14 11 18 8 5 12 10 4 7 8 8 15 13 12 14 17 20 24 26 28 27 25 23 23 22 19 17 11 9 14 24 27 24 24 24 22 20 18
8 5 3 4 2 5 4 16 7 15 6 8 10 8 8 13 10 11 12 12 15 18 21 23 24 26 27 25 24 21 22 22 23 21 20 15 8 21 24 25 25 23 22 23
15 7 2 3 3 8 8 2 5 3 6 8 6 9 14 16 13 13 12 15 16 15 17 19 19 21 23 26 29 29 30 27 27 26 25 24 18 13 12 21 20 21 22 23
10 7 4 2 3 3 4 11 9 7 3 9 8 4 10 10 0 2 9 10 13 16 17 17 18 20 22 24 26 31 34 34 34 29 24 24 25 21 18 15 13 10 13 16
6 3 11 6 3 5 12 18 11 1 3 10 9 12 6 4 8 11 8 10 13 15 18 19 21 24 23 23 24 29 30 33 29 28 27 25 23 22 21 17 16 17 15 13
3 4 4 5 4 4 24 6 5 7 11 12 13 15 20 19 15 12 11 11 12 14 16 20 22 25 26 24 24 27 29 24 23 23 25 25 24 25 22 20 21 20 20 21
3 4 2 4 3 5 11 13 15 12 13 12 14 15 18 18 16 14 12 12 13 14 16 17 19 21 23 25 27 28 25 21 22 23 24 24 22 23 22 22 23 24 24 23
6 10 2 2 5 10 11 12 14 15 15 13 15 14 14 17 14 13 11 12 12 13 15 15 17 20 21 22 23 26 23 22 21 23 23 22 22 20 19 21 22 23 22 22
4 8 5 4 6 9 13 11 10 12 12 13 13 12 13 12 12 12 13 14 14 14 15 16 18 20 21 19 20 20 20 19 20 21 21 21 19 18 17 17 18 18 19 17
7 4 3 2 5 8 5 7 6 10 12 11 12 12 12 11 14 13 14 13 14 14 14 16 16 17 18 17 18 18 18 17 16 17 19 19 18 17 16 15 15 14 14 13

GFSCGP_850_spd_102.txt.gz
Wind_Speed
3 3 6 9 6 3 2 3 5 5 11 3 13 15 9 13 9 15 25 25 27 31 30 28 29 30 30 26 30 29 29 30 29 43 46 46 46 41 40 38 34 35 35 33
2 5 9 5 4 5 5 5 6 6 10 6 11 19 13 8 8 13 17 24 24 17 19 21 24 26 26 25 25 30 28 29 31 35 45 43 44 47 43 42 37 33 37 35
7 6 3 6 4 5 6 4 5 8 5 4 7 11 5 5 4 10 11 9 11 15 18 18 17 18 20 23 20 21 26 29 31 33 37 43 45 46 41 42 40 36 36 36
6 6 9 6 6 8 6 9 11 7 1 3 3 9 6 4 3 2 9 12 15 20 22 23 22 23 23 21 22 21 24 28 30 33 36 43 46 47 44 44 42 39 34 37
6 5 5 5 6 7 7 6 7 5 4 2 5 2 6 10 4 3 4 10 15 20 24 25 27 24 24 25 26 22 22 26 33 34 37 35 40 48 46 47 45 40 39 36
5 1 2 4 1 2 5 2 3 3 3 5 9 7 12 3 2 3 2 10 16 22 26 26 25 25 24 22 25 26 22 24 33 36 39 41 37 42 48 46 47 43 42 40
2 0 1 4 3 4 8 3 2 2 0 6 5 4 11 2 2 3 2 10 16 23 27 31 30 28 26 24 25 26 24 23 26 33 39 42 44 42 47 48 47 47 42 41
4 3 2 5 3 2 1 1 3 4 3 4 2 5 5 2 3 7 7 9 17 24 25 29 29 28 26 26 24 25 27 24 21 25 35 36 40 41 42 44 44 45 42 40
3 2 1 3 2 1 3 2 3 3 2 3 4 5 2 4 4 1 9 15 18 23 27 28 29 28 28 25 22 20 20 14 11 19 26 32 33 35 37 35 36 37 35 38
3 1 3 3 1 5 6 3 3 2 3 5 5 4 3 5 9 11 11 14 18 22 29 29 30 30 28 26 21 17 13 8 5 16 24 26 25 27 29 32 32 33 33 31
3 2 2 2 1 0 4 1 1 1 2 3 3 3 4 7 6 7 8 11 15 19 27 30 29 28 28 26 23 19 15 10 5 14 15 20 21 21 23 25 25 24 23 28
2 3 2 6 4 3 3 2 2 4 4 3 2 5 3 3 7 12 13 15 16 17 23 28 28 28 28 28 26 23 19 15 6 4 10 12 11 9 14 15 14 19 20 25
4 1 1 3 4 4 3 2 2 0 3 6 1 4 3 6 7 12 14 18 17 18 23 29 29 30 30 29 27 24 20 18 9 2 7 9 12 12 20 21 12 14 20 23
3 3 4 4 1 2 3 4 2 4 2 5 9 13 12 7 6 9 14 17 17 19 23 28 32 32 31 29 28 25 21 18 13 5 7 8 7 14 26 28 33 24 21 23
3 4 4 4 3 3 7 12 11 12 13 10 13 14 8 2 5 8 10 13 16 21 24 30 32 32 31 29 27 26 24 21 16 8 6 9 9 9 9 20 35 29 25 20
2 2 2 3 4 7 16 15 14 14 17 14 17 22 4 9 9 10 11 13 15 19 21 26 30 31 31 30 28 26 25 24 20 13 7 4 11 15 14 25 30 22 22 22
4 3 2 4 2 9 11 10 7 12 16 16 15 10 10 8 8 11 11 14 14 17 20 24 27 29 29 29 27 26 25 23 23 23 19 11 6 11 22 25 24 26 26 25
5 5 3 2 3 4 6 3 6 8 10 8 5 8 8 13 14 14 18 12 13 16 19 21 23 25 27 29 29 28 27 28 28 28 26 23 22 15 13 16 27 28 27 24
9 5 1 2 3 8 7 4 4 4 4 9 5 11 16 20 18 19 13 13 13 13 15 17 19 21 23 27 30 33 33 33 32 32 29 25 24 22 20 17 17 20 23 20
8 6 4 2 2 4 2 11 11 4 2 6 5 4 10 6 4 2 7 10 14 15 16 17 19 21 24 26 27 31 34 35 36 32 29 25 24 24 21 22 21 21 20 18
5 3 8 5 2 6 11 19 14 2 3 7 8 6 12 4 8 12 8 11 13 15 17 18 21 24 25 24 26 30 31 33 29 29 30 31 30 28 26 22 22 21 22 22
4 6 3 4 4 4 21 8 4 4 9 10 14 17 23 22 17 14 13 12 12 15 17 18 22 25 25 26 27 30 31 27 26 27 30 31 32 31 29 29 28 26 25 27
2 3 1 3 3 3 10 11 15 11 10 11 13 15 18 19 17 14 13 13 14 15 16 17 20 22 25 26 27 29 27 24 25 26 29 30 29 29 29 30 30 30 29 30
5 7 2 2 3 8 9 13 13 13 14 12 12 14 15 17 14 14 13 13 15 16 17 17 19 22 24 23 23 25 24 22 23 26 26 25 25 24 25 26 27 27 26 27
3 7 2 3 6 9 12 11 9 11 12 14 13 12 12 12 13 14 15 14 15 15 16 17 20 21 22 21 22 22 21 20 22 23 24 23 22 21 21 22 23 23 23 21
6 4 2 1 3 7 5 5 5 10 12 11 11 12 11 11 14 13 15 14 13 14 13 15 17 18 19 19 19 21 21 20 20 22 22 22 21 21 21 20 19 19 17 15

GFSCGP_850_spd_105.txt.gz
Wind_Speed
7 7 13 18 11 9 6 7 13 11 12 5 12 14 14 18 13 18 18 14 10 10 13 14 15 15 18 20 22 21 24 26 26 30 36 39 44 46 50 47 42 39 36 37
4 13 13 8 11 9 8 10 11 9 12 5 12 18 17 16 11 13 6 4 5 10 11 13 15 15 15 15 16 16 20 25 28 30 33 38 39 45 48 49 48 42 38 37
11 4 10 9 7 8 10 10 8 10 9 7 8 11 4 3 5 10 7 5 7 11 15 18 20 21 21 20 17 15 16 22 25 30 31 32 32 33 35 46 51 47 41 38
9 11 7 6 7 9 11 11 14 13 4 5 5 8 7 4 6 4 5 6 8 13 16 20 22 23 24 24 24 23 18 19 23 25 31 31 37 38 44 45 51 50 45 42
7 6 9 14 14 10 8 7 11 10 7 3 6 6 2 3 3 3 2 5 9 12 15 18 22 26 28 28 27 26 26 23 20 25 31 34 39 41 41 43 48 48 44 44
3 2 4 5 4 7 1 3 3 1 3 6 12 9 5 4 3 0 1 7 11 15 19 21 22 24 25 27 28 27 26 27 24 22 30 38 40 41 37 40 46 49 48 43
1 1 1 1 5 3 1 4 3 3 4 4 2 8 10 2 3 1 5 8 12 16 21 25 27 27 27 26 26 24 23 27 23 23 29 36 41 41 40 37 44 49 51 46
6 3 1 3 2 2 2 3 4 5 4 1 4 7 1 8 8 10 8 8 14 20 23 25 25 25 27 27 25 22 22 25 20 19 23 31 37 40 41 40 38 48 48 48
4 3 1 4 3 1 2 2 2 1 1 4 6 4 3 4 7 9 11 15 19 19 21 23 24 24 27 28 26 25 22 19 18 15 12 18 28 35 39 40 39 41 41 41
5 3 2 2 1 7 2 2 2 1 4 6 5 6 4 2 8 10 11 13 16 19 25 25 25 25 27 27 26 24 21 19 14 11 6 14 20 29 34 35 34 36 33 36
2 1 2 3 1 2 2 1 1 1 3 4 5 4 4 6 6 8 9 13 16 19 23 27 26 27 28 26 26 25 22 18 13 5 3 16 18 23 30 28 26 31 30 31
2 3 2 1 5 3 4 4 3 3 3 3 4 6 8 5 7 8 8 11 13 16 21 26 28 29 28 28 27 25 24 19 13 7 7 8 12 19 17 20 23 24 25 25
5 2 3 2 1 1 3 4 4 3 2 7 6 4 5 6 6 8 7 10 12 15 23 26 28 30 29 28 28 26 24 21 17 7 3 2 11 10 4 6 11 14 19 19
3 3 4 4 3 3 2 4 5 4 4 8 14 18 16 14 2 5 6 8 11 13 23 23 27 30 29 27 27 26 24 21 19 14 9 5 9 10 10 11 12 12 14 20
2 5 5 5 5 4 9 11 13 15 15 12 15 19 15 12 2 6 4 7 9 12 22 21 27 30 29 28 27 26 24 22 21 16 9 6 2 8 11 16 16 19 22 21
0 3 2 4 9 10 15 16 17 18 20 19 23 25 16 5 9 8 5 7 8 12 19 21 24 27 29 28 28 26 27 24 22 21 19 13 6 3 10 14 19 26 37 28
4 5 3 3 1 8 13 8 8 9 11 14 16 16 7 7 9 6 6 5 7 11 17 18 21 24 27 28 27 28 27 26 27 27 25 22 16 10 8 11 17 25 29 31
5 4 2 2 2 4 2 4 4 9 1 8 11 3 11 15 14 11 7 6 10 14 16 17 20 22 24 26 29 29 28 28 31 30 30 29 26 23 18 12 17 22 25 28
9 6 2 2 3 8 2 4 5 4 0 8 6 11 22 23 19 12 8 11 13 14 13 15 18 20 23 25 27 30 34 34 34 33 32 29 29 28 24 24 22 17 21 21
7 8 5 2 3 3 2 12 12 8 4 9 9 9 14 14 3 3 7 12 15 15 15 17 19 22 25 26 28 31 34 35 37 34 33 30 30 29 29 27 26 24 20 23
5 4 8 5 3 3 10 17 13 4 4 9 7 3 10 3 8 13 10 13 13 15 17 19 22 25 26 27 29 33 34 36 33 33 33 34 34 33 32 29 30 29 30 27
3 5 3 3 3 4 19 3 5 3 9 9 11 16 23 20 18 16 14 14 14 16 17 20 22 25 25 27 29 32 33 29 29 31 33 35 35 35 34 35 35 34 33 34
2 3 2 2 2 4 9 9 9 8 9 10 14 15 18 20 18 16 15 15 16 17 18 19 21 22 24 26 28 30 28 25 25 26 29 30 30 31 31 33 33 34 34 34
3 7 3 3 4 8 7 8 10 12 14 13 14 15 16 19 16 16 15 16 17 18 19 19 21 23 25 25 25 26 24 24 24 26 26 26 26 26 27 28 29 29 29 29
3 6 2 3 7 10 10 8 9 12 14 15 15 14 15 17 17 17 17 16 16 17 17 19 21 23 24 23 24 23 23 22 23 24 25 26 25 26 26 26 27 26 25 22
5 4 2 1 4 6 5 5 7 11 12 11 13 15 14 15 17 16 17 16 15 16 16 17 20 21 22 22 23 23 23 21 22 23 24 24 23 23 22 22 21 21 19 16

GFSCGP_850_spd_108.txt.gz
Wind_Speed
20 14 20 22 19 21 15 15 17 15 14 14 16 18 16 15 19 19 17 15 7 3 3 5 8 9 10 11 12 17 21 20 22 26 22 25 34 38 34 36 42 41 41 38
13 22 22 19 18 17 17 18 18 14 12 9 15 18 17 17 17 16 13 5 3 2 4 7 10 12 13 14 15 15 15 18 19 19 20 25 28 30 33 31 35 45 45 43
23 10 9 15 18 19 19 19 16 14 14 16 18 21 17 2 3 7 6 6 4 5 9 12 14 14 15 16 18 19 20 19 19 21 24 27 27 30 29 31 34 48 50 49
16 21 11 13 20 16 18 17 15 16 12 10 2 6 6 7 8 9 7 5 6 8 10 13 17 19 20 19 19 20 23 25 25 22 20 21 27 35 35 33 36 43 52 53
12 10 16 21 18 14 13 10 14 14 13 13 15 8 7 9 12 9 7 7 8 10 13 16 18 20 21 22 23 24 26 28 29 28 25 24 27 33 35 33 33 38 45 50
18 3 7 10 16 18 8 10 11 10 10 12 17 12 10 13 7 9 7 6 8 11 13 15 18 20 21 22 24 26 29 29 30 31 29 30 31 31 34 37 34 38 41 47
16 15 4 4 8 8 11 11 8 9 8 10 1 9 10 8 3 6 4 6 10 13 15 17 19 21 21 23 25 27 28 31 31 31 31 31 33 31 38 39 36 35 37 44
13 10 10 3 6 8 14 15 10 11 11 5 4 7 4 10 12 11 7 7 10 13 16 18 20 21 22 23 24 28 29 30 30 29 28 30 32 36 34 44 43 34 34 41
9 5 3 5 2 2 7 10 4 6 8 9 11 7 9 10 12 8 7 8 9 12 14 18 21 22 23 25 27 30 30 30 28 25 25 27 30 34 34 39 44 38 31 33
3 2 2 2 1 1 4 3 3 4 5 12 9 12 5 11 6 6 6 9 11 13 17 19 21 21 21 23 26 27 26 27 25 21 20 22 19 22 30 33 38 41 33 33
6 9 5 1 6 9 5 6 5 5 6 7 10 6 6 9 3 4 7 10 12 14 16 19 21 21 20 21 25 27 25 25 22 17 13 12 14 20 26 28 31 35 35 35
3 2 8 8 1 6 7 9 10 8 10 8 9 11 5 6 5 6 9 9 11 13 16 17 21 21 21 23 26 27 25 22 21 12 10 6 10 16 16 20 24 28 33 35
6 4 5 4 5 4 6 7 6 4 3 12 11 2 9 7 3 4 9 8 9 12 15 17 20 22 26 28 28 27 26 25 21 16 11 4 3 8 11 8 14 18 24 30
4 5 8 8 5 2 6 12 10 8 5 12 15 19 12 10 15 6 7 8 9 11 15 18 20 23 27 28 27 26 25 23 20 18 15 10 6 2 8 2 3 7 11 23
2 5 8 9 7 6 9 12 15 18 17 17 18 20 17 17 17 4 3 4 7 11 14 17 20 24 27 27 26 26 24 24 20 19 19 18 14 7 3 11 9 6 8 14
2 2 3 9 10 11 14 16 19 19 18 21 23 24 20 21 4 1 2 5 7 11 13 15 18 23 25 26 26 25 26 26 24 23 22 22 19 15 6 8 12 17 19 23
5 4 4 6 3 6 12 17 16 16 12 13 15 17 17 4 5 2 3 5 7 10 12 15 19 20 22 25 25 26 27 27 29 29 26 25 24 24 20 10 4 11 21 27
5 6 4 3 3 7 4 6 5 7 12 4 11 17 9 13 11 8 8 5 8 8 11 14 16 19 21 22 25 27 28 28 30 31 33 30 30 28 26 23 20 18 20 24
10 9 5 4 8 7 5 1 4 4 2 4 5 4 14 19 16 12 8 8 8 8 11 12 14 18 22 25 27 29 32 33 33 35 35 35 33 33 32 32 29 25 17 21
8 12 7 4 4 3 4 7 8 5 8 5 6 9 14 13 4 3 5 7 10 11 14 15 17 20 23 25 28 31 34 35 38 36 35 34 35 37 37 35 34 32 28 27
6 7 10 9 5 1 6 14 10 6 5 6 6 11 13 2 8 13 8 10 12 13 14 16 20 23 25 25 26 30 31 34 33 33 35 36 37 37 37 37 37 37 37 35
4 6 4 4 5 3 16 1 5 3 5 6 10 14 20 17 16 13 12 12 13 14 16 17 18 21 23 25 27 28 29 27 28 30 32 34 34 35 36 37 37 38 37 37
2 4 2 4 4 5 8 8 6 6 7 9 13 14 18 18 15 13 14 15 15 16 16 15 16 18 21 22 24 26 25 23 24 26 29 29 29 30 31 32 33 34 34 35
3 2 1 6 5 7 7 8 9 9 11 11 12 14 16 17 15 15 15 14 15 14 15 15 17 20 20 21 22 22 21 22 23 25 26 27 29 28 28 29 29 29 29 28
3 4 2 5 7 7 8 7 8 11 12 14 14 14 15 15 15 15 15 14 14 14 15 16 17 18 19 19 22 22 20 19 21 22 22 23 23 23 26 29 28 27 26 23
4 3 3 3 4 6 6 6 7 10 10 11 14 15 14 15 16 15 16 14 14 15 14 15 16 17 19 20 22 24 23 21 21 22 23 23 21 21 19 17 22 25 22 20

GFSCGP_850_spd_114.txt.gz
Wind_Speed
19 13 16 18 20 24 22 25 28 26 26 27 22 20 17 17 22 19 21 24 22 20 10 13 9 6 6 3 4 5 6 7 9 9 11 11 14 20 24 27 32 31 32 34
17 22 21 22 24 25 27 28 28 25 26 22 25 24 22 20 20 24 26 23 21 22 16 11 9 6 8 6 7 7 7 8 9 8 13 16 20 26 24 26 28 37 37 36
23 26 23 24 25 27 25 25 25 29 26 27 23 24 22 20 27 31 29 22 9 18 20 13 6 7 5 7 10 10 10 10 12 13 14 15 18 22 28 30 29 26 32 37
27 24 27 27 27 26 22 21 26 25 20 16 22 18 22 20 22 20 30 17 22 16 13 8 7 5 6 7 10 14 16 16 14 18 19 18 21 24 24 26 27 24 28 39
30 25 26 23 25 24 23 22 18 21 14 20 23 16 15 23 20 16 16 28 23 16 11 8 7 6 7 10 12 15 17 18 19 21 21 24 27 29 31 33 35 39 33 24
28 31 24 16 18 20 15 17 20 21 13 15 25 18 17 19 16 10 21 24 19 15 11 6 5 8 11 13 15 16 17 19 22 23 24 26 28 31 34 36 39 39 44 36
21 25 26 15 17 14 14 13 7 4 7 15 18 16 16 15 20 20 19 19 16 15 10 7 11 13 15 18 20 20 21 24 24 25 27 28 30 32 35 37 39 41 44 46
12 12 16 15 18 14 9 10 6 6 7 13 10 10 4 13 17 23 22 17 15 15 9 10 12 14 17 20 22 24 28 30 29 29 30 31 32 34 37 38 39 43 45 48
7 9 2 9 12 11 12 14 17 6 13 11 11 6 7 13 14 15 15 15 13 11 11 12 14 15 18 20 22 24 31 33 31 32 32 33 33 34 37 39 39 42 46 49
11 12 2 6 4 9 8 2 3 2 4 10 13 12 6 8 9 8 10 10 10 12 14 16 17 17 18 19 21 24 27 29 31 32 31 32 32 34 36 36 38 42 45 44
8 3 2 8 9 14 10 11 7 4 5 4 6 4 6 9 7 7 5 7 11 16 18 18 19 19 20 23 23 25 29 30 30 29 28 29 30 32 32 32 31 32 34 40
6 2 6 11 5 7 6 9 12 9 11 8 9 10 8 10 8 4 4 5 10 11 13 14 16 18 21 23 24 27 29 31 30 27 25 26 26 25 24 23 23 23 16 23
6 1 5 5 8 10 8 12 11 9 9 14 9 5 8 5 5 6 5 10 7 9 12 13 14 16 18 21 25 26 28 31 28 25 24 24 23 21 20 19 17 20 24 22
7 6 7 5 2 5 7 13 14 13 9 12 11 15 11 6 5 6 15 10 8 11 12 14 15 17 19 21 23 26 26 28 26 24 22 21 21 19 17 17 17 17 17 25
3 8 11 14 17 10 13 11 11 14 13 14 11 13 12 10 11 12 10 9 10 12 13 14 15 17 19 23 25 24 23 25 25 25 24 22 21 20 18 17 15 14 8 5
6 6 3 11 13 13 15 15 15 17 16 17 17 14 11 12 13 10 10 9 11 11 10 11 14 18 21 23 23 22 24 24 25 27 28 28 25 24 23 22 18 18 16 14
8 4 5 8 9 9 9 11 17 16 15 15 12 6 14 12 14 17 13 11 11 8 10 13 15 17 18 21 21 22 22 23 26 29 31 33 33 32 30 29 27 26 25 18
5 9 5 7 0 7 3 10 8 6 10 11 12 13 11 13 14 15 12 10 8 8 10 11 13 15 17 19 21 22 24 26 29 32 34 35 37 39 38 37 38 38 36 31
7 7 5 6 7 11 4 5 4 4 3 8 7 5 10 13 13 13 9 10 9 10 10 11 12 15 15 18 19 23 26 29 31 34 35 36 38 40 42 45 45 45 43 43
8 8 7 6 7 7 6 6 6 2 5 8 9 6 9 10 4 5 7 9 10 12 12 14 17 18 18 18 19 22 27 29 31 31 33 34 37 39 41 43 45 46 46 46
8 8 10 8 7 3 3 5 4 4 3 8 8 8 6 5 7 14 10 12 12 11 11 14 18 20 22 23 24 25 27 30 31 30 30 31 33 34 36 38 40 42 43 45
8 6 6 7 5 8 10 3 3 4 5 6 11 14 21 20 17 15 13 13 12 13 14 13 14 15 16 19 24 27 27 26 27 30 35 34 33 35 34 35 36 37 37 39
2 2 2 5 3 4 6 6 4 5 7 6 10 13 18 21 17 14 14 13 14 15 13 11 11 13 17 16 19 24 25 22 24 26 28 30 35 36 36 37 37 37 37 38
3 5 2 7 5 4 6 7 7 8 9 9 10 14 17 20 17 16 14 14 14 13 12 10 11 13 16 17 18 17 18 18 20 23 24 25 27 30 34 36 37 37 37 34
3 3 7 5 6 7 7 7 8 9 9 10 11 13 16 18 16 15 15 14 13 12 11 11 11 12 14 16 19 20 19 17 18 21 22 24 26 26 27 31 34 36 36 33
5 4 2 3 10 9 9 9 9 10 10 11 13 14 13 15 15 15 16 14 13 12 11 11 11 12 14 16 18 20 20 22 21 23 23 23 25 25 25 23 27 29 29 27

GFSCGP_850_spd_117.txt.gz
Wind_Speed
17 6 7 13 14 15 13 16 18 17 14 11 14 21 14 19 18 17 15 21 21 13 27 20 16 14 10 6 2 5 8 10 13 13 14 17 19 25 28 22 26 29 31 35
8 17 12 14 14 16 16 18 19 19 18 15 18 19 14 14 12 19 19 18 26 29 30 24 16 10 7 4 3 4 5 10 12 13 14 16 21 23 24 29 26 23 33 29
18 9 12 17 19 18 19 18 17 20 10 10 12 12 12 13 25 29 27 32 17 35 35 28 22 17 9 8 6 7 10 12 14 16 18 18 18 21 25 28 33 29 29 28
17 16 17 19 19 14 20 12 17 16 10 6 4 9 15 19 19 22 27 15 32 33 31 28 22 17 11 7 7 11 12 15 16 18 20 21 22 24 24 26 29 33 35 34
26 20 18 21 22 17 20 10 13 12 11 9 21 1 10 11 16 12 19 27 28 34 27 26 22 16 11 8 11 14 16 18 20 21 21 23 25 26 29 31 31 32 34 40
21 26 15 18 20 7 9 5 5 5 1 5 17 3 18 9 8 13 21 19 26 30 29 24 19 12 11 11 13 15 18 22 23 24 25 25 26 27 29 31 34 35 35 39
14 18 20 20 15 3 3 3 4 4 1 10 4 9 9 6 15 8 19 25 27 28 27 22 19 16 14 16 18 21 24 27 30 29 28 28 28 29 31 32 33 35 39 41
7 8 2 6 5 7 6 5 5 4 2 5 6 5 2 14 24 29 21 24 26 28 24 21 19 18 18 18 21 24 26 28 29 29 30 30 30 30 31 33 35 38 40 42
2 4 4 4 2 1 1 5 7 2 5 6 5 2 5 11 11 19 18 18 16 18 20 22 17 14 15 18 23 26 28 28 29 31 32 32 30 30 32 34 36 39 40 41
7 7 3 3 4 3 4 0 3 2 3 4 4 5 2 4 8 11 11 11 16 21 20 16 12 12 16 21 24 26 27 28 29 29 29 30 31 31 32 34 35 36 39 39
4 4 0 3 3 4 2 2 2 4 4 3 3 3 2 12 11 7 10 15 21 22 18 15 13 13 17 22 26 27 28 29 29 29 28 27 27 29 31 31 31 32 35 35
1 4 3 7 4 4 4 6 9 5 5 3 2 5 4 7 5 11 14 21 23 18 15 12 14 18 22 24 28 29 29 28 28 27 26 25 24 25 26 26 25 23 27 32
5 1 1 4 3 2 4 4 5 2 4 3 2 3 3 5 5 19 16 22 21 15 15 16 19 21 23 26 27 27 27 26 26 26 24 23 21 21 22 21 21 21 20 22
6 3 5 6 1 1 3 7 8 4 3 4 9 10 6 2 9 11 17 23 18 16 16 16 19 21 23 24 25 25 25 24 24 24 24 24 22 20 19 17 17 16 16 16
4 3 3 6 9 8 8 15 8 7 7 6 10 7 8 6 12 14 19 18 16 15 15 14 18 21 22 23 24 23 22 22 23 24 26 26 26 24 19 18 16 15 15 17
2 1 3 2 7 10 11 10 11 7 5 7 8 2 13 18 22 20 17 15 14 12 13 15 16 17 20 22 21 21 23 24 24 25 27 28 29 30 29 28 26 22 23 28
4 3 3 3 2 5 4 4 3 6 6 3 4 3 10 12 16 13 14 12 14 12 12 11 13 15 16 18 20 24 26 26 26 27 27 28 30 32 36 36 36 37 38 38
7 5 3 2 2 3 2 9 8 4 10 7 8 10 13 15 14 13 12 12 12 10 10 11 12 13 14 16 19 21 24 26 27 28 29 29 32 35 38 40 41 42 44 46
5 4 2 3 3 4 2 5 4 3 2 8 4 10 17 21 19 13 10 10 11 12 11 12 13 13 14 17 19 21 24 27 28 29 28 30 32 37 39 42 44 45 47 49
5 5 4 1 3 4 2 4 8 6 3 6 8 5 12 15 2 2 7 10 12 13 13 15 16 19 22 22 20 22 26 30 34 32 28 26 29 32 36 38 41 44 46 49
3 2 5 2 3 1 3 4 1 2 3 4 8 9 6 3 4 17 13 14 13 12 12 15 15 16 18 20 21 20 22 25 26 29 32 31 31 33 34 34 36 37 40 42
5 4 3 2 2 6 7 3 3 2 5 3 7 10 22 24 22 19 17 15 15 14 14 14 13 12 12 15 18 21 21 18 18 21 26 32 34 35 34 35 36 38 40 41
1 4 3 2 2 6 6 6 4 3 7 6 11 14 22 25 22 19 18 17 16 16 14 9 9 10 11 10 12 16 17 15 17 21 24 26 30 34 35 36 37 38 38 40
2 4 4 4 4 7 8 5 6 6 9 10 13 17 19 23 21 20 18 17 17 15 12 7 8 10 12 12 12 13 14 16 19 22 25 27 28 30 33 35 37 37 38 38
1 3 6 4 7 9 9 7 8 10 12 13 13 16 19 20 20 19 18 17 16 13 9 8 9 12 15 16 19 18 17 18 21 21 23 25 27 29 30 33 36 37 36 33
4 1 1 1 15 8 13 11 10 13 14 15 18 18 17 17 19 18 18 18 16 12 8 9 10 10 12 15 18 19 18 18 20 23 23 24 25 26 27 28 28 29 31 29

GFSCGP_850_spd_120.txt.gz
Wind_Speed
6 4 7 15 10 8 6 9 15 11 7 10 12 19 18 20 16 17 25 26 8 23 32 30 25 20 16 12 10 8 7 7 8 10 12 15 17 18 23 28 23 19 18 27
3 8 11 9 10 12 13 14 15 16 12 13 12 12 7 7 12 20 23 28 14 27 28 26 22 18 12 8 6 3 4 7 10 12 12 13 17 20 22 24 26 29 26 22
10 8 7 11 13 14 17 12 13 16 10 3 5 13 7 19 20 26 28 12 19 23 24 24 21 18 13 9 7 7 8 9 10 13 17 16 17 18 23 25 27 27 29 30
9 18 18 16 12 10 17 6 11 8 7 8 6 12 12 16 12 6 11 21 30 29 28 22 20 18 13 12 9 7 8 9 11 14 18 21 23 25 24 26 28 28 28 30
7 2 5 10 18 8 20 11 7 3 5 3 23 2 9 7 14 6 11 21 27 27 26 23 19 15 12 9 10 10 11 12 14 15 18 21 24 27 29 30 31 30 29 30
13 19 6 15 16 13 17 4 7 4 1 4 16 6 6 6 8 12 17 19 20 26 25 22 17 13 13 12 13 14 16 18 19 20 21 23 25 28 31 33 34 35 33 32
10 14 6 12 13 3 3 5 2 3 1 6 4 2 3 7 14 15 14 23 20 19 22 21 20 19 18 18 18 18 19 21 22 24 24 25 26 28 31 32 35 37 37 36
5 6 5 3 5 6 6 8 5 4 3 4 2 5 3 7 13 17 10 14 21 15 19 19 16 17 20 20 23 23 24 24 26 27 27 27 27 29 30 32 34 36 38 38
5 6 2 3 3 6 2 3 6 1 2 2 3 2 4 8 10 12 9 3 9 8 6 10 9 17 23 28 27 24 23 25 26 27 28 27 27 28 30 31 32 34 35 37
7 9 1 1 2 1 5 7 3 2 3 5 3 3 4 10 11 9 9 8 7 7 5 7 7 16 22 23 22 23 24 26 26 26 26 27 27 27 28 29 32 33 34 34
1 5 3 2 4 7 2 2 2 5 4 3 2 4 5 9 9 11 12 17 16 15 10 8 10 14 16 17 22 25 26 25 25 25 26 26 26 27 27 28 29 31 31 32
2 2 4 6 4 4 3 5 6 4 4 4 2 5 4 10 12 16 18 16 12 9 8 10 12 13 17 21 24 24 24 23 24 25 24 24 25 26 25 25 26 26 28 29
7 2 1 5 4 3 3 4 3 2 4 12 5 5 5 8 13 24 20 16 12 9 8 11 13 17 18 19 21 23 23 24 25 24 24 24 23 24 23 22 21 22 23 24
7 4 6 9 3 4 2 5 2 5 3 3 8 11 6 9 15 18 19 14 11 9 9 10 12 12 17 21 23 24 26 26 24 23 23 23 23 23 23 20 18 17 18 19
5 5 4 4 2 3 3 9 14 8 9 10 11 4 7 7 10 13 15 13 11 10 10 11 12 15 19 21 23 26 27 27 26 23 21 20 20 22 23 22 19 18 17 16
1 3 2 2 3 4 7 11 9 8 6 5 5 4 6 14 19 15 10 9 9 9 9 8 9 15 19 21 23 26 28 28 26 25 24 22 22 23 25 26 25 25 25 25
6 5 2 3 1 1 4 6 11 7 4 1 3 4 5 5 8 7 7 8 7 6 5 8 13 16 17 19 21 24 23 22 25 28 28 27 27 28 28 28 30 31 33 34
6 6 3 2 1 4 1 5 6 11 6 6 8 8 7 10 9 6 4 5 5 5 7 10 11 13 15 16 18 21 23 24 25 24 25 26 27 29 31 33 36 38 41 43
5 4 3 3 3 1 1 4 2 3 2 3 6 7 12 17 16 9 4 5 8 9 12 13 14 16 17 18 17 18 21 24 26 27 26 24 23 24 27 31 34 38 42 46
5 4 4 2 3 5 5 1 6 3 4 4 4 9 13 16 2 3 9 10 12 12 12 14 15 17 16 15 14 17 19 22 27 29 28 24 24 27 29 29 31 34 38 41
3 2 5 2 2 4 3 1 1 3 5 2 3 6 9 6 5 18 15 14 11 11 11 12 13 14 13 13 13 15 16 19 18 21 24 25 25 27 29 30 32 34 38 40
5 5 3 3 2 7 2 2 5 2 3 2 2 4 8 15 21 21 18 17 14 12 10 10 9 10 10 9 10 15 17 15 13 15 20 23 25 27 28 30 33 35 36 39
0 5 4 4 4 5 5 6 3 3 6 3 4 9 20 25 24 21 19 16 14 13 11 7 6 7 7 8 10 14 16 12 13 17 20 22 25 27 29 32 34 36 38 40
1 4 4 3 3 7 8 5 3 3 5 8 10 15 19 23 22 21 19 17 15 12 10 6 8 11 13 11 11 13 12 12 14 18 21 24 26 28 30 34 35 35 37 38
2 4 5 3 6 10 7 6 6 8 9 11 13 16 18 21 21 20 19 16 14 11 9 8 11 13 14 14 14 13 12 13 15 17 19 21 23 25 27 29 32 33 31 31
2 3 4 4 14 7 11 10 9 12 13 13 16 18 18 20 21 20 19 16 14 11 9 10 11 12 14 12 11 12 13 13 14 17 19 20 22 23 24 25 26 27 27 26

GFSCGP_850_spd_123.txt.gz
Wind_Speed
7 4 7 14 9 4 2 3 5 5 10 8 15 20 14 14 12 20 26 20 7 12 17 18 17 16 13 12 9 8 6 6 7 9 10 12 14 16 18 21 19 17 20 17
2 5 11 7 6 6 7 10 10 6 11 7 12 17 10 4 8 17 22 17 14 22 20 18 15 12 13 12 10 6 3 1 3 4 6 9 10 11 15 16 17 17 19 20
6 6 7 8 6 8 10 8 11 11 6 5 7 13 10 8 16 13 17 3 14 19 22 18 18 16 12 14 14 12 12 10 8 7 7 8 10 12 17 19 21 20 20 21
6 13 12 7 6 7 9 9 11 9 4 9 4 12 17 8 14 15 22 26 26 23 21 19 18 18 16 14 12 14 14 15 14 14 13 14 17 18 18 21 22 22 23 24
7 3 3 6 14 7 8 8 11 13 4 5 4 3 5 8 9 10 15 23 25 21 20 20 19 19 18 17 18 16 16 18 18 17 17 17 18 21 23 25 26 26 25 26
7 9 4 7 10 10 6 4 0 3 2 6 11 9 4 3 1 8 14 20 20 17 17 18 17 19 21 22 22 23 22 24 23 22 21 21 22 22 24 26 28 29 29 28
2 11 7 11 6 5 5 3 2 2 1 5 2 1 1 5 8 8 10 14 14 11 13 15 21 23 26 28 31 29 27 27 26 24 23 24 25 25 26 26 27 30 31 30
3 6 6 4 8 8 6 8 5 4 3 4 4 6 4 9 13 14 12 12 7 4 9 9 8 12 24 30 33 28 28 28 28 27 26 26 27 28 27 27 28 29 30 30
6 6 1 3 3 7 3 3 3 1 1 1 4 1 4 9 9 12 11 7 7 6 5 3 5 10 14 19 20 25 28 24 25 27 27 26 26 26 28 28 28 29 29 30
4 4 2 2 2 2 6 7 3 2 3 5 4 4 4 16 14 13 8 10 6 6 4 2 8 13 13 13 16 19 20 23 26 25 25 26 25 26 26 26 27 27 27 28
5 6 2 2 5 8 3 3 3 4 4 4 3 5 5 15 17 14 13 14 13 12 6 3 10 11 13 15 17 19 20 22 24 24 23 23 24 24 25 25 24 25 25 25
0 3 3 7 4 3 3 7 7 4 5 4 2 7 4 7 13 20 19 20 17 9 2 5 9 12 14 17 19 21 23 25 25 24 24 22 23 23 23 23 22 22 23 23
7 2 1 4 2 2 4 4 4 2 3 8 6 4 2 8 12 20 19 18 13 7 1 5 8 11 15 17 19 20 22 23 22 21 21 23 22 22 22 23 22 20 20 20
4 4 6 8 4 3 4 4 2 5 3 5 8 5 0 10 12 14 18 18 12 5 2 6 9 10 12 15 17 18 21 22 22 24 24 22 22 23 23 21 21 21 20 19
5 6 4 3 2 3 3 4 6 7 9 7 6 12 1 3 10 15 19 14 10 6 4 4 6 8 9 12 14 16 19 21 22 22 25 28 25 22 22 22 23 23 23 22
2 3 2 3 2 3 10 8 8 10 11 12 4 3 5 9 18 14 12 10 8 5 3 3 5 6 6 8 12 14 14 15 17 22 28 29 28 27 28 27 28 29 30 31
5 4 3 3 4 2 7 11 16 11 1 1 5 4 12 7 10 10 9 7 7 5 4 5 4 3 6 9 12 15 15 15 18 21 23 25 27 28 29 32 33 36 38 38
5 7 3 2 3 5 1 3 2 3 2 1 4 7 7 11 9 8 6 8 6 5 5 6 8 9 9 10 11 15 19 20 21 24 26 26 25 24 26 28 30 33 37 40
5 5 3 4 5 3 2 2 3 3 4 3 6 7 11 12 9 3 3 4 7 7 9 12 10 9 9 9 11 13 18 23 25 25 26 26 26 26 27 29 29 30 32 36
5 7 4 3 3 6 5 3 4 3 5 5 6 10 15 14 3 3 11 10 11 11 12 10 10 8 8 8 8 11 16 20 25 24 24 24 25 25 25 27 29 30 33 36
5 3 8 2 3 5 4 5 3 4 6 6 5 7 15 6 6 14 15 15 13 13 11 9 8 8 8 7 7 12 14 18 18 19 21 21 22 22 24 26 27 29 30 32
7 6 3 3 2 7 9 4 6 4 6 5 5 7 9 13 12 21 20 18 15 12 9 7 7 6 6 6 7 12 16 14 14 16 19 21 22 23 23 25 28 31 32 34
1 5 5 5 4 1 5 4 5 3 2 4 4 3 10 18 24 23 21 19 16 13 9 6 5 5 4 6 9 11 13 12 13 16 19 21 23 26 27 29 31 33 35 36
1 2 3 3 2 4 7 5 2 2 3 4 4 9 17 24 23 22 21 18 15 10 8 6 6 7 8 8 9 11 11 12 13 16 19 21 24 25 27 28 30 31 34 36
3 6 7 3 3 5 6 7 6 5 7 10 11 14 18 21 21 21 19 17 13 10 9 7 9 11 11 9 10 11 12 12 13 15 17 19 21 23 25 28 29 29 29 29
1 5 4 4 13 5 9 13 10 11 11 12 16 17 17 18 21 19 17 15 12 12 10 10 10 10 10 9 10 11 11 11 11 14 16 18 20 21 22 23 24 25 25 26

GFSCGP_850_spd_126.txt.gz
Wind_Speed
5 3 7 13 7 3 4 1 4 6 10 5 8 9 9 18 21 18 21 15 14 15 14 14 14 12 11 8 7 7 4 3 2 7 8 7 7 8 9 12 14 14 15 19
3 5 10 2 4 4 4 2 6 6 7 6 9 11 9 7 9 17 15 17 18 17 17 17 16 15 15 13 11 9 11 13 10 6 5 7 9 8 10 10 12 14 16 16
6 5 4 5 4 6 5 3 4 7 6 4 8 6 4 8 16 19 25 23 20 19 19 18 18 19 18 19 20 20 16 11 11 12 9 7 9 9 12 14 14 15 16 18
5 7 4 2 5 6 2 7 6 5 4 4 1 6 4 4 10 11 16 23 21 19 17 16 18 19 21 23 21 21 21 21 19 18 16 17 17 18 17 19 21 21 19 20
7 5 5 7 12 6 8 7 7 5 6 0 3 3 3 6 7 6 9 14 16 15 16 17 19 21 22 24 25 24 24 24 23 22 23 24 23 22 23 23 24 24 24 22
6 2 5 7 5 7 1 2 1 3 2 4 11 8 3 3 5 7 7 9 11 11 10 10 14 19 21 25 28 28 24 25 26 26 25 26 27 25 26 25 27 27 26 25
2 6 4 5 4 2 4 3 3 2 1 5 4 3 10 4 6 9 13 9 7 2 3 5 5 11 14 15 28 33 33 33 34 32 28 28 28 28 29 28 28 28 29 27
3 5 6 3 8 7 5 8 4 4 3 4 3 5 5 6 9 12 13 10 5 1 3 4 5 7 11 14 16 16 20 27 31 31 31 29 28 28 28 28 29 29 29 28
4 5 1 4 4 9 4 4 3 3 1 1 4 4 4 8 10 12 12 9 7 3 5 5 6 10 14 15 17 20 20 22 24 25 25 23 23 25 26 26 26 25 26 27
5 5 4 1 2 3 5 7 3 2 2 4 4 5 6 13 15 12 12 16 10 8 8 6 8 13 14 16 17 19 20 22 23 23 24 24 25 24 23 25 25 24 24 23
4 5 4 2 5 8 2 2 4 3 4 4 2 6 6 13 15 14 16 19 15 10 9 5 8 11 14 15 16 19 21 23 23 23 23 23 23 25 23 23 24 22 22 22
3 3 3 8 1 2 4 7 9 4 5 4 2 9 4 5 8 18 16 13 15 14 7 3 7 9 11 14 16 18 19 21 22 22 23 23 21 19 19 20 21 21 22 20
3 3 2 4 2 2 5 5 5 2 3 8 4 6 4 3 6 10 17 18 17 10 4 3 5 8 10 12 14 16 18 19 20 21 22 21 22 22 23 22 22 21 19 19
3 3 6 9 6 3 4 6 6 5 3 4 12 9 3 5 8 10 16 20 16 8 3 4 6 7 9 11 12 13 15 16 18 20 23 25 26 25 24 23 21 20 20 21
6 6 6 6 6 4 4 4 4 7 9 9 13 11 5 4 8 11 18 18 12 6 1 3 4 5 7 9 10 11 12 14 16 18 21 22 24 26 24 23 24 24 25 26
3 3 2 5 4 5 7 5 7 10 12 11 10 10 4 8 17 16 15 12 9 6 2 1 2 4 6 9 12 14 14 15 16 15 16 17 20 21 23 24 26 29 33 36
2 4 3 6 1 2 9 11 16 12 3 4 6 5 7 6 10 14 15 11 9 7 4 3 1 2 5 9 12 13 13 12 13 15 17 18 18 20 22 23 24 28 34 37
5 5 3 1 3 5 2 0 1 6 2 2 2 4 6 10 12 11 10 11 9 6 5 5 5 4 6 7 8 10 11 12 12 14 16 16 18 20 22 25 29 30 33 36
11 5 3 3 5 5 2 4 5 5 5 7 8 9 13 13 9 2 6 7 8 8 9 10 8 7 6 5 4 5 9 11 12 14 16 17 20 22 24 26 29 31 33 36
10 8 6 3 3 7 6 3 7 4 4 7 9 12 15 13 4 3 13 9 11 13 14 11 9 8 5 3 2 2 6 10 14 16 16 17 20 23 25 27 29 30 32 35
4 4 8 4 4 5 3 7 6 5 5 7 13 16 18 6 5 8 16 14 14 15 12 10 9 8 6 3 1 3 6 11 13 14 16 18 19 21 23 26 28 30 32 33
7 6 3 3 3 6 13 5 6 4 7 9 9 12 19 12 9 17 18 19 18 15 12 10 10 8 5 2 2 5 9 10 10 13 16 20 22 23 24 26 28 30 32 35
3 6 5 6 4 1 8 4 11 8 8 6 7 7 11 13 18 22 22 20 18 14 11 9 8 7 4 1 4 7 9 8 10 13 17 20 22 24 27 29 31 33 35 37
3 2 3 3 2 4 9 9 8 7 5 6 5 7 11 17 23 24 23 20 19 12 10 9 8 7 4 4 5 6 7 8 10 14 17 19 22 24 27 28 31 32 35 36
2 6 5 1 2 5 7 8 9 7 9 11 10 10 16 22 24 25 23 20 16 12 10 11 9 9 8 7 7 6 7 7 11 13 16 19 21 23 25 27 28 29 29 30
3 4 4 4 11 4 4 16 9 13 12 13 15 18 18 20 24 23 21 17 15 13 13 12 11 10 9 8 8 8 8 8 10 13 17 19 20 21 22 23 24 25 25 26